[[{"header":{"parameterUnit":"m.s-1","parameterCategory":1,"la1":30.6,"la2":29.2853,"lo1":-89.7004,"lo2":-87.6739,"dy":0.0162,"dx":0.0183,"nx":112,"ny":82,"refTime":"2026-04-25T12:00:00:Z","depth":0,"parameterNumber":2,"parameterNumberName":"U-component_of_WINDS"},"data":[0.0,0.0,0.0,0.0,0.0,0.0,0.0,0.0,0.0,0.0,0.0,0.0,0.0,0.0,0.0,0.0,0.0,0.0,0.0,0.0,0.0,0.0,0.0,0.0,0.0,0.0,0.0,0.0,0.0,0.0,0.0,0.0,0.0,0.0,0.0,0.0,0.0,0.0,0.0,0.0,0.0,0.0,0.0,0.0,0.0,0.0,0.0,0.0,0.0,0.0,0.0,0.0,0.0,0.0,0.0,0.0,0.0,0.0,0.0,0.0,0.0,0.0,0.0,0.0,0.0,0.0,0.0,0.0,0.0,0.0,0.0,0.0,0.0,0.0,0.0,0.0,0.0,0.0,0.0,0.0,0.0,0.0,0.0,0.0,0.0,0.0,0.0,0.0,0.0,0.0,-4.3789,-4.7969,-5.332,-5.5898,-5.4141,-5.1797,-4.8476,-4.3984,0.0,0.0,0.0,0.0,0.0,0.0,0.0,0.0,0.0,0.0,0.0,0.0,0.0,0.0,0.0,0.0,0.0,0.0,0.0,0.0,0.0,0.0,0.0,0.0,0.0,0.0,0.0,0.0,0.0,0.0,0.0,0.0,0.0,0.0,0.0,0.0,0.0,0.0,0.0,0.0,0.0,0.0,0.0,0.0,0.0,0.0,0.0,0.0,0.0,0.0,0.0,0.0,0.0,0.0,0.0,0.0,0.0,0.0,0.0,0.0,0.0,0.0,0.0,0.0,0.0,0.0,0.0,0.0,0.0,0.0,0.0,0.0,0.0,0.0,0.0,0.0,0.0,0.0,0.0,0.0,0.0,0.0,0.0,0.0,0.0,0.0,0.0,0.0,0.0,0.0,0.0,0.0,0.0,0.0,0.0,0.0,0.0,0.0,0.0,0.0,0.0,0.0,0.0,0.0,-4.4101,-5.1172,-5.4726,-5.5898,-5.4141,-5.2305,-4.9062,-4.4023,0.0,0.0,0.0,0.0,0.0,0.0,0.0,0.0,0.0,0.0,0.0,0.0,0.0,0.0,0.0,0.0,0.0,0.0,0.0,0.0,0.0,0.0,0.0,0.0,0.0,0.0,0.0,0.0,0.0,0.0,0.0,0.0,0.0,0.0,0.0,0.0,0.0,0.0,0.0,0.0,0.0,0.0,0.0,0.0,0.0,0.0,0.0,0.0,0.0,0.0,0.0,0.0,0.0,0.0,0.0,0.0,0.0,0.0,0.0,0.0,0.0,0.0,0.0,0.0,0.0,0.0,0.0,0.0,0.0,0.0,0.0,0.0,0.0,0.0,0.0,0.0,0.0,0.0,0.0,0.0,0.0,0.0,0.0,0.0,0.0,0.0,0.0,0.0,0.0,0.0,0.0,0.0,0.0,0.0,0.0,0.0,0.0,0.0,0.0,0.0,0.0,0.0,0.0,-4.2969,-4.7266,-5.2187,-5.418,-5.4492,-5.2734,-5.0586,-4.7539,-4.3242,-3.8516,0.0,0.0,0.0,0.0,0.0,0.0,0.0,0.0,0.0,0.0,0.0,0.0,0.0,0.0,0.0,0.0,0.0,0.0,0.0,0.0,0.0,0.0,0.0,0.0,0.0,0.0,0.0,0.0,0.0,0.0,0.0,0.0,0.0,0.0,0.0,0.0,0.0,0.0,0.0,0.0,0.0,0.0,0.0,0.0,0.0,0.0,0.0,0.0,0.0,0.0,0.0,0.0,0.0,0.0,0.0,0.0,0.0,0.0,0.0,0.0,0.0,0.0,0.0,0.0,0.0,0.0,0.0,0.0,0.0,0.0,0.0,0.0,0.0,0.0,0.0,0.0,0.0,0.0,0.0,0.0,0.0,0.0,0.0,0.0,0.0,0.0,0.0,0.0,0.0,0.0,0.0,0.0,0.0,0.0,0.0,0.0,0.0,0.0,0.0,0.0,0.0,0.0,-4.6601,-4.9804,-5.2148,-5.3359,-5.3203,-5.1289,-4.8594,-4.543,-4.1758,-3.6641,0.0,0.0,0.0,0.0,0.0,0.0,0.0,0.0,0.0,0.0,0.0,0.0,0.0,0.0,0.0,0.0,0.0,0.0,0.0,0.0,0.0,0.0,0.0,0.0,0.0,0.0,0.0,0.0,0.0,0.0,0.0,0.0,0.0,0.0,0.0,0.0,0.0,0.0,0.0,0.0,0.0,0.0,0.0,0.0,0.0,0.0,0.0,0.0,0.0,0.0,0.0,0.0,0.0,0.0,0.0,0.0,0.0,0.0,0.0,0.0,0.0,0.0,0.0,0.0,0.0,0.0,0.0,0.0,0.0,0.0,0.0,0.0,0.0,0.0,0.0,0.0,0.0,0.0,0.0,0.0,0.0,0.0,0.0,0.0,0.0,0.0,0.0,0.0,0.0,0.0,0.0,0.0,0.0,0.0,0.0,0.0,0.0,0.0,0.0,0.0,0.0,0.0,-4.6245,-4.9564,-5.1321,-5.3005,-5.3007,-5.0506,-4.7148,-4.3398,-3.9141,-3.4023,0.0,0.0,0.0,0.0,0.0,0.0,0.0,0.0,0.0,0.0,0.0,0.0,0.0,0.0,0.0,0.0,0.0,0.0,0.0,0.0,0.0,0.0,0.0,0.0,0.0,0.0,0.0,0.0,0.0,0.0,0.0,0.0,0.0,0.0,0.0,0.0,0.0,0.0,0.0,0.0,0.0,0.0,0.0,0.0,0.0,0.0,0.0,0.0,0.0,0.0,0.0,0.0,0.0,0.0,0.0,0.0,0.0,0.0,0.0,0.0,0.0,0.0,0.0,0.0,0.0,0.0,0.0,0.0,0.0,0.0,0.0,0.0,0.0,0.0,0.0,0.0,0.0,0.0,0.0,0.0,0.0,0.0,0.0,0.0,0.0,0.0,0.0,0.0,0.0,0.0,0.0,0.0,0.0,0.0,0.0,0.0,0.0,0.0,0.0,0.0,0.0,0.0,-4.5384,-4.8548,0.0,-5.0895,-5.0584,-4.8006,-4.4609,-4.125,-3.8008,0.0,0.0,0.0,0.0,0.0,0.0,0.0,0.0,0.0,0.0,0.0,0.0,0.0,0.0,0.0,0.0,0.0,0.0,0.0,0.0,0.0,0.0,0.0,0.0,0.0,0.0,0.0,0.0,0.0,0.0,0.0,0.0,0.0,0.0,0.0,0.0,0.0,0.0,0.0,0.0,0.0,0.0,0.0,0.0,0.0,0.0,0.0,0.0,0.0,0.0,0.0,0.0,0.0,0.0,0.0,0.0,0.0,0.0,0.0,0.0,0.0,0.0,0.0,0.0,0.0,0.0,0.0,0.0,0.0,0.0,0.0,0.0,0.0,0.0,0.0,0.0,0.0,0.0,0.0,0.0,0.0,0.0,0.0,0.0,0.0,0.0,0.0,0.0,0.0,0.0,0.0,0.0,0.0,0.0,0.0,0.0,0.0,0.0,0.0,0.0,0.0,0.0,-4.0028,-4.4246,-4.7214,0.0,-4.925,-4.8745,-4.6128,-4.2733,-3.9452,-3.6249,0.0,0.0,0.0,0.0,0.0,0.0,0.0,0.0,0.0,0.0,0.0,0.0,0.0,0.0,0.0,0.0,0.0,0.0,0.0,0.0,0.0,0.0,0.0,0.0,0.0,0.0,0.0,0.0,0.0,0.0,0.0,0.0,0.0,0.0,0.0,0.0,0.0,0.0,0.0,0.0,0.0,0.0,0.0,0.0,0.0,0.0,0.0,0.0,0.0,0.0,0.0,0.0,0.0,0.0,0.0,0.0,0.0,0.0,0.0,0.0,0.0,0.0,0.0,0.0,0.0,0.0,0.0,0.0,0.0,0.0,0.0,0.0,0.0,0.0,0.0,0.0,0.0,0.0,0.0,0.0,0.0,0.0,0.0,0.0,0.0,0.0,0.0,0.0,0.0,0.0,0.0,0.0,0.0,0.0,0.0,0.0,0.0,0.0,0.0,0.0,0.0,0.0,-3.9117,-4.2825,-4.5673,-4.7391,-4.8376,-4.7835,-4.5219,-4.1865,-3.8041,0.0,0.0,0.0,0.0,0.0,0.0,0.0,0.0,0.0,0.0,0.0,0.0,0.0,0.0,0.0,0.0,0.0,0.0,0.0,0.0,0.0,0.0,0.0,0.0,0.0,0.0,0.0,0.0,0.0,0.0,0.0,0.0,0.0,0.0,0.0,0.0,0.0,0.0,0.0,0.0,0.0,0.0,0.0,0.0,0.0,0.0,0.0,0.0,0.0,0.0,0.0,0.0,0.0,0.0,0.0,0.0,0.0,0.0,0.0,0.0,0.0,0.0,0.0,0.0,0.0,0.0,0.0,0.0,0.0,0.0,0.0,0.0,0.0,0.0,0.0,0.0,0.0,0.0,0.0,0.0,0.0,0.0,0.0,0.0,0.0,0.0,0.0,0.0,0.0,0.0,0.0,0.0,0.0,0.0,0.0,0.0,0.0,0.0,0.0,0.0,0.0,0.0,0.0,-3.8298,-4.2474,-4.5441,-4.6573,-4.7478,-4.6936,-4.4319,-4.1513,-3.8314,-3.4565,0.0,0.0,0.0,0.0,0.0,0.0,0.0,0.0,0.0,0.0,0.0,0.0,0.0,0.0,0.0,0.0,0.0,0.0,0.0,0.0,0.0,0.0,0.0,0.0,0.0,0.0,0.0,0.0,0.0,0.0,0.0,0.0,0.0,0.0,0.0,0.0,0.0,0.0,0.0,0.0,0.0,0.0,0.0,0.0,0.0,0.0,0.0,0.0,0.0,0.0,0.0,0.0,0.0,0.0,0.0,0.0,0.0,0.0,0.0,0.0,0.0,0.0,0.0,0.0,0.0,0.0,0.0,0.0,0.0,0.0,0.0,0.0,0.0,0.0,0.0,0.0,0.0,0.0,0.0,0.0,0.0,0.0,0.0,0.0,0.0,0.0,0.0,0.0,0.0,0.0,0.0,0.0,0.0,0.0,0.0,0.0,0.0,0.0,0.0,0.0,0.0,0.0,-3.7947,-4.2045,-4.4933,-4.6183,-4.6773,-4.615,-4.3886,-4.1976,-3.9128,-3.4951,0.0,0.0,0.0,0.0,0.0,0.0,0.0,0.0,0.0,0.0,0.0,0.0,0.0,0.0,0.0,0.0,0.0,0.0,0.0,0.0,0.0,0.0,0.0,0.0,0.0,0.0,0.0,0.0,0.0,0.0,0.0,0.0,0.0,0.0,0.0,0.0,0.0,0.0,0.0,0.0,0.0,0.0,0.0,0.0,0.0,0.0,0.0,0.0,0.0,0.0,0.0,0.0,0.0,0.0,0.0,0.0,0.0,0.0,0.0,0.0,0.0,0.0,0.0,0.0,0.0,0.0,0.0,0.0,0.0,0.0,0.0,0.0,0.0,0.0,0.0,0.0,0.0,0.0,0.0,0.0,0.0,0.0,0.0,0.0,0.0,0.0,0.0,0.0,0.0,0.0,0.0,0.0,0.0,0.0,0.0,0.0,0.0,0.0,0.0,0.0,0.0,0.0,-3.783,-4.1539,-4.4348,-4.5987,-4.6261,-4.5597,-4.384,-4.2902,-4.0246,-3.5132,0.0,0.0,0.0,0.0,0.0,0.0,0.0,0.0,0.0,0.0,0.0,0.0,0.0,0.0,0.0,0.0,0.0,0.0,0.0,0.0,0.0,0.0,0.0,0.0,0.0,0.0,0.0,0.0,0.0,0.0,0.0,0.0,0.0,0.0,0.0,0.0,0.0,0.0,0.0,0.0,0.0,0.0,0.0,0.0,0.0,0.0,0.0,0.0,0.0,0.0,0.0,0.0,0.0,0.0,0.0,0.0,0.0,0.0,0.0,0.0,-4.2897,0.0,0.0,0.0,0.0,0.0,0.0,0.0,0.0,0.0,0.0,0.0,0.0,0.0,0.0,0.0,0.0,0.0,0.0,0.0,0.0,0.0,0.0,0.0,0.0,0.0,0.0,0.0,0.0,0.0,0.0,0.0,0.0,0.0,0.0,0.0,0.0,0.0,0.0,0.0,0.0,0.0,-3.7009,-4.1147,-4.4114,-4.5168,-4.587,-4.5595,-4.3868,-4.2885,-4.0457,-3.5921,-3.2597,0.0,0.0,0.0,0.0,0.0,0.0,0.0,0.0,0.0,0.0,0.0,0.0,0.0,0.0,0.0,0.0,0.0,0.0,0.0,0.0,0.0,0.0,0.0,0.0,0.0,0.0,0.0,0.0,0.0,0.0,0.0,0.0,0.0,0.0,0.0,0.0,0.0,0.0,0.0,0.0,0.0,0.0,0.0,0.0,0.0,0.0,0.0,0.0,0.0,0.0,0.0,0.0,0.0,0.0,0.0,0.0,0.0,0.0,0.0,0.0,-4.4721,0.0,0.0,0.0,0.0,0.0,0.0,0.0,0.0,0.0,0.0,0.0,0.0,0.0,0.0,0.0,0.0,0.0,0.0,0.0,0.0,0.0,0.0,0.0,0.0,0.0,0.0,0.0,0.0,0.0,0.0,0.0,0.0,0.0,0.0,0.0,0.0,0.0,0.0,0.0,0.0,-3.6735,-4.1069,-4.4036,-4.4893,-4.5402,-4.5123,-4.3821,-4.2866,-4.0661,-3.6735,-3.3631,0.0,0.0,0.0,0.0,0.0,0.0,0.0,0.0,0.0,0.0,0.0,0.0,0.0,0.0,0.0,0.0,0.0,0.0,0.0,0.0,0.0,0.0,0.0,0.0,0.0,0.0,0.0,0.0,0.0,0.0,0.0,0.0,0.0,0.0,0.0,0.0,0.0,0.0,0.0,0.0,0.0,0.0,0.0,0.0,0.0,0.0,0.0,0.0,0.0,0.0,0.0,0.0,0.0,-5.171,-5.2138,-5.2411,-5.2255,-5.2684,-5.3307,-4.9722,-4.828,-4.8241,-4.653,0.0,0.0,0.0,0.0,0.0,0.0,0.0,0.0,0.0,0.0,0.0,0.0,0.0,0.0,0.0,0.0,0.0,0.0,0.0,0.0,0.0,0.0,0.0,0.0,-4.0592,-3.9312,-3.5057,0.0,0.0,0.0,0.0,0.0,0.0,0.0,0.0,0.0,0.0,0.0,-3.6774,-4.1069,-4.3918,-4.4502,-4.4813,-4.4569,-4.3529,-4.2718,-4.0808,-3.7296,-3.4913,-3.2085,0.0,0.0,0.0,0.0,0.0,0.0,0.0,0.0,0.0,0.0,0.0,0.0,0.0,0.0,0.0,0.0,0.0,0.0,0.0,0.0,0.0,0.0,0.0,0.0,0.0,0.0,0.0,0.0,0.0,0.0,0.0,0.0,-4.2279,-4.4036,0.0,0.0,0.0,0.0,0.0,0.0,0.0,0.0,0.0,0.0,0.0,0.0,0.0,-5.3463,-5.4355,-5.4589,-5.5022,-5.5649,-5.4983,-5.545,-5.6814,-5.6117,-5.6273,-5.7009,-5.6429,0.0,-5.1787,-5.0034,0.0,0.0,0.0,0.0,0.0,0.0,0.0,0.0,0.0,0.0,0.0,0.0,0.0,0.0,0.0,0.0,0.0,0.0,0.0,0.0,0.0,0.0,-4.4316,-4.4228,-4.3708,-4.2982,0.0,-3.9234,-3.5837,-3.3221,-3.1425,0.0,0.0,0.0,0.0,0.0,0.0,0.0,-3.6931,-4.1069,-4.3448,-4.2815,-4.4055,-4.4267,-4.262,-4.2334,-4.0722,-3.725,-3.5906,-3.3736,-3.0327,-2.8466,0.0,0.0,0.0,0.0,0.0,0.0,0.0,0.0,0.0,0.0,0.0,0.0,0.0,0.0,0.0,0.0,0.0,0.0,0.0,0.0,0.0,0.0,0.0,0.0,0.0,0.0,0.0,0.0,0.0,-4.1851,-4.4968,-4.6219,-4.7189,-4.7384,0.0,0.0,0.0,0.0,0.0,0.0,0.0,0.0,0.0,-5.2567,-5.4827,-5.623,-5.658,-5.7594,-5.8256,-5.8646,-5.8256,-5.8724,-5.9893,-5.9542,-5.9542,-5.9893,-5.9893,-5.8749,-5.6651,-5.3969,-5.1011,-4.7983,0.0,0.0,0.0,0.0,-4.3304,-4.3929,-4.3535,-4.3613,-4.3742,-4.2978,0.0,0.0,0.0,0.0,0.0,0.0,0.0,0.0,0.0,0.0,-4.549,-4.5519,-4.5293,-4.4972,-4.4462,-4.2902,-4.0645,0.0,-3.5603,-3.3768,-3.1542,0.0,0.0,0.0,0.0,-3.5096,-3.7674,-4.0912,-4.282,-4.2453,-4.3019,-4.3101,-4.2291,-4.1699,-4.0294,-3.7787,-3.6748,-3.4892,-3.1962,-3.0221,-2.8135,0.0,0.0,0.0,0.0,0.0,0.0,0.0,0.0,0.0,0.0,0.0,0.0,0.0,0.0,0.0,0.0,0.0,0.0,0.0,0.0,0.0,0.0,0.0,0.0,0.0,0.0,0.0,0.0,-4.5007,-4.7657,-4.8982,-5.0229,-5.0618,0.0,0.0,0.0,0.0,0.0,0.0,-5.1047,-5.2879,-5.4126,-5.4554,-5.7048,-5.8451,-5.8685,-5.9971,-6.0633,-6.0633,-6.0633,-6.0984,-6.1607,-6.1607,-6.1607,-6.1607,-6.1607,-6.1071,-5.9966,-5.7187,-5.405,-5.0939,-4.9916,-4.8441,-4.6929,-4.6819,-4.6944,-4.7136,-4.7135,-4.7223,-4.7319,-4.7127,-4.5592,-4.3551,-4.2096,0.0,0.0,0.0,0.0,-4.234,-4.4492,-4.5652,-4.6246,-4.6247,-4.6158,-4.5935,-4.5269,-4.4954,-4.3852,0.0,-3.8949,-3.7193,-3.4775,0.0,0.0,0.0,0.0,-3.6456,-3.8647,-4.0948,-4.2307,-4.2091,-4.2175,-4.2163,-4.1879,-4.0947,-3.9722,-3.8196,-3.7235,-3.5545,-3.3006,-3.1692,-2.9731,-2.7005,0.0,0.0,0.0,0.0,0.0,0.0,0.0,0.0,0.0,0.0,0.0,0.0,0.0,0.0,0.0,0.0,0.0,0.0,0.0,0.0,0.0,0.0,0.0,0.0,0.0,0.0,0.0,0.0,0.0,-5.3268,-5.3654,0.0,0.0,0.0,0.0,-5.4667,-5.4862,-5.5567,-5.7169,-5.7364,-5.8217,-5.9854,-6.0088,-6.0555,-6.1412,-6.149,-6.1529,-6.1529,-6.1529,-6.1568,-6.1607,-6.1607,-6.1607,-6.1607,-6.1607,-6.1071,-6.0122,-5.8998,-5.69,-5.434,-5.3282,-5.1785,-5.0259,-5.0111,-5.06,-5.1288,-5.1288,-5.1797,-5.232,-5.1556,-4.9033,-4.6156,-4.5326,-4.3836,0.0,0.0,-4.4411,-4.5361,-4.634,-4.6707,-4.687,-4.6946,-4.6371,-4.5807,-4.5768,-4.5097,-4.3829,0.0,-4.031,-3.9107,-3.7327,0.0,-3.604,-3.6861,-3.7758,-3.866,-3.9611,-4.1291,-4.2063,-4.1256,-4.1795,-4.1846,-4.0959,-4.0024,-3.9083,-3.8155,-3.7221,-3.5545,-3.3006,-3.2814,-3.1237,-2.7895,-2.6077,0.0,0.0,0.0,0.0,0.0,0.0,0.0,0.0,0.0,0.0,0.0,0.0,0.0,0.0,0.0,0.0,0.0,0.0,0.0,0.0,0.0,0.0,0.0,0.0,0.0,0.0,0.0,0.0,-5.6113,-5.7827,0.0,-5.8529,-5.7399,-5.7204,-5.8373,-5.8996,-5.9347,-5.9386,-6.0945,-6.1334,-6.0321,-6.1373,-6.1841,-6.1607,-6.1607,-6.1607,-6.1607,-6.1607,-6.1607,-6.1607,-6.1607,-6.1607,-6.1607,-6.1607,-6.1383,-6.1011,-6.0553,-5.8459,-5.5492,-5.4978,-5.3689,-5.2154,-5.2043,-5.2188,-5.2444,-5.2396,-5.2575,-5.2575,-5.12,-4.9213,-4.7177,-4.6347,-4.5277,-4.459,-4.5392,-4.5893,-4.625,-4.6549,-4.6752,-4.6716,-4.621,-4.5905,-4.5733,-4.5733,-4.5493,-4.4871,-4.3557,-4.2222,-4.0963,-3.9773,-3.8948,-3.8539,-3.8812,-3.9124,-3.9633,-4.0535,-4.1168,-4.1432,-4.1071,-4.121,-4.0937,-4.0051,-3.9566,-3.8705,-3.7298,-3.6399,-3.5276,-3.3814,-3.2648,-3.1251,-2.9477,-2.778,-2.5662,0.0,0.0,0.0,0.0,0.0,0.0,0.0,0.0,0.0,0.0,0.0,0.0,0.0,0.0,0.0,0.0,0.0,0.0,0.0,0.0,0.0,0.0,0.0,0.0,0.0,0.0,-5.6775,-5.8763,-6.0789,-6.1919,-6.1607,-6.0828,-6.0555,-6.114,-6.1724,-6.1802,-6.1218,-6.2503,-6.262,-6.1218,-6.1997,-6.2192,-6.1607,-6.1607,-6.1607,-6.1607,-6.1607,-6.1602,-6.1559,-6.1588,-6.1539,-6.1528,-6.1518,-6.1484,-6.1428,-6.1313,-5.9545,-5.6854,-5.6686,-5.5545,-5.401,-5.3854,-5.3786,-5.3766,-5.372,-5.3492,-5.2996,-5.1582,-5.0206,-4.8896,-4.8067,-4.7417,-4.7111,-4.7646,-4.763,-4.7433,-4.7433,-4.7057,-4.6561,-4.6023,-4.5733,-4.5547,-4.5547,-4.5547,-4.5419,-4.4908,-4.3608,-4.2316,-4.1449,-4.0684,-4.0172,-4.0172,-4.0172,-4.037,-4.0961,-4.1053,-4.1042,-4.0933,-4.0839,-4.0449,-3.9554,-3.9087,-3.8123,-3.6385,-3.55,-3.4538,-3.3385,-3.2206,-3.1188,-3.033,-2.8372,-2.6266,-2.4015,0.0,0.0,0.0,0.0,0.0,0.0,0.0,0.0,0.0,0.0,0.0,0.0,0.0,0.0,0.0,0.0,0.0,0.0,0.0,0.0,0.0,0.0,0.0,-5.1164,-5.51,-5.8763,-6.1334,-6.2426,-6.3283,-6.4062,-6.34,-6.2932,-6.2932,-6.2932,-6.2932,-6.2893,-6.2114,-6.2036,-6.2815,-6.2036,-6.1607,-6.1607,-6.1607,-6.1607,-6.1607,-6.1607,-6.1554,-6.1489,-6.1495,-6.146,-6.1389,-6.1394,-6.1352,-6.1268,-6.1186,-6.0157,-5.8565,-5.8449,-5.735,-5.5779,-5.5668,-5.555,-5.5499,-5.5403,-5.483,-5.3951,-5.3072,-5.227,-5.1429,-5.055,-5.0283,-5.0283,-5.0283,-4.971,-4.911,-4.9071,-4.7799,-4.65,-4.6462,-4.5851,-4.5288,-4.5288,-4.5288,-4.5337,-4.5398,-4.4267,-4.306,-4.2272,-4.1422,-4.0903,-4.0903,-4.0903,0.0,-4.09,-4.096,-4.0943,-4.0829,-4.0759,-4.0388,-3.9444,-3.8513,-3.7231,-3.5577,-3.4661,-3.3378,-3.1661,-3.1578,-3.1175,-3.0331,-2.7817,-2.5772,-2.4163,0.0,0.0,0.0,0.0,0.0,0.0,0.0,0.0,0.0,0.0,0.0,0.0,0.0,0.0,0.0,0.0,0.0,0.0,0.0,0.0,0.0,-4.9449,-5.2645,-5.3112,-5.7438,-6.1023,-6.2387,-6.3828,-6.4803,-6.5036,-6.4257,-6.3789,-6.3789,-6.3789,-6.3517,-6.2932,-6.2659,-6.2348,-6.1958,-6.1724,-6.1607,-6.1607,-6.1607,-6.1607,-6.1607,-6.1607,-6.1544,-6.1495,-6.1402,-6.1303,-6.1229,-6.1156,-6.1113,-6.1018,-6.0381,-5.9473,-5.844,-5.8404,-5.7332,-5.5758,-5.5643,-5.5535,-5.5415,-5.5416,-5.483,-5.3951,-5.3072,-5.227,-5.1429,-5.055,-5.0283,-5.0283,-5.0283,-4.971,-4.8945,-4.8334,-4.7341,-4.6347,-4.5774,-4.5468,-4.5288,-4.5288,-4.5288,-4.5337,-4.5398,-4.4623,-4.3709,-4.2903,-4.1654,-4.0748,-4.0748,-4.0748,0.0,-4.0759,-4.0782,-4.0738,-4.0661,-4.0089,-3.9341,-3.8474,-3.7509,-3.6274,-3.4585,-3.3657,-3.2697,-3.1654,-3.0938,-3.049,-3.0246,-2.8338,-2.6862,0.0,0.0,0.0,0.0,0.0,0.0,0.0,0.0,0.0,0.0,0.0,0.0,0.0,0.0,0.0,0.0,0.0,0.0,0.0,0.0,0.0,0.0,-5.2918,-5.6308,-5.7009,-6.001,-6.2581,-6.3789,-6.4803,-6.5387,-6.5387,-6.4608,-6.3945,-6.3634,-6.3595,-6.3244,-6.2387,-6.2348,-6.2114,-6.1607,-6.1607,-6.1602,-6.1554,-6.1539,-6.1528,-6.1518,-6.1507,-6.1466,-6.1356,-6.1244,-6.1156,-6.1059,-6.0577,-6.0372,-6.0295,-5.9417,-5.8568,0.0,0.0,0.0,0.0,0.0,-5.5476,-5.5403,-5.5403,-5.483,-5.3951,-5.3072,-5.227,-5.1429,-5.055,-5.0283,-5.0283,-5.0283,-4.9442,-4.8449,-4.7941,-4.692,-4.5889,-4.5392,-4.5288,-4.5288,-4.5288,-4.5288,-4.5288,-4.5367,-4.4699,0.0,-4.3059,-4.1932,-4.1033,-4.0686,-4.0609,-4.0609,-4.0609,-4.0636,-4.059,-4.0514,-3.9774,-3.889,-3.804,-3.711,0.0,0.0,0.0,-3.2433,-3.1576,-3.1037,0.0,0.0,0.0,0.0,0.0,0.0,0.0,0.0,-2.4615,-2.5086,0.0,0.0,0.0,0.0,0.0,0.0,0.0,0.0,0.0,0.0,0.0,0.0,0.0,0.0,0.0,0.0,-5.6503,-5.9854,-6.1529,-6.2581,-6.3711,-6.5231,-6.5387,-6.5348,-6.527,-6.4452,-6.3634,-6.2815,-6.2737,-6.2426,-6.1646,0.0,0.0,0.0,0.0,-6.1554,-6.1489,-6.149,-6.1453,-6.1376,-6.1381,-6.1275,-6.1148,-6.1089,-6.0915,-6.0657,-5.9804,-5.9412,-5.9258,-5.8362,-5.7555,-5.6846,-5.6956,-5.6511,-5.573,-5.5554,-5.5427,-5.5403,-5.5403,0.0,0.0,-5.3072,-5.227,-5.1429,-5.055,-5.0283,-5.0283,-5.0283,-4.9098,-4.7788,-4.7788,-4.6577,-4.5288,-4.5288,-4.5288,-4.5288,-4.5288,-4.5288,-4.5288,-4.5288,-4.4666,-4.3854,-4.2947,-4.2209,-4.1476,-4.06,-4.0484,-4.0484,-4.0484,-4.0477,-4.0462,-4.0389,0.0,0.0,-3.7945,-3.6987,-3.5768,-3.4196,-3.3269,-3.245,-3.1649,-3.1651,-3.1651,-3.1649,-3.0157,-2.9404,-2.9423,-2.9423,-2.9423,-2.9385,-2.8587,-2.865,0.0,0.0,0.0,0.0,0.0,0.0,0.0,0.0,0.0,0.0,0.0,0.0,0.0,0.0,0.0,-5.4316,-5.8295,-6.1451,-6.2503,-6.3945,-6.5036,-6.5348,-6.5387,-6.5114,-6.4413,-6.3595,-6.2776,-6.1919,-6.1841,-6.1763,-6.1607,-6.1607,-6.1607,-6.1607,-6.1607,-6.1583,-6.1495,-6.1396,-6.1296,-6.126,0.0,0.0,-6.0943,-6.0828,-6.0369,-5.9585,-5.9294,-5.8807,-5.8132,-5.729,-5.6448,-5.5733,-5.5857,-5.5775,-5.5543,-5.5437,-5.5428,-5.5403,-5.5403,-5.483,-5.3951,-5.3072,-5.227,-5.1429,-5.055,-5.0283,0.0,-5.0283,-4.9098,-4.7788,-4.7788,-4.6577,-4.5288,-4.5288,-4.5288,-4.5288,-4.5288,-4.5288,-4.5288,-4.5288,-4.5163,-4.4551,-4.3061,-4.2097,-4.1284,-4.048,-4.0327,-4.0327,-4.0327,-4.0336,-4.0327,-4.0309,-3.8912,-3.7917,-3.7738,-3.6323,-3.5062,-3.4075,-3.3188,-3.2638,-3.2477,-3.247,-3.247,-3.2477,-3.2134,-3.1988,-3.1988,-3.1988,-3.1988,-3.1957,-3.1172,-3.0912,0.0,0.0,0.0,0.0,0.0,0.0,0.0,0.0,0.0,0.0,0.0,-4.7273,-4.9498,0.0,-5.5567,-5.6892,-6.0321,-6.301,-6.3439,-6.4608,-6.5543,-6.6011,-6.566,-6.5075,-6.4179,-6.3361,-6.2542,-6.1685,-6.1607,-6.1602,-6.1549,-6.1539,-6.1523,-6.1507,-6.1495,-6.1453,-6.1342,-6.126,-6.1139,-6.1041,-6.0933,-6.0877,-6.0789,-6.0695,-6.0137,-5.923,-5.8729,-5.8039,-5.716,-5.6358,-5.5747,-5.5403,-5.5477,-5.549,-5.5453,-5.5428,-5.539,-5.5326,-5.4906,-5.418,-5.3301,-5.2461,-5.162,-5.0856,-5.0436,-5.0283,-5.0283,-5.0283,-4.9098,-4.7788,-4.7788,-4.6577,-4.5288,-4.5288,-4.5288,-4.5288,-4.5288,-4.5288,-4.5288,-4.5288,-4.5288,-4.4781,-4.31,-4.245,-4.1724,-4.0492,-4.0301,-4.0301,-4.0301,-4.0301,-4.0301,-4.0301,-3.9126,-3.8171,-3.775,-3.6146,-3.4846,-3.4052,-3.3968,-3.3769,-3.3356,-3.3356,-3.3356,-3.3356,-3.2928,-3.2699,-3.2699,-3.3119,-3.3356,-3.3356,-3.3349,-3.3156,0.0,0.0,0.0,0.0,0.0,0.0,0.0,0.0,-4.3751,-4.6235,-4.8819,-5.1185,-5.2923,-5.5813,-5.8256,-5.9113,-6.1997,-6.4062,-6.3906,-6.4764,-6.5621,-6.6127,-6.5582,-6.4803,-6.3945,-6.3283,-6.2542,-6.1685,-6.1607,-6.1554,-6.1484,-6.1484,-6.1447,-6.1369,-6.1327,-6.126,-6.1131,-6.107,-6.0962,-6.0856,-6.0769,-6.0685,-6.0635,-6.0572,-5.9983,-5.8897,-5.7875,-5.7008,-5.632,-5.567,-5.5403,-5.5403,-5.5403,-5.5403,-5.5403,-5.5403,-5.5403,-5.5288,-5.4409,-5.3531,-5.2652,-5.1849,-5.1009,-5.0283,-5.0283,-5.0283,-5.0283,-5.0283,-4.9098,-4.7788,-4.7788,-4.6577,-4.5288,-4.5288,-4.5288,-4.5288,-4.5288,-4.5288,-4.5288,-4.5288,-4.5288,-4.4781,-4.31,-4.2794,-4.2221,-4.053,-4.0301,-4.0301,-4.0301,-4.0301,-4.0301,-4.0301,-3.9508,-3.8591,-3.7559,-3.6222,-3.5114,-3.4273,-3.4846,-3.4923,-3.4273,-3.4235,-3.4235,-3.4235,-3.354,-3.3196,-3.3196,-3.3891,-3.4235,-3.4235,-3.4885,-3.487,-4.2973,-4.298,-4.3605,-4.3751,-4.4376,-4.521,0.0,0.0,-4.8044,-5.0074,-5.1991,-5.3846,-5.5638,-5.7541,-5.9152,-6.001,-6.2387,-6.3867,-6.3127,-6.4413,-6.5153,-6.4452,-6.4296,-6.3945,-6.3127,-6.2932,-6.2542,-6.1685,-6.1607,-6.1588,-6.149,-6.1396,-6.1289,-6.1205,-6.1122,-6.1022,-6.0923,-6.0806,-6.0719,-6.0623,-6.0493,-6.0425,-6.0412,-6.045,-5.9557,-5.7976,-5.6358,-5.5632,-5.5517,-5.5441,-5.5403,-5.5403,-5.5403,-5.5403,-5.5403,-5.5403,-5.5403,-5.5288,-5.4409,-5.3531,-5.2652,-5.1849,-5.1009,-5.0283,-5.0283,-5.0283,-5.0283,-5.0283,-4.9098,-4.7788,-4.7788,-4.6577,-4.5288,-4.5288,-4.5288,-4.5288,-4.5288,-4.5288,-4.5288,-4.5288,-4.5288,-4.4781,-4.31,-4.2794,-4.2221,-4.053,-4.0301,-4.0301,-4.0301,-4.0301,-4.0301,-4.0301,-3.9508,-3.8362,-3.6787,-3.6443,-3.5984,-3.5114,-3.5152,-3.5152,-3.5076,-3.5076,-3.5076,-3.5076,-3.4961,-3.4915,-3.4915,-3.5037,-3.5076,-3.5076,-3.5152,-3.5168,-4.4962,-4.5951,-4.7395,0.0,-4.8558,-4.9711,-5.0106,-5.0804,-5.191,-5.374,-5.5525,-5.7172,-5.8437,-5.9693,-6.0633,0.0,-6.2387,-6.3283,-6.2932,-6.3517,-6.3828,-6.3439,-6.2932,-6.2698,-6.2893,-6.2893,-6.2538,-6.1627,-6.1534,-6.1484,-6.1401,-6.126,-6.1152,-6.1012,-6.0913,-6.0856,-6.0777,-6.0683,-6.0623,-6.052,-6.0464,-6.0422,-6.0422,-6.0422,-5.9491,-5.781,-5.6129,-5.5403,-5.5403,-5.5403,-5.5403,-5.5403,-5.5403,-5.5403,-5.5403,-5.5403,-5.5097,-5.4524,-5.3645,-5.2805,-5.1964,-5.1123,-5.0588,-5.0283,-5.0283,-5.0283,-5.0283,-5.0283,-4.9098,-4.7788,-4.7788,-4.6577,-4.5288,-4.5288,-4.5288,-4.5288,-4.5288,-4.5288,-4.5288,-4.5288,-4.4895,-4.4169,-4.2985,-4.2374,-4.1648,-4.0492,-4.0301,-4.0301,-4.0301,-4.0301,-4.0301,-4.0301,-3.9508,-3.8706,-3.8009,-3.7054,-3.6328,-3.5984,-3.5488,-3.519,-3.519,-3.519,-3.519,-3.519,-3.519,-3.519,-3.519,-3.519,-3.545,-3.5946,-3.5946,-3.623,-4.6267,-4.8006,0.0,-5.0005,-5.1386,-5.2819,-5.3079,-5.3629,-5.4508,-5.6008,-5.7541,-5.8822,-5.9436,-6.0248,-6.0905,-6.1149,-6.1933,-6.2523,-6.2494,-6.2732,-6.2815,-6.2581,-6.1763,-6.1568,-6.2416,-6.2304,-6.1982,-6.1523,-6.125,-6.1136,-6.1236,-6.1089,-6.0941,-6.0823,-6.0746,-6.066,-6.061,-6.0559,-6.0506,-6.0453,-6.0398,-6.0422,-6.037,-5.9925,-5.9033,-5.781,-5.6129,-5.5403,-5.5403,-5.5403,-5.5403,-5.5403,-5.5403,-5.5403,-5.5403,-5.5403,-5.4868,-5.3989,-5.311,-5.227,-5.1455,-5.0588,-5.0283,-5.0283,-5.0283,-5.0283,-5.0283,-5.0283,-4.9098,-4.7788,-4.7788,-4.6577,-4.5288,-4.5288,-4.5288,-4.5288,-4.5288,-4.5288,-4.5288,-4.5288,-4.459,-4.3739,-4.2947,-4.2068,-4.1227,-4.0416,-4.0301,-4.0301,-4.0301,-4.0301,-4.0301,-4.0301,-3.9728,-3.9279,-3.9011,-3.7894,-3.6978,-3.6519,-3.5908,-3.545,-3.5229,-3.519,-3.519,-3.519,-3.519,-3.519,-3.519,-3.545,-3.587,-3.6519,-3.671,-3.7139,-4.7048,0.0,-5.0972,-5.1037,-5.238,-5.3902,-5.4824,-5.5003,-5.523,-5.6186,-5.7053,-5.767,-5.7675,-5.8344,-5.9154,-6.0002,-6.0927,-6.154,-6.1528,-6.2333,-6.2581,-6.1724,-6.0867,-6.0663,-6.1456,-6.0853,-6.0692,-6.1451,-6.0612,-6.0344,-6.1059,-6.085,-6.0695,-6.0597,-6.0466,-6.0422,-6.0422,-6.0422,-6.0422,-6.0384,-6.0422,-6.0422,-6.0346,-5.8727,-5.7963,-5.781,-5.6129,-5.5403,-5.5403,-5.5403,-5.5403,-5.5403,-5.5403,-5.5403,-5.5403,-5.5403,-5.4868,-5.3989,-5.311,-5.227,-5.1455,-5.0588,-5.0283,-5.0283,-5.0283,-5.0283,-5.0283,-5.0283,-4.9098,-4.7788,-4.7788,-4.6577,-4.5288,-4.5288,-4.5288,-4.5288,-4.5288,-4.5288,-4.5288,-4.5288,-4.459,-4.3739,-4.2947,-4.2068,-4.1227,-4.0416,-4.0301,-4.0301,-4.0301,-4.0301,-4.0301,-4.0301,-4.0263,-3.9919,-3.9088,-3.8935,-3.8247,-3.6596,-3.6481,-3.6061,-3.5229,-3.519,-3.519,-3.519,-3.519,-3.519,-3.519,-3.6061,-3.6481,-3.6519,-3.7292,-3.7674,-4.9185,0.0,-5.293,-5.3552,-5.4616,-5.5632,-5.5978,-5.6008,-5.6076,-5.6324,-5.652,-5.6673,-5.6621,-5.7218,-5.8041,-5.8971,-5.9897,-6.0741,-6.1349,-6.1762,-6.1919,-6.1646,-6.0828,0.0,-6.0611,-6.0383,0.0,-6.131,-6.0973,-6.0797,-6.0892,-6.0731,-6.061,-6.0558,-6.0464,-6.0422,-6.0422,-6.0422,-6.0422,-6.0422,-6.0422,-6.0422,-6.0384,-5.9224,-5.8421,-5.7848,-5.6702,-5.5899,-5.5403,-5.5403,-5.5403,-5.5403,-5.5403,-5.5403,-5.5403,-5.5403,-5.4486,-5.3187,-5.2881,-5.1888,-5.0703,-5.0397,-5.0283,-5.0283,-5.0283,-5.0283,-5.0283,-5.0283,-4.9098,-4.7788,-4.7788,-4.6577,-4.5288,-4.5288,-4.5288,-4.5288,-4.5288,-4.5288,-4.5288,-4.5288,-4.4169,-4.3138,-4.2832,-4.1648,-4.0616,-4.0339,-4.0301,-4.0301,-4.0301,-4.0301,-4.0301,-4.0301,-4.0301,-4.0186,-3.9881,-3.9317,-3.8514,-3.7368,-3.6787,-3.6099,-3.5229,-3.519,-3.519,-3.519,-3.519,-3.5488,-3.6061,-3.6366,-3.7054,-3.8171,-3.8438,-3.8858,-5.059,-5.2591,-5.4329,-5.4947,-5.5797,-5.641,-5.607,-5.6017,-5.5804,-5.5125,-5.486,-5.4742,-5.4684,-5.5294,-5.6227,-5.7481,-5.8746,-5.9872,-6.0845,-6.1306,-6.1578,-6.1528,-6.0778,-6.0316,0.0,0.0,0.0,-6.0716,-6.0596,-6.0552,-6.0704,-6.061,-6.0531,-6.0491,-6.0398,-6.0422,-6.0422,-6.0422,-6.0422,-6.0422,-6.0422,-6.0422,-6.037,-5.9491,-5.8651,-5.7848,-5.6969,-5.6129,-5.5403,-5.5403,-5.5403,-5.5403,-5.5403,-5.5403,-5.5403,-5.5403,-5.4295,-5.2805,-5.2805,-5.1697,-5.0283,-5.0283,-5.0283,-5.0283,-5.0283,-5.0283,-5.0283,-5.0283,-4.9098,-4.7788,-4.7788,-4.6577,-4.5288,-4.5288,-4.5288,-4.5288,-4.5288,-4.5288,-4.5288,-4.5288,-4.4169,-4.3138,-4.2832,-4.1418,-4.0301,-4.0301,-4.0301,-4.0301,-4.0301,-4.0301,-4.0301,-4.0301,-4.0301,-4.0301,-4.0301,-3.9804,-3.8973,-3.775,-3.7215,-3.6405,-3.5267,-3.519,-3.519,-3.519,-3.5488,-3.5946,-3.6481,-3.7092,-3.7933,-3.9011,-3.9317,-3.9766,-5.1449,-5.3329,-5.5264,-5.5303,-5.5939,-5.625,-5.5312,-5.5045,-5.4497,-5.2621,-5.2126,-5.1942,0.0,0.0,-5.3705,-5.5628,-5.7474,-5.899,-6.0022,-6.0954,-6.1466,0.0,0.0,0.0,0.0,0.0,0.0,-5.9784,0.0,-5.9775,-6.0546,-6.0491,-6.0422,-6.0422,-6.0422,-6.0422,-6.0422,-6.0422,-6.0422,-6.0422,-6.0422,-6.0422,-6.037,-5.9529,-5.8689,-5.7848,-5.7008,-5.6167,-5.5403,-5.5403,-5.5403,-5.5403,-5.5403,-5.5403,-5.5403,-5.5403,-5.4295,-5.2805,-5.2805,-5.1697,-5.0283,-5.0283,-5.0283,-5.0283,-5.0283,-5.0283,-5.0283,-5.0245,-4.906,-4.7788,-4.775,-4.6538,-4.5288,-4.5288,-4.5288,-4.5288,-4.5288,-4.5288,-4.5288,-4.5288,-4.459,-4.3739,-4.287,-4.1418,-4.0339,-4.0301,-4.0301,-4.0301,-4.0301,-4.0301,-4.0301,-4.0301,-4.0301,-4.0301,-4.0301,-4.0301,-3.9546,-3.7789,-3.7712,-3.6986,-3.5343,-3.5267,-3.5305,-3.5343,-3.6137,-3.6596,-3.6634,-3.8209,-3.9011,-3.9088,-3.9919,-4.0301,-5.478,-5.6098,-5.713,-5.7145,-5.6826,-5.6266,-5.5293,-5.458,-5.3351,-5.0822,-4.9707,-4.8955,0.0,0.0,0.0,-5.3597,-5.6164,0.0,-5.9837,-6.0805,0.0,-6.1275,0.0,-5.9869,-6.0007,-5.9693,0.0,0.0,-5.9969,-6.0367,-6.0506,-6.0464,-6.0422,-6.0422,-6.0422,-6.0422,-6.0422,-6.0422,-6.0422,-6.0422,-6.0422,-6.0422,-6.0384,-6.0179,-5.9262,-5.7886,-5.7657,-5.674,-5.5403,-5.5403,-5.5403,-5.5403,-5.5403,-5.5403,-5.5403,-5.5403,-5.4295,-5.2805,-5.2805,-5.1697,-5.0283,-5.0283,-5.0283,-5.0283,-5.0283,-5.0283,-5.0168,-4.9557,-4.864,-4.7635,-4.6986,-4.608,-4.5288,-4.5288,-4.5288,-4.5288,-4.5288,-4.5288,-4.5288,-4.5288,-4.459,-4.3548,-4.2068,-4.1495,-4.0998,-4.0377,-4.0301,-4.0301,-4.0301,-4.0301,-4.0301,-4.0301,-4.0301,-4.0301,-4.0301,-4.0301,-3.9546,-3.7789,-3.7712,-3.7254,-3.6214,-3.6175,-3.6443,-3.7063,-3.7292,-3.7712,-3.8362,-3.8782,-3.9317,-3.9957,-4.0186,-4.0301,-5.6221,-5.7138,-5.7812,-5.7782,-5.6872,-5.5595,-5.4207,-5.2885,-5.1166,-4.8461,-4.6797,0.0,-4.5715,-4.678,0.0,0.0,0.0,0.0,-5.863,-5.9879,-6.0738,0.0,-6.0538,0.0,-6.008,-5.9977,-5.9906,0.0,-6.0238,-6.0518,-6.0477,-6.0436,-6.0422,-6.0422,-6.0422,-6.0422,-6.0422,-6.0422,-6.0422,-6.0422,-6.0422,-6.0179,-5.9835,-5.9835,-5.8918,-5.7313,0.0,-5.6587,-5.5403,-5.5403,-5.5403,-5.5403,-5.5403,-5.5403,-5.5403,-5.5403,-5.4295,-5.2805,-5.2805,-5.1697,-5.0283,-5.0283,-5.0283,-5.0283,-5.0283,-5.0283,-5.013,-4.9328,-4.8487,-4.7597,-4.6729,-4.5889,-4.5288,-4.5288,-4.5288,-4.5288,-4.5288,-4.5288,-4.5288,-4.5288,-4.459,-4.3701,-4.2756,-4.1991,-4.1342,-4.0883,-4.054,-4.0301,-4.0301,-4.0301,-4.0301,-4.0301,-4.0301,-4.0301,-4.0301,-4.0301,-3.9546,-3.7789,-3.8056,-3.775,-3.6557,-3.6825,-3.7254,-3.7674,-3.8094,-3.8514,-3.9011,-3.9393,-3.9804,-4.0301,-4.0301,-4.0301,-5.698,-5.7497,-5.7929,-5.7818,-5.6471,-5.4636,-5.253,-5.063,-4.853,-4.5742,0.0,-4.2657,-4.3614,-4.4456,-4.5958,-4.8778,0.0,-5.5033,-5.679,-5.8604,-5.9998,-6.0629,-6.0739,-6.071,-6.066,-6.0597,-6.0533,-6.048,-6.0412,-6.0422,-6.0422,-6.0422,-6.0422,-6.0422,-6.0422,-6.0422,-6.0422,-6.0422,-6.0422,-6.0422,-6.0422,-5.9988,-5.9262,-5.9262,-5.8345,-5.6778,-5.6778,-5.6243,-5.5403,-5.5403,-5.5403,-5.5403,-5.5403,-5.5403,-5.5403,-5.5403,-5.4295,-5.2805,-5.2805,-5.1697,-5.0283,-5.0283,-5.0283,-5.0283,-5.0283,-5.0245,-4.9977,-4.9175,-4.8296,-4.7406,-4.6577,-4.5812,-4.5288,-4.5288,-4.5288,-4.5288,-4.5288,-4.5288,-4.5288,-4.5288,-4.4704,-4.4121,-4.4006,-4.2794,-4.1762,-4.1533,-4.0922,-4.0416,-4.0301,-4.0301,-4.0301,-4.0301,-4.0301,-4.0301,-4.0301,-4.0301,-3.9623,-3.798,-3.8591,-3.8362,-3.6901,-3.7483,-3.7941,-3.8056,-3.8782,-3.9164,-3.9164,-3.9919,-4.0301,-4.0301,-4.0301,-4.0301,-5.9532,-5.9297,-5.8705,-5.7964,-5.6441,-5.428,-5.099,-4.8776,0.0,0.0,-4.0952,-3.9936,-4.0823,-4.1805,-4.3535,-4.6838,0.0,0.0,0.0,0.0,-5.9496,0.0,0.0,0.0,0.0,0.0,0.0,0.0,0.0,-6.0422,-6.0422,-6.0422,-6.0422,-6.0422,-6.0422,-6.0422,-6.0422,-6.0422,-6.0422,-6.0422,-6.0422,-6.0332,-6.0179,-6.0179,-5.9262,-5.7657,-5.7657,0.0,-5.5403,-5.5403,-5.5403,-5.5403,-5.5403,-5.5403,-5.5403,-5.5403,-5.4295,-5.2805,-5.2805,-5.1697,-5.0283,-5.0283,-5.0283,-5.0283,-5.0283,-4.9824,-4.9137,-4.8258,-4.7417,-4.6538,-4.5736,-4.5392,-4.5288,-4.5288,-4.5288,-4.5288,-4.5288,-4.5288,-4.5288,-4.5288,-4.5163,-4.4857,-4.4121,-4.3739,-4.31,-4.1724,-4.138,-4.1036,-4.0377,-4.0301,-4.0301,-4.0301,-4.0301,-4.0301,-4.0301,-4.0301,-3.9843,-3.8858,-3.8935,-3.8858,-3.8591,-3.8706,-3.9126,-3.9843,-3.9995,-4.0072,-4.0072,-4.0225,-4.0301,-4.0301,-4.0301,-4.0301,-5.9602,-5.9402,-5.888,-5.797,-5.5692,-5.2886,-4.9789,0.0,0.0,0.0,-3.9252,-3.795,-3.8844,-3.9413,0.0,0.0,0.0,0.0,0.0,0.0,0.0,0.0,0.0,0.0,0.0,0.0,0.0,0.0,0.0,-6.0422,-6.0422,-6.0422,-6.0422,-6.0422,-6.0422,-6.0422,-6.0422,-6.0422,-6.0422,-6.0422,-6.0422,-6.0141,-5.972,-5.972,-5.8803,-5.7199,-5.7199,-5.6511,-5.5403,-5.5403,-5.5403,-5.5403,-5.5403,-5.5403,-5.5365,-5.4906,-5.3913,-5.2728,-5.2308,-5.1353,-5.0283,-5.0283,-5.0283,-5.0283,-5.0283,-5.0015,-4.9442,-4.817,-4.7483,-4.6882,-4.5621,-4.5288,-4.5288,-4.5288,-4.5288,-4.5288,-4.5288,-4.5288,-4.5288,-4.5288,-4.5288,-4.5163,-4.4743,-4.4312,-4.3739,-4.2908,-4.2068,-4.1342,-4.096,-4.0578,-4.0301,-4.0301,-4.0301,-4.0301,-4.0301,-4.0301,-3.9919,-3.9049,-3.9431,-3.947,-3.9011,-3.9431,-3.9881,-4.0301,-4.0301,-4.0301,-4.0301,-4.0301,-4.0301,-4.0301,-4.0301,-4.0301,-5.9084,-5.9066,-5.8726,-5.7449,-5.4713,-5.1541,-4.8505,-4.5218,0.0,0.0,-3.7781,-3.6269,-3.7334,0.0,-3.8238,0.0,0.0,0.0,0.0,0.0,0.0,0.0,0.0,0.0,0.0,0.0,0.0,0.0,0.0,0.0,-6.0422,-6.0422,-6.0422,-6.0422,-6.0422,-6.0422,-6.0422,-6.0422,-6.0422,-6.0422,-6.0422,-6.0026,-5.9376,-5.9185,-5.8307,-5.6855,-5.6664,0.0,-5.5403,-5.5403,-5.5403,-5.5403,-5.5403,-5.5403,-5.5288,-5.4409,-5.3531,-5.269,-5.1888,-5.1047,-5.0283,-5.0283,-5.0283,-5.0283,-5.0283,-5.0168,-4.9786,-4.8449,-4.7788,-4.7226,-4.5889,-4.543,-4.5288,-4.5288,-4.5288,-4.5288,-4.5288,-4.5288,-4.5288,-4.5288,-4.5288,-4.5288,-4.5288,-4.4743,-4.4236,-4.4045,-4.287,-4.1915,-4.1533,-4.096,-4.0492,-4.0301,-4.0301,-4.0301,-4.0301,-4.0301,-3.9995,-3.9317,-3.9919,-3.9995,-3.9317,-3.9919,-4.0301,-4.0301,-4.0301,-4.0301,-4.0301,-4.0301,-4.0301,-4.0301,-4.0301,-4.0301,-5.9114,-5.9003,-5.8329,-5.5769,-5.3617,-5.1037,-4.6885,0.0,0.0,-3.8629,-3.6066,-3.4732,-3.6337,-3.5963,-3.6544,0.0,0.0,-4.4878,0.0,0.0,0.0,0.0,0.0,0.0,0.0,0.0,0.0,0.0,0.0,0.0,-6.0422,-6.0422,-6.0422,-6.0422,-6.0422,-6.0422,-6.0422,-6.0422,-6.0422,-6.0422,-6.0422,-6.0384,-6.0255,-5.9453,-5.8612,-5.7734,-5.6931,0.0,0.0,-5.5403,-5.5403,-5.5403,-5.5403,-5.5403,-5.5288,-5.4409,-5.3531,-5.269,-5.1888,-5.1047,-5.0283,-5.0283,-5.0283,-5.0283,-5.0283,-4.9786,-4.9186,-4.9033,-4.7837,-4.6577,-4.6424,-4.5851,-4.5288,-4.5288,-4.5288,-4.5288,-4.5288,-4.5288,-4.5288,-4.5288,-4.5288,-4.5288,-4.5288,-4.5239,-4.4895,-4.4121,-4.3854,-4.3204,-4.1686,-4.1418,-4.1113,-4.0377,-4.0301,-4.0301,-4.0301,-4.0301,-4.0263,-4.0186,-4.0263,-4.0263,-4.0186,-4.0263,-4.0301,-4.0301,-4.0301,-4.0301,-4.0301,-4.0301,-4.0301,-4.0301,-4.0301,-4.0301,-5.7442,-5.7741,-5.7558,-5.5384,-5.3042,-5.0323,-4.6552,0.0,-4.0356,-3.8323,-3.6219,-3.4923,-3.5602,-3.5411,-3.5993,-3.8362,-4.0005,-4.2106,-4.5316,0.0,0.0,0.0,0.0,0.0,0.0,0.0,0.0,0.0,0.0,0.0,-6.0422,-6.0422,-6.0422,-6.0422,-6.0422,-6.0422,-6.0422,-6.0422,-6.0422,-6.0422,-6.0422,-6.0141,-5.9606,-5.9262,-5.8383,-5.7084,-5.6753,0.0,0.0,-5.5403,-5.5403,-5.5403,-5.5403,-5.5403,-5.525,-5.3836,-5.311,-5.2614,-5.1276,-5.0588,-5.0283,-5.0283,-5.0283,-5.0283,-5.0283,-5.0092,-4.9595,-4.8602,-4.7837,-4.7035,-4.6042,-4.5545,-4.5288,-4.5288,-4.5288,-4.5288,-4.5288,-4.5288,-4.5288,-4.5288,-4.5288,-4.5288,-4.5288,-4.5288,-4.5163,-4.4819,-4.435,-4.3586,-4.2412,-4.18,-4.1189,-4.0377,-4.0301,-4.0301,-4.0301,-4.0301,-4.0301,-4.0301,-4.0301,-4.0301,-4.0301,-4.0301,-4.0301,-4.0301,-4.0301,-4.0301,-4.0301,-4.0301,-4.0301,-4.0301,-4.0301,-4.0301,-5.5153,-5.5864,-5.6178,-5.4134,-5.1807,-4.9187,0.0,-4.2552,-3.9618,-3.8207,-3.6249,-3.4923,-3.5152,-3.4999,-3.5305,-3.6719,-3.7903,-3.9737,-4.2985,-4.5316,0.0,0.0,0.0,0.0,0.0,0.0,0.0,0.0,0.0,0.0,-5.9644,-5.9644,-5.9873,-6.037,-6.0422,-6.0422,-6.0422,-6.0422,-6.0422,-6.0422,-6.0141,-5.9682,-5.9057,-5.8612,-5.7734,-5.6587,-5.6358,0.0,0.0,-5.5403,-5.5403,-5.5403,-5.5403,-5.5403,-5.5212,-5.3454,-5.2805,-5.2537,-5.0894,-5.0283,-5.0283,-5.0283,-5.0283,-5.0283,-5.0283,-5.013,-4.971,-4.8525,-4.7788,-4.7111,-4.566,-4.5288,-4.5288,-4.5288,-4.5288,-4.5288,-4.5288,-4.5288,-4.5288,-4.5288,-4.5288,-4.5288,-4.5288,-4.5288,-4.5288,-4.5288,-4.4781,-4.4017,-4.2947,-4.2259,-4.1495,-4.0416,-4.0301,-4.0301,-4.0301,-4.0301,-4.0301,-4.0301,-4.0301,-4.0301,-4.0301,-4.0301,-4.0416,-4.0654,-4.0654,-4.0769,-4.1027,-4.1027,-4.1027,-4.1027,-4.1027,-4.1027,-5.2356,-5.3514,-5.4086,-5.1503,-4.9477,-4.7471,0.0,-4.1605,-3.8898,-3.8054,-3.5836,-3.4273,-3.5037,-3.4541,-3.4273,-3.5076,-3.6642,-3.8018,-3.8935,-4.1944,0.0,0.0,0.0,0.0,0.0,0.0,0.0,0.0,0.0,0.0,-5.7925,-5.7925,-5.8689,-6.0346,-6.0422,-6.0422,-6.0422,-6.0422,-6.0422,-6.0384,-5.9529,-5.9095,-5.9019,-5.739,-5.6639,-5.6549,0.0,0.0,0.0,-5.5403,-5.5403,-5.5403,-5.5403,-5.5403,-5.5212,-5.3454,-5.2805,-5.2537,-5.0894,-5.0283,-5.0283,-5.0283,-5.0283,-5.0283,-5.0283,-4.9748,-4.911,-4.911,-4.7837,-4.6347,-4.5507,-4.5288,-4.5288,-4.5288,-4.5288,-4.5288,-4.5288,-4.5288,-4.5288,-4.5288,-4.5288,-4.5288,-4.5288,-4.5288,-4.5288,-4.5288,-4.5288,-4.4666,-4.3023,-4.2794,-4.2144,-4.0492,-4.0301,-4.0301,-4.0301,-4.0301,-4.0301,-4.0301,-4.0301,-4.0301,-4.0301,-4.0301,-4.0692,-4.1457,-4.1495,-4.1915,-4.2756,-4.2756,-4.2756,-4.2756,-4.2756,-4.2756,-5.0325,-5.123,-5.155,-4.9521,-4.8141,-4.6471,-4.3316,-4.0798,-3.8706,-3.7317,-3.5828,-3.4885,-3.5152,-3.4999,-3.5114,-3.5946,-3.6519,0.0,0.0,0.0,0.0,0.0,0.0,0.0,0.0,0.0,0.0,0.0,0.0,0.0,-5.7886,-5.7886,-5.8154,-5.8651,-5.8689,-5.8689,-5.8689,-5.8689,-5.8689,-5.8689,-5.8421,-5.7963,-5.7351,-5.6816,-5.6282,0.0,0.0,0.0,0.0,-5.5403,-5.5403,-5.5403,-5.5403,-5.5059,-5.4371,-5.3225,-5.2461,-5.1811,-5.0703,-5.0283,-5.0283,-5.0283,-5.0283,-5.0283,-5.0283,-4.9748,-4.8842,-4.7646,-4.6538,-4.5621,-4.5364,-4.5288,-4.5288,-4.5288,-4.5288,-4.5288,-4.5288,-4.5288,-4.5288,-4.5288,-4.5288,-4.5288,-4.5288,-4.5288,-4.5288,-4.5288,-4.5288,-4.4895,-4.3777,-4.3624,-4.2985,-4.1304,-4.1113,-4.0883,-4.0339,-4.0301,-4.0301,-4.0301,-4.0807,-4.1113,-4.1113,-4.1686,-4.2144,-4.2374,-4.2374,-4.2526,-4.2794,-4.2794,-4.2794,-4.2794,-4.2794,-4.2794,-4.7124,-4.821,-4.8446,-4.6686,-4.5612,-4.4231,-4.1508,-3.9461,-3.7916,-3.6834,-3.589,-3.5253,-3.5253,-3.4969,-3.4923,-3.5458,-3.5793,0.0,0.0,0.0,0.0,0.0,0.0,0.0,0.0,0.0,0.0,0.0,0.0,0.0,-5.6969,-5.6969,-5.6969,-5.6969,-5.7581,-5.7886,-5.7886,-5.7886,-5.7886,-5.7886,-5.7581,-5.7122,-5.6587,-5.6282,-5.5861,0.0,0.0,0.0,0.0,-5.5403,-5.5403,-5.5403,-5.5403,-5.4868,-5.3989,-5.311,-5.2308,-5.1467,-5.0588,-5.0283,-5.0283,-5.0283,-5.0283,-5.0245,-4.9939,-4.9251,-4.8258,-4.6538,-4.5698,-4.5288,-4.5288,-4.5288,-4.5288,-4.5288,-4.5288,-4.5288,-4.5288,-4.5288,-4.5288,-4.5288,-4.5288,-4.5288,-4.5288,-4.5288,-4.5288,-4.5288,-4.5288,-4.4972,-4.4121,-4.4006,-4.3472,-4.2144,-4.1991,-4.18,-4.1304,-4.0645,-4.0416,-4.0731,-4.1227,-4.1648,-4.1991,-4.2526,-4.2947,-4.3252,-4.3252,-4.3405,-4.3749,-4.3749,-4.3749,-4.3749,-4.3749,-4.3749,0.0,-4.4624,-4.4979,-4.3393,-4.2354,-4.1277,-3.9585,-3.7901,0.0,-3.6603,-3.5921,-3.5293,-3.5293,-3.4649,-3.4128,-3.4167,-3.4846,0.0,0.0,0.0,0.0,0.0,0.0,0.0,0.0,0.0,0.0,0.0,0.0,0.0,-5.5403,-5.5403,-5.5403,-5.5403,-5.6893,-5.7734,-5.7734,-5.7734,-5.7734,-5.7695,-5.6893,-5.6511,-5.6473,-5.5747,-5.5403,0.0,0.0,0.0,0.0,-5.5403,-5.5403,-5.5403,-5.5326,-5.4791,-5.3913,-5.3034,-5.2193,-5.1391,-5.0588,-5.0283,-5.0283,-5.0283,-5.0283,-5.0168,-4.9328,-4.8487,-4.7444,-4.5851,-4.5326,-4.5288,-4.5288,-4.5288,-4.5288,-4.5288,-4.5288,-4.5288,-4.5288,-4.5288,-4.5288,-4.5288,-4.5288,-4.5288,-4.5288,-4.5288,-4.5288,-4.5288,-4.5288,-4.501,-4.4197,-4.4083,-4.3777,-4.2985,-4.2908,-4.287,-4.2794,-4.138,-4.0807,-4.1533,-4.1648,-4.203,-4.2832,-4.2947,-4.3329,-4.4083,-4.4083,-4.4475,-4.5288,-4.5288,-4.5288,-4.5288,-4.5288,-4.5288,-3.9892,0.0,-4.2585,-4.22,-4.1431,-4.0354,0.0,-3.7478,-3.6526,-3.5828,-3.55,-3.5293,-3.5293,-3.51,-3.5152,-3.5793,-3.6604,-3.7712,0.0,0.0,0.0,0.0,0.0,0.0,0.0,0.0,0.0,0.0,0.0,-5.5403,-5.5403,-5.5403,-5.5403,-5.5403,-5.5785,-5.5976,-5.5976,-5.5976,-5.5976,-5.5976,-5.5785,-5.567,-5.567,-5.5479,-5.5403,0.0,0.0,0.0,-5.5403,-5.5403,-5.5403,-5.5326,-5.4677,-5.3874,-5.2996,-5.2193,-5.1353,-5.0588,-5.0359,-5.0283,-5.0283,-5.0283,-5.0283,-5.0168,-4.9328,-4.8487,-4.7559,-4.6538,-4.5774,-4.5288,-4.5288,-4.5288,-4.5288,-4.5288,-4.5288,-4.5288,-4.5288,-4.5288,-4.5288,-4.5288,-4.5288,-4.5288,-4.5288,-4.5288,-4.5288,-4.5288,-4.5288,-4.5239,-4.501,-4.4972,-4.4666,-4.3815,-4.3701,-4.3472,-4.2832,-4.245,-4.2297,-4.2488,-4.3061,-4.351,-4.3701,-4.436,-4.4781,-4.4972,-4.4972,-4.5086,-4.5288,-4.5288,-4.5288,-4.5288,-4.5288,-4.5288,-3.8238,-3.9931,-4.1123,-4.0739,-4.0315,-3.9515,-3.7777,-3.6755,-3.601,-3.5549,-3.5383,-3.5346,-3.5346,-3.5293,-3.552,-3.6362,-3.7492,0.0,0.0,0.0,0.0,0.0,0.0,0.0,0.0,0.0,0.0,0.0,0.0,-5.5403,-5.5403,-5.5403,-5.5403,-5.5403,-5.5403,-5.5403,-5.5403,-5.5403,-5.5403,-5.5403,-5.5403,-5.5403,-5.5403,-5.5403,-5.5403,0.0,0.0,0.0,-5.5403,-5.5403,-5.5403,-5.5326,-5.4448,-5.3569,-5.269,-5.1888,-5.1047,-5.0283,-5.0283,-5.0283,-5.0283,-5.0283,-5.0283,-5.0206,-4.9786,-4.906,-4.8143,-4.6844,-4.6194,-4.5774,-4.5403,-4.5288,-4.5288,-4.5288,-4.5288,-4.5288,-4.5288,-4.5288,-4.5288,-4.5288,-4.5288,-4.5288,-4.5288,-4.5288,-4.5288,-4.5288,-4.5288,-4.5288,-4.5288,-4.5288,-4.5125,-4.4666,-4.459,-4.4437,-4.3978,-4.394,-4.3787,-4.3367,-4.3739,-4.4159,-4.459,-4.5048,-4.5288,-4.5288,-4.5288,-4.5288,-4.5288,-4.5288,-4.5288,-4.5288,-4.5288,-4.5288,-3.7546,-3.92,-4.0362,-3.9823,-3.9592,-3.9092,-3.7623,0.0,0.0,0.0,0.0,-3.5636,-3.5751,-3.573,0.0,0.0,0.0,0.0,0.0,0.0,0.0,0.0,0.0,0.0,0.0,0.0,0.0,0.0,0.0,-5.5403,-5.5403,-5.5403,-5.5403,-5.5403,-5.5403,-5.5403,-5.5403,-5.5403,-5.5403,-5.5403,-5.5403,-5.5403,-5.5403,-5.5403,-5.5403,-5.5403,0.0,0.0,-5.5403,-5.5403,-5.5326,-5.5097,-5.4256,-5.3378,-5.2499,-5.1697,-5.0932,-5.0283,-5.0283,-5.0283,-5.0283,-5.0283,-5.0283,-5.0283,-5.0283,-4.9824,-4.8907,-4.7188,-4.6615,-4.6309,-4.5507,-4.5288,-4.5288,-4.5288,-4.5288,-4.5288,-4.5288,-4.5288,-4.5288,-4.5288,-4.5288,-4.5288,-4.5288,-4.5288,-4.5288,-4.5288,-4.5288,-4.5288,-4.5288,-4.5288,-4.5288,-4.5288,-4.5288,-4.5288,-4.5288,-4.5288,-4.4972,-4.4236,-4.4197,-4.4551,-4.5288,-4.5288,-4.5288,-4.5288,-4.5288,-4.5288,-4.5288,-4.5288,-4.5288,-4.5288,-4.5288,-4.5288,-3.7546,-3.92,-4.0669,-4.1277,-4.0854,-4.0246,-3.9977,-3.87,0.0,0.0,0.0,0.0,0.0,-3.7455,-3.7934,0.0,0.0,0.0,0.0,0.0,0.0,0.0,0.0,0.0,0.0,0.0,0.0,0.0,0.0,-5.5403,-5.5403,-5.5403,-5.5403,-5.5403,-5.5403,-5.5403,-5.5403,-5.5403,-5.5403,-5.5403,-5.5403,-5.5403,-5.5403,-5.5403,-5.5403,-5.5403,0.0,-5.5403,-5.5403,-5.5403,-5.4982,-5.4218,-5.3339,-5.2499,-5.1697,-5.0818,-5.0397,-5.0283,-5.0283,-5.0283,-5.0283,-5.0283,-5.0283,-5.0283,-5.0283,-5.0206,-4.9748,-4.8094,-4.7073,-4.6309,-4.5507,-4.5288,-4.5288,-4.5288,-4.5288,-4.5288,-4.5288,-4.5288,-4.5288,-4.5288,-4.5288,-4.5288,-4.5288,-4.5288,-4.5288,-4.5288,-4.5288,-4.5288,-4.5288,-4.5288,-4.5288,-4.5288,-4.5288,-4.5288,-4.5288,-4.5288,-4.5239,-4.5125,-4.5086,-4.5163,-4.5288,-4.5288,-4.5288,-4.5288,-4.5288,-4.5288,-4.5288,-4.5288,-4.5288,-4.5288,-4.5288,-4.5288,-3.7546,-3.8892,-4.0169,-4.147,-4.1854,-4.1777,-4.1316,-3.9892,-3.87,0.0,0.0,0.0,0.0,0.0,0.0,0.0,0.0,0.0,0.0,0.0,0.0,0.0,0.0,0.0,0.0,0.0,0.0,0.0,0.0,0.0,-5.5403,-5.5403,-5.5403,-5.5403,-5.5403,-5.5403,-5.5403,-5.5403,-5.5403,-5.5403,-5.5403,-5.5403,-5.5403,-5.5403,-5.5403,-5.5403,0.0,-5.5403,-5.5403,-5.5403,-5.4906,-5.4027,-5.3148,-5.2308,-5.1493,-5.0627,-5.0283,-5.0283,-5.0283,-5.0283,-5.0283,-5.0283,-5.0283,-5.0283,-5.0283,-5.0283,-5.0054,-4.8831,-4.7876,-4.692,-4.5621,-4.5288,-4.5288,-4.5288,-4.5288,-4.5288,-4.5288,-4.5288,-4.5288,-4.5288,-4.5288,-4.5288,-4.5288,-4.5288,-4.5288,-4.5288,-4.5288,-4.5288,-4.5288,-4.5288,-4.5288,-4.5288,-4.5288,-4.5288,-4.5288,-4.5288,-4.5288,-4.5288,-4.5288,-4.5288,-4.5288,-4.5288,-4.5288,-4.5288,-4.5288,-4.5288,-4.5288,-4.5288,-4.5288,-4.5288,-4.5288,-4.5288,-3.7315,-3.8161,-3.9123,-4.1046,-4.2162,-4.2662,-4.22,-4.0969,-3.9931,0.0,0.0,0.0,0.0,0.0,0.0,0.0,0.0,0.0,0.0,0.0,0.0,0.0,0.0,0.0,0.0,0.0,0.0,0.0,0.0,0.0,-5.5097,-5.5097,-5.5021,-5.4791,-5.4982,-5.5097,-5.5097,-5.5288,-5.5403,-5.5403,-5.5403,-5.5403,-5.5403,-5.5403,-5.5288,-5.5097,-5.5097,-5.4982,-5.4791,-5.4791,-5.4295,-5.3454,-5.2766,-5.2002,-5.12,-5.055,-5.0283,-5.0283,-5.0283,-5.0283,-5.0283,-5.0283,-5.0283,-5.0283,-5.0283,-5.0283,-5.013,-4.9328,-4.8602,-4.7761,-4.6271,-4.5889,-4.5812,-4.5621,-4.5583,-4.5507,-4.5326,-4.5288,-4.5288,-4.5288,-4.5288,-4.5288,-4.5288,-4.5288,-4.5288,-4.5288,-4.5288,-4.5288,-4.5288,-4.5288,-4.5288,-4.5288,-4.5288,-4.5288,-4.5288,-4.5288,-4.5288,-4.5288,-4.5288,-4.5288,-4.5288,-4.5288,-4.5288,-4.5288,-4.5288,-4.5288,-4.5288,-4.5288,-4.5288,-4.5288,-4.5288,-4.5288,-3.6577,-3.6846,-3.7469,-3.9977,-4.1239,-4.2085,-4.2854,-4.2277,-4.1854,-4.2662,0.0,0.0,0.0,0.0,0.0,0.0,0.0,0.0,0.0,0.0,0.0,0.0,0.0,0.0,0.0,0.0,0.0,0.0,0.0,0.0,-5.4256,-5.418,-5.3836,-5.2996,-5.376,-5.418,-5.418,-5.5021,-5.5403,-5.5403,-5.5403,-5.5403,-5.5403,-5.5403,-5.4982,-5.418,-5.418,-5.3722,-5.2996,-5.2996,-5.2499,-5.1773,-5.1735,-5.1162,-5.0397,-5.0321,-5.0283,-5.0283,-5.0283,-5.0283,-5.0283,-5.0283,-5.0283,-5.0283,-5.0283,-5.0283,-5.013,-4.9328,-4.9071,-4.8793,-4.7876,-4.7635,-4.7406,-4.6615,-4.6424,-4.6194,-4.5468,-4.5288,-4.5288,-4.5288,-4.5288,-4.5288,-4.5288,-4.5288,-4.5288,-4.5288,-4.5288,-4.5288,-4.5288,-4.5288,-4.5288,-4.5288,-4.5288,-4.5288,-4.5288,-4.5288,-4.5288,-4.5288,-4.5288,-4.5288,-4.5288,-4.5288,-4.5288,-4.5288,-4.5288,-4.5288,-4.5288,-4.5288,-4.5288,-4.5288,-4.5288,-4.5288,-3.7276,-3.7123,-3.7199,-3.9246,-4.04,0.0,0.0,-4.3585,-4.3585,-4.447,-4.4393,0.0,0.0,0.0,0.0,0.0,0.0,0.0,0.0,0.0,0.0,0.0,0.0,0.0,0.0,0.0,0.0,0.0,0.0,0.0,-5.3301,-5.3301,-5.3148,-5.2805,-5.311,-5.3301,-5.3301,-5.3607,-5.3798,-5.3798,-5.4868,-5.5135,-5.46,-5.5135,-5.4906,-5.4104,-5.4104,-5.3607,-5.2805,-5.2805,-5.2346,-5.1532,-5.1009,-5.0588,-5.0283,-5.0283,-5.0283,-5.0283,-5.0283,-5.0283,-5.0283,-5.0283,-5.0283,-5.0283,-5.0283,-5.0283,-5.0245,-4.9939,-4.9862,-4.9519,-4.817,-4.7788,-4.7559,-4.6729,-4.65,-4.6271,-4.5468,-4.5288,-4.5288,-4.5288,-4.5288,-4.5288,-4.5288,-4.5288,-4.5288,-4.5288,-4.5288,-4.5288,-4.5288,-4.5288,-4.5288,-4.5288,-4.5736,-4.6271,-4.6806,-4.6844,-4.6844,-4.6844,-4.5889,-4.5507,-4.6042,-4.6042,-4.6309,-4.6844,-4.6844,-4.6844,-4.6844,-4.6309,-4.6042,-4.6042,-4.5545,-4.5288,-3.7777,-3.7199,-3.6808,-3.8815,0.0,0.0,-4.3701,-4.4509,-4.497,-4.5817,-4.6201,-4.6317,-4.6047,0.0,0.0,0.0,0.0,0.0,0.0,0.0,0.0,0.0,0.0,0.0,0.0,0.0,0.0,0.0,0.0,0.0,0.0,-5.2422,-5.2308,-5.2002,-5.227,-5.2422,-5.2422,-5.2652,-5.2652,-5.2422,-5.3874,-5.4256,-5.3722,-5.4295,-5.4104,-5.3301,-5.3301,-5.2805,-5.2002,-5.2002,-5.1697,-5.1123,-5.055,-5.0283,-5.0283,-5.0283,-5.0283,-5.0283,-5.0283,-5.0283,-5.0283,-5.0283,-5.0283,-5.0283,-5.0283,-5.0283,-5.0283,-5.0283,-5.0283,-5.0054,-4.8896,-4.859,-4.8361,-4.7532,-4.7302,-4.7073,-4.6271,-4.608,-4.608,-4.608,-4.608,-4.6003,-4.5736,-4.566,-4.5583,-4.5326,-4.5288,-4.5288,-4.5288,-4.5288,-4.5403,-4.566,-4.6156,-4.6844,-4.7712,-4.7788,-4.7788,-4.7788,-4.6729,-4.6347,-4.6882,-4.692,-4.7177,-4.7788,-4.7788,-4.7788,-4.7788,-4.7177,-4.692,-4.692,-4.6347,-4.608,-3.7777,-3.6776,-3.6115,-3.8661,0.0,0.0,-4.3739,-4.4979,-4.5864,-4.674,-4.7548,-4.7855,-4.7077,0.0,0.0,0.0,0.0,0.0,0.0,0.0,0.0,0.0,0.0,0.0,0.0,0.0,0.0,0.0,0.0,0.0,0.0,-5.157,-5.1188,-5.0321,-5.1162,-5.157,-5.157,-5.2384,-5.2384,-5.1608,-5.2384,-5.2766,-5.2805,-5.2805,-5.2346,-5.1608,-5.1608,-5.1123,-5.0283,-5.0283,-5.0283,-5.0283,-5.0283,-5.0283,-5.0283,-5.0283,-5.0283,-5.0283,-5.0283,-5.0283,-5.0283,-5.0283,-5.0283,-5.0283,-5.0283,-5.0283,-5.0283,-5.0283,-5.0283,-5.0283,-5.0283,-5.0283,-5.0092,-4.9289,-4.911,-4.8869,-4.7979,-4.7788,-4.7788,-4.7788,-4.7788,-4.7521,-4.6653,-4.65,-4.6233,-4.543,-4.5326,-4.5326,-4.5326,-4.5288,-4.5621,-4.6424,-4.65,-4.6882,-4.775,-4.7826,-4.7826,-4.7826,-4.7826,-4.7826,-4.7788,-4.7788,-4.7826,-4.7826,-4.7826,-4.7826,-4.7826,-4.7826,-4.7788,-4.7788,-4.7788,-4.7788,-3.793,-3.7623,0.0,-3.9669,0.0,0.0,0.0,-4.6317,0.0,0.0,-4.9279,-4.8933,-4.8702,0.0,0.0,0.0,0.0,0.0,0.0,0.0,0.0,0.0,0.0,0.0,0.0,0.0,0.0,0.0,0.0,0.0,0.0,-5.0703,-5.0588,-5.0321,-5.055,-5.0703,-5.0703,-5.0932,-5.0932,-5.0703,-5.0932,-5.1353,-5.1964,-5.2537,-5.2346,-5.1608,-5.1608,-5.1123,-5.0283,-5.0283,-5.0283,-5.0283,-5.0283,-5.0283,-5.0283,-5.0283,-5.0283,-5.0283,-5.0283,-5.0283,-5.0283,-5.0283,-5.0283,-5.0283,-5.0283,-5.0283,-5.0283,-5.0283,-5.0283,-5.0283,-5.0283,-5.0283,-5.0092,-4.9289,-4.911,-4.8869,-4.7979,-4.7788,-4.7788,-4.7788,-4.7788,-4.7712,-4.7444,-4.7406,-4.733,-4.7111,-4.7073,-4.6844,-4.6233,-4.566,-4.5851,-4.7264,-4.7406,-4.799,-4.9442,-4.9557,-4.9557,-4.9557,-4.9557,-4.9289,-4.8754,-4.8716,-4.8984,-4.9557,-4.9557,-4.9557,-4.9557,-4.8984,-4.8716,-4.8716,-4.8105,-4.7788,-3.8315,-3.8738,0.0,-4.1131,-4.2816,-4.4701,-4.7095,0.0,0.0,0.0,0.0,-4.9817,-4.9471,-4.924,0.0,0.0,0.0,0.0,0.0,0.0,0.0,0.0,0.0,0.0,0.0,0.0,0.0,0.0,0.0,0.0,0.0,-5.0283,-5.0283,-5.0283,-5.0283,-5.0283,-5.0283,-5.0283,-5.0283,-5.0283,-5.0283,-5.0588,-5.1085,-5.1582,-5.1544,-5.1085,-5.1085,-5.0779,-5.0283,-5.0283,-5.0283,-5.0283,-5.0283,-5.0283,-5.0283,-5.0283,-5.0283,-5.0283,-5.0283,-5.0283,-5.0283,-5.0283,-5.0283,-5.0283,-5.0283,-5.0283,-5.0283,-5.0283,-5.0283,-5.0283,-5.0283,-5.0283,-5.0168,-4.9671,-4.9595,-4.9442,-4.8907,-4.8781,-4.8781,-4.8781,-4.8781,-4.8678,-4.8372,-4.8334,-4.822,-4.7865,-4.7788,-4.7597,-4.7073,-4.6577,-4.6806,-4.8181,-4.8334,-4.8869,-5.0206,-5.0283,-5.0283,-5.0283,-5.0283,-5.0092,-4.9595,-4.9595,-4.9786,-5.0283,-5.0283,-5.0283,-5.0283,-4.9824,-4.9595,-4.9557,-4.906,-4.8781,-3.87,0.0,0.0,-4.2777,-4.4586,0.0,-4.9981,-5.0087,-4.974,-5.0558,0.0,-5.0481,0.0,0.0,0.0,0.0,0.0,0.0,0.0,0.0,0.0,0.0,0.0,0.0,0.0,0.0,0.0,0.0,0.0,0.0,0.0,-5.0283,-5.0283,-5.0283,-5.0283,-5.0283,-5.0283,-5.0283,-5.0283,-5.0283,-5.0283,-5.0283,-5.0283,-5.0283,-5.0283,-5.0283,-5.0283,-5.0283,-5.0283,-5.0283,-5.0283,-5.0283,-5.0283,-5.0283,-5.0283,-5.0283,-5.0283,-5.0283,-5.0283,-5.0283,-5.0283,-5.0283,-5.0283,-5.0283,-5.0283,-5.0283,-5.0283,-5.0283,-5.0283,-5.0283,-5.0283,-5.0283,-5.0283,-5.0283,-5.0283,-5.0283,-5.0283,-5.0283,-5.0283,-5.0283,-5.0283,-5.0054,-4.9328,-4.9224,-4.8945,-4.8143,-4.7979,-4.7903,-4.7903,-4.7865,-4.8143,-4.9022,-4.911,-4.9442,-5.0245,-5.0283,-5.0283,-5.0283,-5.0283,-5.0283,-5.0283,-5.0283,-5.0283,-5.0283,-5.0283,-5.0283,-5.0283,-5.0283,-5.0283,-5.0283,-5.0283,-5.0283,-3.7815,-3.9361,0.0,0.0,-4.6317,-4.8933,-5.0366,-5.0558,-5.0481,0.0,0.0,0.0,0.0,0.0,0.0,0.0,0.0,0.0,0.0,0.0,0.0,0.0,0.0,0.0,0.0,0.0,0.0,0.0,0.0,0.0,-5.0283,-5.0283,-5.0283,-5.0283,-5.0283,-5.0283,-5.0283,-5.0283,-5.0283,0.0,-5.0283,-5.0283,-5.0283,-5.0283,-5.0283,-5.0283,-5.0283,-5.0283,-5.0283,-5.0283,-5.0283,-5.0283,-5.0283,-5.0283,-5.0283,-5.0283,-5.0283,-5.0283,-5.0283,-5.0283,-5.0283,-5.0283,-5.0283,-5.0283,-5.0283,-5.0283,-5.0283,-5.0283,-5.0283,-5.0283,-5.0283,-5.0283,-5.0283,-5.0283,-5.0283,-5.0283,-5.0283,-5.0283,-5.0283,-5.0283,-5.0283,-5.0245,-5.0054,-5.0054,-4.9977,-4.9786,-4.9213,-4.8831,-4.8831,-4.822,-4.8143,-4.9022,-4.911,-4.9442,-5.0245,-5.0283,-5.0283,-5.0283,-5.0283,-5.0283,-5.0283,-5.0283,-5.0283,-5.0283,-5.0283,-5.0283,-5.0283,-5.0283,-5.0283,-5.0283,-5.0283,-5.0283,-3.6909,0.0,0.0,-4.5278,0.0,0.0,0.0,0.0,0.0,0.0,0.0,0.0,0.0,0.0,0.0,0.0,0.0,0.0,0.0,0.0,0.0,0.0,0.0,0.0,0.0,0.0,0.0,0.0,0.0,-5.0283,-5.0283,-5.0283,-5.0283,-5.0283,-5.0283,-5.0283,-5.0283,-5.0283,-5.0283,-5.0283,-5.0283,-5.0283,-5.0283,-5.0283,-5.0283,-5.0283,-5.0283,-5.0283,-5.0283,-5.0283,-5.0283,-5.0283,-5.0283,-5.0283,-5.0283,-5.0283,-5.0283,-5.0283,-5.0283,-5.0283,-5.0283,-5.0283,-5.0283,-5.0283,-5.0283,-5.0283,-5.0283,-5.0283,-5.0283,-5.0283,-5.0283,-5.0283,-5.0283,-5.0283,-5.0283,-5.0283,-5.0283,-5.0283,-5.0283,-5.0283,-5.0283,-5.0283,-5.0283,-5.0283,-5.0283,-5.0283,-4.9939,-4.9671,-4.9671,-4.9289,-4.9175,-4.9633,-4.9671,-4.9824,-5.0245,-5.0283,-5.0283,-5.0283,-5.0283,-5.0474,-5.0932,-5.0932,-5.0741,-5.0321,-5.0283,-5.0283,-5.0283,-5.0283,-5.0283,-5.0283,-5.0283,-5.0283,0.0,0.0,-4.3201,0.0,0.0,0.0,0.0,0.0,0.0,0.0,0.0,0.0,0.0,0.0,0.0,0.0,0.0,0.0,0.0,0.0,0.0,0.0,0.0,0.0,0.0,0.0,0.0,0.0,0.0,-4.9862,-4.9862,-4.9862,-4.9862,-4.9862,-5.0015,-5.0092,-5.0092,-5.0245,-5.0283,-5.0283,-5.0283,-5.0283,-5.0283,-5.0283,-5.0283,-5.0283,-5.0283,-5.0283,-5.0283,-5.0283,-5.0283,-5.0283,-5.0309,-5.0271,-5.0321,-5.0309,-5.0271,-5.0283,-5.0283,-5.0283,-5.0283,-5.0283,-5.0283,-5.0283,-5.0283,-5.0283,-5.0283,-5.0283,-5.0283,-5.0283,-5.0283,-5.0283,-5.0283,-5.0283,-5.0283,-5.0283,-5.0283,-5.0283,-5.0283,-5.0283,-5.0283,-5.0283,-5.0283,-5.0283,-5.0283,-5.0283,-5.0283,-5.0283,-5.0283,-5.0283,-5.0283,-5.0283,-5.0283,-5.0283,-5.0283,-5.0283,-5.0359,-5.0512,-5.0512,-5.0932,-5.1773,-5.1811,-5.1467,-5.0741,-5.0588,-5.0512,-5.0512,-5.0359,-5.0283,-5.0283,-5.0283,-5.0283,0.0,0.0,0.0,0.0,0.0,0.0,0.0,0.0,0.0,0.0,0.0,0.0,0.0,0.0,0.0,0.0,0.0,0.0,0.0,0.0,0.0,0.0,0.0,0.0,0.0,0.0,0.0,0.0,-4.8056,-4.8132,-4.8132,-4.8132,-4.8132,-4.8132,-4.8869,-4.9263,-4.9263,-4.9939,-5.0283,-5.0283,-5.0283,-5.0283,-5.0283,-5.0283,-5.0283,-5.0283,-5.0283,-5.0283,-5.0283,-5.0283,-5.0283,-5.0271,-5.0224,-5.0236,-5.0271,-5.0224,-5.0236,-5.0283,-5.0283,-5.0283,-5.0283,-5.0283,-5.0283,-5.0283,-5.0283,-5.0283,-5.0283,-5.0283,-5.0283,-5.0283,-5.0283,-5.0283,-5.0283,-5.0283,-5.0283,-5.0283,-5.0283,-5.0283,-5.0283,-5.0283,-5.0283,-5.0283,-5.0283,-5.0283,-5.0283,-5.0283,-5.0283,-5.0283,-5.0283,-5.0283,-5.0283,-5.0283,-5.0283,-5.0283,-5.0283,-5.0283,-5.0627,-5.1391,-5.1429,-5.1811,-5.2614,-5.2652,-5.2575,-5.2461,-5.1773,-5.1429,-5.1417,-5.0665,-5.0283,-5.0283,-5.0283,-5.0283,-3.5496,-4.0053,-4.406,0.0,0.0,0.0,0.0,0.0,0.0,0.0,0.0,0.0,0.0,0.0,0.0,0.0,0.0,0.0,0.0,0.0,0.0,0.0,0.0,0.0,0.0,0.0,0.0,0.0,-4.7521,-4.7788,-4.7788,-4.7788,-4.7788,-4.7788,-4.8181,-4.8602,-4.911,-4.9442,-4.9862,-5.0283,-5.0283,-5.0283,-5.0283,-5.0283,-5.0283,-5.0283,-5.0283,-5.0283,-5.0283,-5.0283,-5.0259,-5.0224,-5.02,-5.0188,-5.0175,-5.0188,-5.0212,-5.0236,-5.0309,-5.0283,-5.0283,-5.0283,-5.0283,-5.0283,-5.0283,-5.0283,-5.0283,-5.0283,-5.0283,-5.0283,-5.0283,-5.0283,-5.0283,-5.0283,-5.0283,-5.0283,-5.0283,-5.0283,-5.0283,-5.0283,-5.0283,-5.0283,-5.0283,-5.0283,-5.0283,-5.0283,-5.0283,-5.0283,-5.0283,-5.0283,-5.0474,-5.0971,-5.1047,-5.12,-5.1658,-5.1697,-5.1849,-5.227,-5.227,-5.2652,-5.3492,-5.3531,-5.376,-5.4256,-5.2957,-5.227,-5.227,-5.1429,-5.1047,-5.1009,-5.055,-5.0283,-3.4875,-3.8808,-4.2228,-4.4423,0.0,0.0,0.0,0.0,0.0,0.0,0.0,0.0,0.0,0.0,0.0,0.0,0.0,0.0,0.0,0.0,0.0,0.0,0.0,0.0,0.0,0.0,0.0,0.0,-4.6806,-4.715,-4.715,-4.715,-4.715,-4.715,-4.7368,-4.7799,-4.8411,-4.888,-4.948,-5.0283,-5.0283,-5.0283,-5.0283,-5.0283,-5.0283,-5.0283,-5.0283,-5.0283,-5.0321,-5.0271,-5.0236,-5.0188,-5.0151,-5.0114,-5.0089,-5.0126,-5.0163,-5.02,-5.0248,-5.0309,-5.0283,-5.0283,-5.0283,-5.0283,-5.0283,-5.0283,-5.0283,-5.0283,-5.0474,-5.0627,-5.0627,-5.0779,-5.0932,-5.0932,-5.0932,-5.0818,-5.0397,-5.0283,-5.0283,-5.0283,-5.0283,-5.0283,-5.0283,-5.0283,-5.0283,-5.0283,-5.0283,-5.0283,-5.0283,-5.0283,-5.0627,-5.1493,-5.1608,-5.1926,-5.2728,-5.2805,-5.2881,-5.311,-5.311,-5.3531,-5.4409,-5.4448,-5.4753,-5.5403,-5.4104,-5.3339,-5.311,-5.2308,-5.1811,-5.157,-5.0932,-5.0512,-3.3792,-3.6226,0.0,0.0,0.0,0.0,0.0,0.0,0.0,0.0,0.0,0.0,0.0,0.0,0.0,0.0,0.0,0.0,0.0,0.0,0.0,0.0,0.0,0.0,0.0,0.0,0.0,0.0,-4.5392,-4.543,-4.543,-4.543,-4.543,-4.543,-4.6156,-4.6577,-4.6615,-4.8258,-4.948,-5.0283,-5.0283,-5.0283,-5.0283,-5.0283,-5.0283,-5.0283,-5.0283,-5.0283,-5.0321,-5.0224,-5.02,-5.0175,-5.005,-5.0038,-5.0076,-5.0012,-5.0089,-5.02,-5.02,-5.0236,-5.0283,-5.0283,-5.0283,-5.0283,-5.0283,-5.0283,-5.0283,-5.0283,-5.0894,-5.1544,-5.1544,-5.2117,-5.2652,-5.2652,-5.2652,-5.2231,-5.0627,-5.0283,-5.0283,-5.0283,-5.0283,-5.0283,-5.0283,-5.0283,-5.0283,-5.0283,-5.0283,-5.0283,-5.0283,-5.0283,-5.0627,-5.1493,-5.1608,-5.1926,-5.2728,-5.2805,-5.3148,-5.3989,-5.4027,-5.4409,-5.5288,-5.5326,-5.5365,-5.5403,-5.5326,-5.4868,-5.4027,-5.3148,-5.2346,-5.1608,-5.1532,-5.1085,-3.0509,-3.3091,0.0,0.0,0.0,0.0,0.0,0.0,0.0,0.0,0.0,0.0,0.0,0.0,0.0,0.0,0.0,0.0,0.0,0.0,0.0,0.0,0.0,0.0,0.0,0.0,0.0,0.0,0.0,-4.5288,-4.5288,-4.5288,-4.5288,-4.5288,-4.5583,-4.5965,-4.65,-4.822,-4.9251,-4.9519,-5.0054,-5.0283,-5.0283,-5.0283,-5.0283,-5.0321,-5.0248,-5.0224,-5.0224,-5.02,-5.0139,-5.0063,-5.0012,-4.9973,-4.9959,-4.9986,-5.0025,-5.0076,-5.0163,-5.0212,-5.0236,-5.0309,-5.0283,-5.0283,-5.0283,-5.0283,-5.0283,-5.0283,-5.0932,-5.1608,-5.1608,-5.2193,-5.2805,-5.2805,-5.2805,-5.2652,-5.204,-5.1888,-5.1888,-5.1888,-5.1505,-5.1314,-5.1811,-5.1467,-5.1314,-5.1811,-5.1888,-5.1888,-5.1888,-5.1888,-5.2231,-5.311,-5.3187,-5.3569,-5.4409,-5.4486,-5.46,-5.4906,-5.4944,-5.5059,-5.5403,-5.5403,-5.5403,-5.5403,-5.5403,-5.525,-5.4944,-5.4065,-5.3187,-5.2346,-5.1849,-5.1123,-2.8332,-3.0604,0.0,0.0,0.0,0.0,0.0,0.0,0.0,0.0,0.0,0.0,0.0,0.0,0.0,0.0,0.0,0.0,0.0,0.0,0.0,0.0,0.0,0.0,0.0,0.0,0.0,0.0,0.0,0.0,-4.5288,-4.5288,-4.5288,-4.5288,-4.5288,-4.5698,-4.65,-4.7646,-4.8525,-4.911,-4.9633,-5.0054,-5.0283,-5.0015,-5.0042,-5.0248,-4.9945,-4.9959,-5.0188,-5.0139,-5.0076,-4.9986,-4.9959,-4.9933,-4.9893,-4.9933,-4.9973,-4.9999,-5.0089,-5.0151,-5.02,-5.0236,-5.0271,-5.0283,-5.0283,-5.0512,-5.0741,-5.0741,-5.1582,-5.2461,-5.2461,-5.3034,-5.3683,-5.3683,-5.3683,-5.3683,-5.3683,-5.3225,-5.2805,-5.2805,-5.2384,-5.2155,-5.269,-5.2346,-5.2193,-5.2728,-5.2805,-5.2805,-5.2805,-5.2805,-5.311,-5.4027,-5.4104,-5.4448,-5.5326,-5.5403,-5.5403,-5.5403,-5.5403,-5.5403,-5.5403,-5.5403,-5.5403,-5.5403,-5.5403,-5.5403,-5.5403,-5.483,-5.4104,-5.3225,-5.2384,-5.1391,0.0,0.0,0.0,0.0,0.0,0.0,0.0,0.0,0.0,0.0,0.0,0.0,0.0,0.0,0.0,0.0,0.0,0.0,0.0,0.0,0.0,0.0,0.0,0.0,0.0,0.0,0.0,0.0,-4.5288,-4.5288,-4.5288,-4.5316,-4.5277,-4.5277,-4.5277,-4.566,-4.6451,-4.6489,-4.7379,-4.9071,-4.911,-4.9519,-5.0283,-4.9442,-4.9484,-5.0149,-4.9337,-4.9451,-5.0175,-5.0038,-4.9986,-4.9973,-4.992,-4.9893,-4.9893,-4.9893,-4.9933,-4.9986,-4.9986,-5.0076,-5.0188,-5.0188,-5.0236,-5.0321,-5.0283,-5.0932,-5.1608,-5.1608,-5.2805,-5.4104,-5.4142,-5.4753,-5.5403,-5.5403,-5.5403,-5.5403,-5.5403,-5.4065,-5.2881,-5.2881,-5.2843,-5.2843,-5.2881,-5.2843,-5.2843,-5.2881,-5.2881,-5.2881,-5.2881,-5.2881,-5.3187,-5.4065,-5.4142,-5.4486,-5.5326,-5.5403,-5.5403,-5.5403,-5.5403,-5.5403,-5.5403,-5.5403,-5.5403,-5.5403,-5.5403,-5.5403,-5.5403,-5.5403,-5.4944,-5.4065,-5.3187,-5.1888,-2.6682,0.0,0.0,0.0,0.0,0.0,0.0,0.0,0.0,0.0,0.0,0.0,0.0,0.0,0.0,0.0,0.0,0.0,0.0,0.0,0.0,0.0,0.0,0.0,0.0,0.0,0.0,0.0,-4.5288,-4.5288,-4.5288,-4.5203,-4.5159,-4.5159,-4.5114,-4.5251,-4.5557,-4.6167,-4.7067,-4.8181,-4.8793,-4.9519,-5.0283,-4.9408,-4.9425,-5.0063,-4.9073,-4.9094,-4.9862,-4.9946,-4.9959,-4.992,-4.9893,-4.9893,-4.9893,-4.9893,-4.9906,-4.992,-4.9973,-5.0012,-5.0063,-5.0163,-5.02,-5.0224,-5.0309,-5.0932,-5.1608,-5.1608,-5.2805,-5.4256,-5.4868,-5.5212,-5.5403,-5.5403,-5.5403,-5.5403,-5.5403,-5.5021,-5.4677,-5.4677,-5.418,-5.3951,-5.4562,-5.4142,-5.3951,-5.46,-5.4677,-5.4677,-5.4677,-5.4677,-5.4791,-5.5021,-5.5059,-5.5135,-5.5403,-5.5403,-5.5403,-5.5403,-5.5403,-5.5403,-5.5403,-5.5403,-5.5403,-5.5403,-5.5403,-5.5403,-5.5403,-5.5403,-5.4944,-5.4065,-5.2614,-5.1697,-2.7358,-2.781,0.0,0.0,0.0,0.0,0.0,-3.3164,0.0,0.0,0.0,0.0,0.0,0.0,0.0,0.0,0.0,0.0,0.0,0.0,0.0,0.0,0.0,0.0,0.0,-4.5288,-4.5288,-4.5288,-4.5288,-4.5267,-4.5213,-4.5053,-4.4972,-4.4986,-4.495,-4.4974,-4.508,-4.5654,-4.6396,-4.7258,-4.7788,-4.8437,-4.9167,-4.8342,-4.8514,-4.9377,-4.8318,-4.8451,-4.9461,-4.9499,-4.9573,-4.9698,-4.9698,-4.9712,-4.9792,-4.9821,-4.9811,-4.989,-4.992,-4.9959,-4.9999,-5.0089,-5.0126,-5.0151,-5.0188,-5.1089,-5.2068,-5.2068,-5.3315,-5.4753,-5.5288,-5.5403,-5.5403,-5.5403,-5.5403,-5.5403,-5.5403,-5.5403,-5.5403,-5.5403,-5.4982,-5.4791,-5.5326,-5.4982,-5.483,-5.5326,-5.5403,-5.5403,-5.5403,-5.5403,-5.5403,-5.5403,-5.5403,-5.5403,-5.5403,-5.5403,-5.5403,-5.5403,-5.5403,-5.5403,-5.5403,-5.5403,-5.5403,-5.5403,-5.5403,-5.5403,-5.5403,-5.5403,-5.4944,-5.4065,-5.311,-5.227,-2.8994,-2.9178,-2.9185,-2.907,-2.8949,0.0,-2.985,-3.0629,0.0,0.0,0.0,0.0,0.0,0.0,0.0,0.0,0.0,0.0,0.0,0.0,0.0,0.0,0.0,0.0,-4.5267,-4.5256,-4.5256,-4.5246,-4.5246,-4.5192,-4.5068,-4.4862,-4.4764,-4.4776,-4.4776,-4.4802,-4.4889,-4.5068,-4.5616,-4.6466,-4.6473,-4.6892,-4.7636,-4.6824,-4.7175,-4.8428,-4.7391,-4.7747,-4.9019,-4.8816,-4.899,-4.9315,-4.9315,-4.9415,-4.9544,-4.9634,-4.9721,-4.9792,-4.9852,-4.9933,-4.9973,-4.9986,-5.0025,-5.0076,-5.0114,-5.1231,-5.2616,-5.2781,-5.4015,-5.5288,-5.5365,-5.5403,-5.5403,-5.5403,-5.5403,-5.5403,-5.5403,-5.5403,-5.5403,-5.5403,-5.5403,-5.5403,-5.5403,-5.5403,-5.5403,-5.5403,-5.5403,-5.5403,-5.5403,-5.5403,-5.5403,-5.5403,-5.5403,-5.5403,-5.5403,-5.5403,-5.5403,-5.5403,-5.5403,-5.5403,-5.5403,-5.5403,-5.5403,-5.5403,-5.5403,-5.5403,-5.5403,-5.5403,-5.5021,-5.4256,-5.4142,-5.3263,-3.0949,-3.0987,-3.0835,-3.0109,0.0,0.0,-2.8319,-2.8816,-3.0008,0.0,0.0,0.0,0.0,0.0,0.0,0.0,0.0,0.0,0.0,0.0,0.0,0.0,0.0,0.0,-4.5148,-4.5091,-4.5045,-4.4998,-4.4986,-4.4938,-4.4802,-4.4621,-4.4541,-4.4551,-4.451,-4.4565,-4.4751,-4.484,-4.5331,-4.6265,-4.6277,-4.6657,-4.7416,-4.6468,-4.6852,-4.8198,-4.7015,-4.7367,-4.8677,-4.8458,-4.8605,-4.8919,-4.8919,-4.9023,-4.9139,-4.9384,-4.9506,-4.9588,-4.9824,-4.9893,-4.992,-4.9973,-4.9999,-5.0012,-5.0063,-5.0825,-5.1954,-5.3353,-5.4053,-5.4524,-5.5212,-5.5403,-5.5403,-5.5403,-5.5403,-5.5403,-5.5403,-5.5403,-5.5403,-5.5403,-5.5403,-5.5403,-5.5403,-5.5403,-5.5403,-5.5403,-5.5403,-5.5403,-5.5403,-5.5403,-5.5403,-5.5403,-5.5403,-5.5403,-5.5403,-5.5403,-5.5403,-5.5403,-5.5403,-5.5403,-5.5403,-5.5403,-5.5403,-5.5403,-5.5403,-5.5403,-5.5403,-5.5403,-5.5326,-5.5135,-5.4448,-5.3531,-3.3883,-3.3394,-3.2554,-3.1675,0.0,0.0,0.0,-2.8612,-2.9376,-3.114,0.0,0.0,0.0,0.0,0.0,0.0,0.0,0.0,0.0,0.0,0.0,0.0,0.0,0.0,-4.4338,-4.4244,-4.4335,-4.4649,-4.4636,-4.4584,-4.4472,-4.4317,-4.4252,-4.4207,-4.4162,-4.4222,-4.4345,-4.45,-4.4783,-4.5238,-4.5278,-4.5504,-4.5854,-4.5279,-4.5858,-4.7197,-4.6436,-4.6966,-4.8306,-4.8072,-4.8111,-4.8269,-4.8477,-4.8659,-4.8818,-4.9077,-4.9273,-4.9461,-4.9698,-4.9835,-4.9876,-4.992,-4.9933,-4.9946,-4.9973,-5.0924,-5.2308,-5.4103,-5.4613,-5.4753,-5.5275,-5.5403,-5.5403,-5.5403,-5.5403,-5.5403,-5.5403,-5.5403,-5.5403,-5.5403,-5.5403,-5.5403,-5.5403,-5.5403,-5.5403,-5.5403,-5.5403,-5.5403,-5.5403,-5.5403,-5.5403,-5.5403,-5.5403,-5.5403,-5.5403,-5.5403,-5.5403,-5.5403,-5.5403,-5.5403,-5.5403,-5.5403,-5.5403,-5.5403,-5.5403,-5.5403,-5.5403,-5.5403,-5.5403,-5.5403,-5.4944,-5.4065,0.0,0.0,0.0,0.0,0.0,-3.0185,0.0,0.0,0.0,-3.0491,0.0,0.0,0.0,0.0,0.0,0.0,0.0,0.0,0.0,0.0,0.0,0.0,0.0,0.0,0.0,-4.2926,-4.3122,-4.3802,-4.3863,-4.3882,-4.3908,-4.3943,-4.3945,-4.3865,-4.3865,-4.3913,-4.3992,-4.4147,-4.425,-4.425,-4.4308,-4.4294,-4.4221,-4.4132,-4.4894,-4.6222,-4.592,-4.6612,-4.7988,-4.7783,-4.7699,-4.772,-4.8052,-4.8306,-4.8495,-4.8696,-4.8942,-4.9209,-4.9506,-4.9692,-4.9741,-4.9852,-4.9893,-4.9931,-5.012,-5.1147,-5.2634,-5.443,-5.4941,-5.5044,-5.5288,-5.539,-5.5403,-5.5403,-5.5403,-5.5403,-5.5403,-5.5403,-5.5403,-5.5403,-5.5403,-5.5403,-5.5403,-5.5403,-5.5403,-5.5403,-5.5403,-5.5403,-5.5403,-5.5403,-5.5403,-5.5403,-5.5403,-5.5403,-5.5403,-5.5403,-5.5403,-5.5403,-5.5403,-5.5403,-5.5403,-5.5403,-5.5403,-5.5403,-5.5403,-5.5403,-5.5403,-5.5403,-5.5403,-5.5403,-5.5403,-5.4486,0.0,0.0,0.0,0.0,-3.2592,0.0,0.0,0.0,-2.7886,-2.8083,0.0,0.0,0.0,0.0,0.0,0.0,0.0,0.0,0.0,0.0,0.0,0.0,0.0,0.0,0.0,-4.0884,-4.1092,-4.1845,-4.192,-4.221,-4.2826,-4.3479,-4.382,-4.382,-4.382,-4.3853,-4.3913,-4.3971,-4.4033,-4.4033,-4.4033,-4.4002,-4.3945,-4.3812,-4.4566,-4.592,-4.5717,-4.6494,-4.7902,-4.7741,-4.7699,-4.7699,-4.7741,-4.7845,-4.8024,-4.8267,-4.8513,-4.873,-4.9273,-4.9491,-4.9573,-4.9824,-4.9893,-5.0044,-5.0827,-5.1223,-5.1785,-5.347,-5.4061,-5.4306,-5.5044,-5.5313,-5.5403,-5.5403,-5.5403,-5.5403,-5.5403,-5.5403,-5.5403,-5.5403,-5.5403,-5.5403,-5.5403,-5.5403,-5.5403,-5.5403,-5.5403,-5.5403,-5.5403,-5.5403,-5.5403,-5.5403,-5.5403,-5.5403,-5.5403,-5.5403,-5.5403,-5.5403,-5.5403,-5.5403,-5.5403,-5.5403,-5.5403,-5.5403,-5.5403,-5.5403,-5.5403,-5.5403,-5.5403,-5.5403,-5.5403,-5.4486,0.0,0.0,0.0,0.0,0.0,0.0,-2.9893,0.0,-2.9125,0.0,0.0,0.0,0.0,0.0,0.0,0.0,0.0,0.0,0.0,0.0,0.0,0.0,0.0,0.0,0.0,0.0,0.0,0.0,-3.9911,-4.0471,-4.173,-4.2492,-4.3139,-4.3617,-4.3617,-4.3634,-4.3667,-4.3667,-4.3651,-4.3651,-4.3563,-4.3512,-4.3497,-4.341,-4.3944,-4.4966,-4.4778,-4.5626,-4.7073,-4.7032,-4.7301,-4.7699,-4.7699,-4.7798,-4.7922,-4.8052,-4.8287,-4.8624,-4.8976,-4.9241,-4.9446,-4.9726,-4.989,-5.0158,-5.1509,-5.1902,-5.2285,-5.3998,-5.4552,-5.471,-5.5107,-5.5313,-5.5403,-5.5403,-5.5403,-5.5403,-5.5403,-5.5403,-5.5403,-5.5403,-5.5403,-5.5403,-5.5403,-5.5403,-5.5403,-5.5403,-5.5403,-5.5403,-5.5403,-5.5403,-5.5403,-5.5403,-5.5403,-5.5403,-5.5403,-5.5403,-5.5403,-5.5403,-5.5403,-5.5403,-5.5403,-5.5403,-5.5403,-5.5403,-5.5403,-5.5403,-5.5403,-5.5403,-5.5403,-5.5403,-5.5403,-5.4753,-4.1571,0.0,0.0,0.0,0.0,0.0,0.0,0.0,0.0,0.0,0.0,0.0,0.0,0.0,0.0,0.0,0.0,0.0,0.0,0.0,0.0,0.0,0.0,0.0,0.0,0.0,0.0,0.0,0.0,-3.8762,-4.0361,-4.1625,-4.258,-4.313,-4.3404,-4.3497,-4.3463,-4.3429,-4.3394,-4.3322,-4.3251,-4.3196,-4.316,-4.3123,-4.3522,-4.4229,-4.4152,-4.5019,-4.6504,-4.6504,-4.6975,-4.7699,-4.7699,-4.7777,-4.7861,-4.7907,-4.8108,-4.8362,-4.8624,-4.8993,-4.9368,-4.9625,-4.9797,-5.022,-5.1888,-5.2404,-5.276,-5.4501,-5.5042,-5.5088,-5.5143,-5.53,-5.5403,-5.5403,-5.5403,-5.5403,-5.5403,-5.5403,-5.5403,-5.5403,-5.5403,-5.5403,-5.5403,-5.5403,-5.5403,-5.5403,-5.5403,-5.5403,-5.5403,-5.5403,-5.5403,-5.5403,-5.5403,-5.5403,-5.5403,-5.5403,-5.5403,-5.5403,-5.5403,-5.5403,-5.5403,-5.5403,-5.5403,-5.5403,-5.5403,-5.5403,-5.5403,-5.5403,-5.5403,-5.5403,-5.5403,-5.4944,0.0,0.0,0.0,-3.5552,0.0,0.0,0.0,0.0,-3.0781,0.0,0.0,0.0,0.0,0.0,0.0,0.0,0.0,0.0,0.0,0.0,0.0,0.0,0.0,0.0,0.0,0.0,0.0,0.0,0.0,0.0,-3.8689,-4.1038,-4.2323,-4.2323,-4.3094,-4.3463,-4.3412,-4.3394,-4.3322,-4.3214,-4.3214,-4.316,-4.3104,-4.3104,-4.3484,-4.4133,-4.4077,-4.5019,-4.6504,-4.6504,-4.6975,-4.7699,-4.7699,-4.7699,-4.7699,-4.7699,-4.7819,-4.7963,-4.8246,-4.8783,-4.9415,-4.9484,-4.9712,-5.022,-5.1888,-5.2404,-5.276,-5.4427,-5.5,-5.5113,-5.5075,-5.526,-5.5403,-5.5403,-5.5403,-5.5403,-5.5403,-5.5403,-5.5403,-5.5403,-5.5403,-5.5403,-5.5403,-5.5403,-5.5403,-5.5403,-5.5403,-5.5403,-5.5403,-5.5403,-5.5403,-5.5403,-5.5403,-5.5403,-5.5403,-5.5403,-5.5403,-5.5403,-5.5403,-5.5403,-5.5403,-5.5403,-5.5403,-5.5403,-5.5403,-5.5403,-5.5403,-5.5403,-5.5403,-5.5403,-5.5403,-5.4944,0.0,0.0,-3.9028,-3.7521,0.0,0.0,0.0,0.0,0.0,0.0,0.0,0.0,0.0,0.0,0.0,0.0,0.0,0.0,0.0,0.0,0.0,0.0,0.0,0.0,0.0,0.0,0.0,0.0,-3.5128,0.0,0.0,-4.0109,-4.1635,-4.2221,-4.2938,-4.3304,-4.3269,-4.3233,-4.3178,-4.3141,-4.305,-4.3012,-4.2975,-4.2975,-4.3101,-4.3336,-4.3336,-4.4222,-4.5707,-4.5707,-4.6504,-4.7699,-4.7699,-4.7699,-4.7699,-4.7699,-4.7798,-4.7943,-4.8304,-4.8696,-4.911,-4.9305,-4.9551,-5.0095,-5.1802,-5.2376,-5.276,-5.4427,-5.4956,-5.5057,-5.5099,-5.5195,-5.5275,-5.539,-5.5403,-5.5403,-5.5403,-5.5403,-5.5403,-5.5403,-5.5403,-5.5403,-5.5403,-5.5403,-5.5403,-5.5403,-5.5403,-5.5403,-5.5403,-5.5403,-5.5403,-5.5403,-5.5403,-5.5403,-5.5403,-5.5403,-5.5403,-5.5403,-5.5403,-5.5403,-5.5403,-5.5403,-5.5403,-5.5403,-5.5403,-5.5403,-5.5403,-5.5403,-5.5403,-5.5403,-5.5403,-5.525,-4.3529,-4.2159,0.0,-3.9301,-3.7555,0.0,-3.4323,0.0,0.0,0.0,0.0,0.0,0.0,0.0,0.0,0.0,0.0,0.0,0.0,0.0,0.0,0.0,0.0,0.0,0.0,0.0,-3.3073,-3.3366,0.0,0.0,0.0,0.0,-4.087,-4.1711,-4.2667,-4.3196,-4.316,-4.3123,-4.3086,-4.3012,-4.2956,-4.2901,-4.2901,-4.2901,-4.2901,-4.2901,-4.2901,-4.3788,-4.5309,-4.5309,-4.625,-4.7699,-4.7699,-4.7699,-4.7699,-4.7699,-4.7741,-4.7881,-4.8168,-4.8476,-4.8732,-4.8976,-4.9305,-4.992,-5.1669,-5.2279,-5.276,-5.4427,-5.4941,-5.5014,-5.5071,-5.5116,-5.5235,-5.5313,-5.5377,-5.5403,-5.5403,-5.5403,-5.5403,-5.5403,-5.5403,-5.5403,-5.5403,-5.5403,-5.5403,-5.5403,-5.5403,-5.5403,-5.5403,-5.5403,-5.5403,-5.5403,-5.5403,-5.5403,-5.5403,-5.5403,-5.5403,-5.5403,-5.5403,-5.5403,-5.5403,-5.5403,-5.5403,-5.5403,-5.5403,-5.5403,-5.5403,-5.5403,-5.5403,-5.5403,-5.5339,-5.5313]},{"header":{"parameterUnit":"m.s-1","parameterCategory":1,"la1":30.6,"la2":29.2853,"lo1":-89.7004,"lo2":-87.6739,"dy":0.0162,"dx":0.0183,"nx":112,"ny":82,"refTime":"2026-04-25T12:00:00:Z","depth":0,"parameterNumber":3,"parameterNumberName":"V-component_of_WINDS"},"data":[0.0,0.0,0.0,0.0,0.0,0.0,0.0,0.0,0.0,0.0,0.0,0.0,0.0,0.0,0.0,0.0,0.0,0.0,0.0,0.0,0.0,0.0,0.0,0.0,0.0,0.0,0.0,0.0,0.0,0.0,0.0,0.0,0.0,0.0,0.0,0.0,0.0,0.0,0.0,0.0,0.0,0.0,0.0,0.0,0.0,0.0,0.0,0.0,0.0,0.0,0.0,0.0,0.0,0.0,0.0,0.0,0.0,0.0,0.0,0.0,0.0,0.0,0.0,0.0,0.0,0.0,0.0,0.0,0.0,0.0,0.0,0.0,0.0,0.0,0.0,0.0,0.0,0.0,0.0,0.0,0.0,0.0,0.0,0.0,0.0,0.0,0.0,0.0,0.0,0.0,0.0,0.0,0.0,0.0,0.0,0.0,0.0,0.0,0.0,0.0,0.0,0.0,0.0,0.0,0.0,0.0,0.0,0.0,0.0,0.0,0.0,0.0,0.0,0.0,0.0,0.0,0.0,0.0,0.0,0.0,0.0,0.0,0.0,0.0,0.0,0.0,0.0,0.0,0.0,0.0,0.0,0.0,0.0,0.0,0.0,0.0,0.0,0.0,0.0,0.0,0.0,0.0,0.0,0.0,0.0,0.0,0.0,0.0,0.0,0.0,0.0,0.0,0.0,0.0,0.0,0.0,0.0,0.0,0.0,0.0,0.0,0.0,0.0,0.0,0.0,0.0,0.0,0.0,0.0,0.0,0.0,0.0,0.0,0.0,0.0,0.0,0.0,0.0,0.0,0.0,0.0,0.0,0.0,0.0,0.0,0.0,0.0,0.0,0.0,0.0,0.0,0.0,0.0,0.0,0.0,0.0,0.0,0.0,0.0,0.0,0.0,0.0,0.0,0.0,0.0,0.0,0.0,0.0,0.0,0.0,0.0,0.0,0.0,0.0,0.0,0.0,0.0,0.0,0.0,0.0,0.0,0.0,0.0,0.0,0.0,0.0,0.0,0.0,0.0,0.0,0.0,0.0,0.0,0.0,0.0,0.0,0.0,0.0,0.0,0.0,0.0,0.0,0.0,0.0,0.0,0.0,0.0,0.0,0.0,0.0,0.0,0.0,0.0,0.0,0.0,0.0,0.0,0.0,0.0,0.0,0.0,0.0,0.0,0.0,0.0,0.0,0.0,0.0,0.0,0.0,0.0,0.0,0.0,0.0,0.0,0.0,0.0,0.0,0.0,0.0,0.0,0.0,0.0,0.0,0.0,0.0,0.0,0.0,0.0,0.0,0.0,0.0,0.0,0.0,0.0,0.0,0.0,0.0,0.0,0.0,0.0,0.0,0.0,0.0,0.0,0.0,0.0,0.0,0.0,0.0,0.0,0.0,0.0,0.0,0.0,0.0,0.0,0.0,0.0,0.0,0.0,0.0,0.0,0.0,0.0,0.0,0.0,0.0,0.0,0.0,0.0,0.0,0.0,0.0,0.0,0.0,0.0,0.0,0.0,0.0,0.0,0.0,0.0,0.0,0.0,0.0,0.0,0.0,0.0,0.0,0.0,0.0,0.0,0.0,0.0,0.0,0.0,0.0,0.0,0.0,0.0,0.0,0.0,0.0,0.0,0.0,0.0,0.0,0.0,0.0,0.0,0.0,0.0,0.0,0.0,0.0,0.0,0.0,0.0,0.0,0.0,0.0,0.0,0.0,0.0,0.0,0.0,0.0,0.0,0.0,0.0,0.0,0.0,0.0,0.0,0.0,0.0,0.0,0.0,0.0,0.0,0.0,0.0,0.0,0.0,0.0,0.0,0.0,0.0,0.0,0.0,0.0,0.0,0.0,0.0,0.0,0.0,0.0,0.0,0.0,0.0,0.0,0.0,0.0,0.0,0.0203,0.0217,0.0228,0.0116,0.0116,0.0112,0.0053,0.0,0.0,0.0,0.0,0.0,0.0,0.0,0.0,0.0,0.0,0.0,0.0,0.0,0.0,0.0,0.0,0.0,0.0,0.0,0.0,0.0,0.0,0.0,0.0,0.0,0.0,0.0,0.0,0.0,0.0,0.0,0.0,0.0,0.0,0.0,0.0,0.0,0.0,0.0,0.0,0.0,0.0,0.0,0.0,0.0,0.0,0.0,0.0,0.0,0.0,0.0,0.0,0.0,0.0,0.0,0.0,0.0,0.0,0.0,0.0,0.0,0.0,0.0,0.0,0.0,0.0,0.0,0.0,0.0,0.0,0.0,0.0,0.0,0.0,0.0,0.0,0.0,0.0,0.0,0.0,0.0,0.0,0.0,0.0,0.0,0.0,0.0,0.0,0.0,0.0,0.0,0.0,0.0,0.0,0.0,0.0,0.0,0.0,0.0,0.0,0.0,0.0,0.0,0.0,0.0,0.0706,0.0757,0.084,0.0578,0.0347,0.0386,0.0154,0.0,0.0,0.0,0.0,0.0,0.0,0.0,0.0,0.0,0.0,0.0,0.0,0.0,0.0,0.0,0.0,0.0,0.0,0.0,0.0,0.0,0.0,0.0,0.0,0.0,0.0,0.0,0.0,0.0,0.0,0.0,0.0,0.0,0.0,0.0,0.0,0.0,0.0,0.0,0.0,0.0,0.0,0.0,0.0,0.0,0.0,0.0,0.0,0.0,0.0,0.0,0.0,0.0,0.0,0.0,0.0,0.0,0.0,0.0,0.0,0.0,0.0,0.0,0.0,0.0,0.0,0.0,0.0,0.0,0.0,0.0,0.0,0.0,0.0,0.0,0.0,0.0,0.0,0.0,0.0,0.0,0.0,0.0,0.0,0.0,0.0,0.0,0.0,0.0,0.0,0.0,0.0,0.0,0.0,0.0,0.0,0.0,0.0,0.0,0.0,0.0,0.0,0.0,0.0,0.0,0.0743,0.0794,0.0,0.0555,0.0386,0.0419,0.0146,0.0,0.0,0.0,0.0,0.0,0.0,0.0,0.0,0.0,0.0,0.0,0.0,0.0,0.0,0.0,0.0,0.0,0.0,0.0,0.0,0.0,0.0,0.0,0.0,0.0,0.0,0.0,0.0,0.0,0.0,0.0,0.0,0.0,0.0,0.0,0.0,0.0,0.0,0.0,0.0,0.0,0.0,0.0,0.0,0.0,0.0,0.0,0.0,0.0,0.0,0.0,0.0,0.0,0.0,0.0,0.0,0.0,0.0,0.0,0.0,0.0,0.0,0.0,0.0,0.0,0.0,0.0,0.0,0.0,0.0,0.0,0.0,0.0,0.0,0.0,0.0,0.0,0.0,0.0,0.0,0.0,0.0,0.0,0.0,0.0,0.0,0.0,0.0,0.0,0.0,0.0,0.0,0.0,0.0,0.0,0.0,0.0,0.0,0.0,0.0,0.0,0.0,0.0,0.0,0.0917,0.1014,0.1082,0.0,0.086,0.0691,0.0654,0.0373,0.0215,0.0198,0.0,0.0,0.0,0.0,0.0,0.0,0.0,0.0,0.0,0.0,0.0,0.0,0.0,0.0,0.0,0.0,0.0,0.0,0.0,0.0,0.0,0.0,0.0,0.0,0.0,0.0,0.0,0.0,0.0,0.0,0.0,0.0,0.0,0.0,0.0,0.0,0.0,0.0,0.0,0.0,0.0,0.0,0.0,0.0,0.0,0.0,0.0,0.0,0.0,0.0,0.0,0.0,0.0,0.0,0.0,0.0,0.0,0.0,0.0,0.0,0.0,0.0,0.0,0.0,0.0,0.0,0.0,0.0,0.0,0.0,0.0,0.0,0.0,0.0,0.0,0.0,0.0,0.0,0.0,0.0,0.0,0.0,0.0,0.0,0.0,0.0,0.0,0.0,0.0,0.0,0.0,0.0,0.0,0.0,0.0,0.0,0.0,0.0,0.0,0.0,0.0,0.0,0.1366,0.1495,0.1645,0.1707,0.1478,0.1253,0.1184,0.0913,0.0664,0.0,0.0,0.0,0.0,0.0,0.0,0.0,0.0,0.0,0.0,0.0,0.0,0.0,0.0,0.0,0.0,0.0,0.0,0.0,0.0,0.0,0.0,0.0,0.0,0.0,0.0,0.0,0.0,0.0,0.0,0.0,0.0,0.0,0.0,0.0,0.0,0.0,0.0,0.0,0.0,0.0,0.0,0.0,0.0,0.0,0.0,0.0,0.0,0.0,0.0,0.0,0.0,0.0,0.0,0.0,0.0,0.0,0.0,0.0,0.0,0.0,0.0,0.0,0.0,0.0,0.0,0.0,0.0,0.0,0.0,0.0,0.0,0.0,0.0,0.0,0.0,0.0,0.0,0.0,0.0,0.0,0.0,0.0,0.0,0.0,0.0,0.0,0.0,0.0,0.0,0.0,0.0,0.0,0.0,0.0,0.0,0.0,0.0,0.0,0.0,0.0,0.0,0.0,0.1296,0.1483,0.1587,0.1626,0.1451,0.128,0.1209,0.0906,0.0669,0.0603,0.0,0.0,0.0,0.0,0.0,0.0,0.0,0.0,0.0,0.0,0.0,0.0,0.0,0.0,0.0,0.0,0.0,0.0,0.0,0.0,0.0,0.0,0.0,0.0,0.0,0.0,0.0,0.0,0.0,0.0,0.0,0.0,0.0,0.0,0.0,0.0,0.0,0.0,0.0,0.0,0.0,0.0,0.0,0.0,0.0,0.0,0.0,0.0,0.0,0.0,0.0,0.0,0.0,0.0,0.0,0.0,0.0,0.0,0.0,0.0,0.0,0.0,0.0,0.0,0.0,0.0,0.0,0.0,0.0,0.0,0.0,0.0,0.0,0.0,0.0,0.0,0.0,0.0,0.0,0.0,0.0,0.0,0.0,0.0,0.0,0.0,0.0,0.0,0.0,0.0,0.0,0.0,0.0,0.0,0.0,0.0,0.0,0.0,0.0,0.0,0.0,0.0,0.1284,0.1468,0.1569,0.1613,0.148,0.141,0.1341,0.1145,0.0982,0.0839,0.0,0.0,0.0,0.0,0.0,0.0,0.0,0.0,0.0,0.0,0.0,0.0,0.0,0.0,0.0,0.0,0.0,0.0,0.0,0.0,0.0,0.0,0.0,0.0,0.0,0.0,0.0,0.0,0.0,0.0,0.0,0.0,0.0,0.0,0.0,0.0,0.0,0.0,0.0,0.0,0.0,0.0,0.0,0.0,0.0,0.0,0.0,0.0,0.0,0.0,0.0,0.0,0.0,0.0,0.0,0.0,0.0,0.0,0.0,0.0,0.0,0.0,0.0,0.0,0.0,0.0,0.0,0.0,0.0,0.0,0.0,0.0,0.0,0.0,0.0,0.0,0.0,0.0,0.0,0.0,0.0,0.0,0.0,0.0,0.0,0.0,0.0,0.0,0.0,0.0,0.0,0.0,0.0,0.0,0.0,0.0,0.0,0.0,0.0,0.0,0.0,0.0,0.128,0.1405,0.1549,0.1606,0.1615,0.1592,0.1531,0.1545,0.1493,0.1304,0.0,0.0,0.0,0.0,0.0,0.0,0.0,0.0,0.0,0.0,0.0,0.0,0.0,0.0,0.0,0.0,0.0,0.0,0.0,0.0,0.0,0.0,0.0,0.0,0.0,0.0,0.0,0.0,0.0,0.0,0.0,0.0,0.0,0.0,0.0,0.0,0.0,0.0,0.0,0.0,0.0,0.0,0.0,0.0,0.0,0.0,0.0,0.0,0.0,0.0,0.0,0.0,0.0,0.0,0.0,0.0,0.0,0.0,0.0,0.0,0.2483,0.0,0.0,0.0,0.0,0.0,0.0,0.0,0.0,0.0,0.0,0.0,0.0,0.0,0.0,0.0,0.0,0.0,0.0,0.0,0.0,0.0,0.0,0.0,0.0,0.0,0.0,0.0,0.0,0.0,0.0,0.0,0.0,0.0,0.0,0.0,0.0,0.0,0.0,0.0,0.0,0.0,0.1292,0.1437,0.154,0.1577,0.1602,0.1642,0.1819,0.1966,0.2032,0.2,0.1958,0.0,0.0,0.0,0.0,0.0,0.0,0.0,0.0,0.0,0.0,0.0,0.0,0.0,0.0,0.0,0.0,0.0,0.0,0.0,0.0,0.0,0.0,0.0,0.0,0.0,0.0,0.0,0.0,0.0,0.0,0.0,0.0,0.0,0.0,0.0,0.0,0.0,0.0,0.0,0.0,0.0,0.0,0.0,0.0,0.0,0.0,0.0,0.0,0.0,0.0,0.0,0.0,0.0,0.0,0.0,0.0,0.0,0.0,0.0,0.0,0.2735,0.0,0.0,0.0,0.0,0.0,0.0,0.0,0.0,0.0,0.0,0.0,0.0,0.0,0.0,0.0,0.0,0.0,0.0,0.0,0.0,0.0,0.0,0.0,0.0,0.0,0.0,0.0,0.0,0.0,0.0,0.0,0.0,0.0,0.0,0.0,0.0,0.0,0.0,0.0,0.0,0.1283,0.1434,0.1538,0.1617,0.1585,0.1724,0.2009,0.234,0.2576,0.273,0.2831,0.0,0.0,0.0,0.0,0.0,0.0,0.0,0.0,0.0,0.0,0.0,0.0,0.0,0.0,0.0,0.0,0.0,0.0,0.0,0.0,0.0,0.0,0.0,0.0,0.0,0.0,0.0,0.0,0.0,0.0,0.0,0.0,0.0,0.0,0.0,0.0,0.0,0.0,0.0,0.0,0.0,0.0,0.0,0.0,0.0,0.0,0.0,0.0,0.0,0.0,0.0,0.0,0.0,0.3616,0.3646,0.3665,0.3654,0.3684,0.3728,0.3477,0.3376,0.3373,0.3203,0.0,0.0,0.0,0.0,0.0,0.0,0.0,0.0,0.0,0.0,0.0,0.0,0.0,0.0,0.0,0.0,0.0,0.0,0.0,0.0,0.0,0.0,0.0,0.0,0.1639,0.1373,0.1224,0.0,0.0,0.0,0.0,0.0,0.0,0.0,0.0,0.0,0.0,0.0,0.1284,0.1434,0.1534,0.1603,0.1663,0.1897,0.2376,0.2847,0.3256,0.3509,0.3785,0.3762,0.0,0.0,0.0,0.0,0.0,0.0,0.0,0.0,0.0,0.0,0.0,0.0,0.0,0.0,0.0,0.0,0.0,0.0,0.0,0.0,0.0,0.0,0.0,0.0,0.0,0.0,0.0,0.0,0.0,0.0,0.0,0.0,0.2956,0.3031,0.0,0.0,0.0,0.0,0.0,0.0,0.0,0.0,0.0,0.0,0.0,0.0,0.0,0.3739,0.386,0.3877,0.3847,0.383,0.3845,0.3877,0.3973,0.3863,0.3873,0.3986,0.3884,0.0,0.3621,0.3499,0.0,0.0,0.0,0.0,0.0,0.0,0.0,0.0,0.0,0.0,0.0,0.0,0.0,0.0,0.0,0.0,0.0,0.0,0.0,0.0,0.0,0.0,0.2953,0.2463,0.1908,0.1501,0.0,0.137,0.1251,0.1196,0.1132,0.0,0.0,0.0,0.0,0.0,0.0,0.0,0.129,0.1434,0.1565,0.1776,0.202,0.2465,0.312,0.375,0.419,0.4326,0.4687,0.4704,0.4262,0.4032,0.0,0.0,0.0,0.0,0.0,0.0,0.0,0.0,0.0,0.0,0.0,0.0,0.0,0.0,0.0,0.0,0.0,0.0,0.0,0.0,0.0,0.0,0.0,0.0,0.0,0.0,0.0,0.0,0.0,0.2926,0.3144,0.3181,0.33,0.3313,0.0,0.0,0.0,0.0,0.0,0.0,0.0,0.0,0.0,0.3676,0.3834,0.3932,0.3956,0.4027,0.4074,0.4101,0.4074,0.4106,0.4188,0.4164,0.4164,0.4188,0.4188,0.4301,0.4583,0.4307,0.4519,0.499,0.0,0.0,0.0,0.0,0.7004,0.7056,0.6798,0.7054,0.7467,0.753,0.0,0.0,0.0,0.0,0.0,0.0,0.0,0.0,0.0,0.0,0.398,0.3632,0.2969,0.2455,0.2476,0.2389,0.2175,0.0,0.1243,0.1179,0.1136,0.0,0.0,0.0,0.0,0.1226,0.1274,0.1429,0.1636,0.1993,0.2396,0.2967,0.3793,0.4613,0.5171,0.5353,0.5697,0.5682,0.5205,0.4956,0.4645,0.0,0.0,0.0,0.0,0.0,0.0,0.0,0.0,0.0,0.0,0.0,0.0,0.0,0.0,0.0,0.0,0.0,0.0,0.0,0.0,0.0,0.0,0.0,0.0,0.0,0.0,0.0,0.0,0.3147,0.3332,0.3425,0.3512,0.354,0.0,0.0,0.0,0.0,0.0,0.0,0.357,0.3698,0.3785,0.3815,0.3989,0.4087,0.4104,0.4194,0.424,0.424,0.424,0.4264,0.4308,0.4308,0.4308,0.4308,0.4308,0.4672,0.5246,0.5192,0.5562,0.6311,0.7182,0.7781,0.8064,0.8466,0.8648,0.8683,0.847,0.8646,0.8984,0.8947,0.8862,0.8712,0.8421,0.0,0.0,0.0,0.0,0.7323,0.7246,0.6365,0.5422,0.5065,0.4394,0.3817,0.3811,0.3834,0.3403,0.0,0.1658,0.1583,0.1442,0.0,0.0,0.0,0.0,0.1432,0.1392,0.1519,0.1755,0.2206,0.2764,0.3457,0.4402,0.53,0.5892,0.605,0.6356,0.6268,0.582,0.5624,0.5276,0.4762,0.0,0.0,0.0,0.0,0.0,0.0,0.0,0.0,0.0,0.0,0.0,0.0,0.0,0.0,0.0,0.0,0.0,0.0,0.0,0.0,0.0,0.0,0.0,0.0,0.0,0.0,0.0,0.0,0.0,0.3725,0.3811,0.0,0.0,0.0,0.0,0.3883,0.3896,0.3886,0.3935,0.3948,0.4071,0.4185,0.4202,0.4234,0.4294,0.43,0.4303,0.4303,0.4303,0.4305,0.4308,0.4308,0.4308,0.4308,0.4308,0.4672,0.526,0.5941,0.6798,0.7697,0.8916,0.9539,0.9826,1.0366,1.0698,1.0843,1.0843,1.0892,1.1061,1.09,1.0366,0.9811,0.9583,0.9268,0.0,0.0,0.9187,0.9023,0.8693,0.7973,0.7214,0.6702,0.6002,0.5472,0.5468,0.5487,0.4897,0.0,0.2554,0.2392,0.2038,0.0,0.1968,0.1972,0.202,0.1984,0.1729,0.1758,0.1974,0.2433,0.3152,0.3937,0.4893,0.5714,0.619,0.6299,0.6438,0.6268,0.582,0.5786,0.5508,0.4887,0.4627,0.0,0.0,0.0,0.0,0.0,0.0,0.0,0.0,0.0,0.0,0.0,0.0,0.0,0.0,0.0,0.0,0.0,0.0,0.0,0.0,0.0,0.0,0.0,0.0,0.0,0.0,0.0,0.0,0.3924,0.4044,0.0,0.4093,0.4014,0.4,0.4082,0.4125,0.415,0.4153,0.4262,0.4289,0.4218,0.4292,0.4324,0.4308,0.4308,0.4308,0.4308,0.4308,0.4308,0.4308,0.4308,0.4308,0.4308,0.4308,0.4696,0.5405,0.6097,0.6919,0.7922,0.92,0.9769,0.9902,1.047,1.0736,1.0849,1.1077,1.1175,1.1175,1.0883,1.0461,1.0082,0.9851,0.9624,0.9478,0.9648,0.9546,0.9357,0.9259,0.8612,0.7922,0.7629,0.7065,0.6631,0.6631,0.6647,0.6306,0.5204,0.4112,0.3269,0.2956,0.2425,0.2062,0.2076,0.2093,0.2077,0.2036,0.1887,0.2081,0.2872,0.3605,0.4393,0.5228,0.6134,0.6564,0.6451,0.6377,0.622,0.5962,0.583,0.5651,0.5364,0.5086,0.4727,0.0,0.0,0.0,0.0,0.0,0.0,0.0,0.0,0.0,0.0,0.0,0.0,0.0,0.0,0.0,0.0,0.0,0.0,0.0,0.0,0.0,0.0,0.0,0.0,0.0,0.0,0.397,0.4109,0.4251,0.433,0.4308,0.4253,0.4234,0.4275,0.4316,0.4322,0.4281,0.4371,0.4379,0.4281,0.4335,0.4349,0.4308,0.4308,0.4308,0.4308,0.4308,0.4375,0.444,0.4577,0.4708,0.4842,0.4977,0.5379,0.5982,0.6715,0.7377,0.8054,0.8915,0.9357,0.9523,1.0164,1.0516,1.0817,1.1235,1.137,1.1265,1.0964,1.0672,1.0449,1.0217,1.0079,1.0014,1.0128,1.0016,0.9812,0.9812,0.9307,0.8787,0.8686,0.8321,0.8031,0.8031,0.8031,0.7855,0.7364,0.5741,0.4354,0.3991,0.3336,0.2853,0.2853,0.2853,0.2823,0.2774,0.2556,0.2735,0.3626,0.4202,0.4877,0.5691,0.641,0.6722,0.6457,0.63,0.6129,0.5924,0.586,0.578,0.569,0.5323,0.4898,0.4397,0.0,0.0,0.0,0.0,0.0,0.0,0.0,0.0,0.0,0.0,0.0,0.0,0.0,0.0,0.0,0.0,0.0,0.0,0.0,0.0,0.0,0.0,0.0,0.3578,0.3853,0.4109,0.4289,0.4365,0.4425,0.448,0.4433,0.4401,0.4401,0.4401,0.4401,0.4398,0.4343,0.4338,0.4392,0.4338,0.4308,0.4308,0.4308,0.4308,0.4308,0.4308,0.4507,0.4839,0.5245,0.5647,0.5979,0.6317,0.6719,0.7116,0.7784,0.812,0.8231,0.8214,0.8443,0.8897,0.9566,1.0233,1.0914,1.1587,1.1654,1.1468,1.1281,1.111,1.0932,1.0745,1.0688,1.0688,1.0688,1.0566,1.0383,1.0375,1.016,0.9884,0.9876,0.9746,0.9575,0.9575,0.9575,0.9533,0.9236,0.7408,0.5717,0.5097,0.4628,0.4344,0.4344,0.4344,0.0,0.3983,0.3764,0.3942,0.4652,0.4914,0.5362,0.6159,0.6531,0.6607,0.6313,0.6112,0.5961,0.5797,0.5817,0.5848,0.5896,0.5313,0.4777,0.4233,0.0,0.0,0.0,0.0,0.0,0.0,0.0,0.0,0.0,0.0,0.0,0.0,0.0,0.0,0.0,0.0,0.0,0.0,0.0,0.0,0.0,0.3458,0.3681,0.3714,0.4016,0.4267,0.4362,0.4463,0.4531,0.4548,0.4493,0.4461,0.4461,0.4461,0.4442,0.4401,0.4382,0.436,0.4333,0.4316,0.4308,0.4308,0.4308,0.4308,0.4308,0.4308,0.4641,0.5245,0.5845,0.6443,0.7111,0.7712,0.8046,0.8169,0.8217,0.8226,0.8278,0.8794,0.9081,0.9268,0.9937,1.0732,1.1526,1.1716,1.1654,1.1468,1.1281,1.111,1.0932,1.0745,1.0688,1.0688,1.0688,1.0566,1.0404,1.0274,1.0063,0.9851,0.973,0.9665,0.9575,0.9575,0.9575,0.9533,0.9236,0.8522,0.7658,0.6795,0.59,0.5319,0.5319,0.5319,0.0,0.523,0.5053,0.5092,0.5669,0.5813,0.6055,0.6525,0.6825,0.6846,0.6527,0.639,0.6208,0.6046,0.6049,0.6099,0.6119,0.5701,0.5313,0.0,0.0,0.0,0.0,0.0,0.0,0.0,0.0,0.0,0.0,0.0,0.0,0.0,0.0,0.0,0.0,0.0,0.0,0.0,0.0,0.0,0.0,0.37,0.3937,0.3986,0.4196,0.4376,0.4461,0.4531,0.4572,0.4572,0.4518,0.4471,0.445,0.4447,0.4422,0.4362,0.436,0.4343,0.4308,0.4308,0.4375,0.4507,0.4708,0.4842,0.4977,0.5111,0.558,0.6313,0.6978,0.7712,0.8446,0.9053,0.936,0.9348,0.9145,0.9014,0.0,0.0,0.0,0.0,0.0,1.1035,1.1776,1.1776,1.1654,1.1468,1.1281,1.111,1.0932,1.0745,1.0688,1.0688,1.0688,1.0509,1.0298,1.0245,0.9973,0.9754,0.9648,0.9575,0.9575,0.9575,0.9575,0.9575,0.9385,0.9145,0.0,0.8175,0.7158,0.6361,0.6308,0.6296,0.6296,0.6296,0.6118,0.6157,0.6643,0.6567,0.6639,0.6964,0.7046,0.0,0.0,0.0,0.6341,0.6245,0.635,0.0,0.0,0.0,0.0,0.0,0.0,0.0,0.0,0.459,0.4621,0.0,0.0,0.0,0.0,0.0,0.0,0.0,0.0,0.0,0.0,0.0,0.0,0.0,0.0,0.0,0.0,0.3951,0.4185,0.4303,0.4376,0.4455,0.4561,0.4572,0.457,0.4564,0.4507,0.445,0.4392,0.4387,0.4365,0.4311,0.0,0.0,0.0,0.0,0.4507,0.4839,0.5312,0.5714,0.6113,0.6451,0.7049,0.7779,0.8518,0.9172,0.9811,1.0411,1.061,1.0582,1.0488,1.0343,1.0087,0.8703,0.8509,0.9201,1.0422,1.1277,1.1776,1.1776,0.0,0.0,1.1281,1.111,1.0932,1.0745,1.0688,1.0688,1.0688,1.0436,1.0212,1.0212,0.99,0.9575,0.9575,0.9575,0.9575,0.9575,0.9575,0.9575,0.9575,0.9494,0.9371,0.9129,0.8252,0.75,0.7296,0.7275,0.7275,0.7275,0.7092,0.718,0.7577,0.0,0.0,0.7462,0.7273,0.6993,0.6686,0.6542,0.6455,0.6475,0.6656,0.6656,0.6475,0.617,0.5949,0.5853,0.5853,0.5853,0.5845,0.5654,0.5536,0.0,0.0,0.0,0.0,0.0,0.0,0.0,0.0,0.0,0.0,0.0,0.0,0.0,0.0,0.0,0.3858,0.4076,0.4297,0.4371,0.4471,0.4548,0.457,0.4572,0.4553,0.4504,0.4447,0.439,0.433,0.4324,0.4319,0.4308,0.4308,0.4308,0.4308,0.4308,0.4644,0.5245,0.5912,0.651,0.7183,0.0,0.0,0.9244,0.9975,1.0577,1.1178,1.1862,1.2098,1.1893,1.1721,1.1549,1.1339,1.0289,1.0086,1.0482,1.1027,1.1466,1.1776,1.1776,1.1654,1.1468,1.1281,1.111,1.0932,1.0745,1.0688,0.0,1.0688,1.0436,1.0212,1.0212,0.99,0.9575,0.9575,0.9575,0.9575,0.9575,0.9575,0.9575,0.9575,0.96,0.947,0.9153,0.8804,0.8493,0.8328,0.8296,0.8296,0.8296,0.8252,0.8296,0.8384,0.8005,0.78,0.7892,0.7597,0.7333,0.7088,0.6941,0.69,0.6903,0.6939,0.6939,0.6903,0.683,0.6763,0.6763,0.6763,0.6763,0.672,0.6271,0.5974,0.0,0.0,0.0,0.0,0.0,0.0,0.0,0.0,0.0,0.0,0.0,0.5021,0.4766,0.0,0.3886,0.3978,0.4218,0.4406,0.4436,0.4518,0.4583,0.4616,0.4591,0.4551,0.4488,0.4431,0.4373,0.4313,0.4308,0.4375,0.4574,0.4708,0.491,0.5111,0.5245,0.5714,0.6447,0.7183,0.7846,0.8579,0.931,0.9915,1.0445,1.0975,1.1417,1.1782,1.2283,1.2337,1.215,1.1979,1.1849,1.1776,1.1224,1.1163,1.1345,1.1466,1.1647,1.176,1.1671,1.1516,1.133,1.1151,1.0972,1.081,1.072,1.0688,1.0688,1.0688,1.0436,1.0212,1.0212,0.99,0.9575,0.9575,0.9575,0.9575,0.9575,0.9575,0.9575,0.9575,0.9575,0.9518,0.9161,0.9023,0.8869,0.8653,0.8612,0.8612,0.8612,0.8612,0.8612,0.8612,0.8316,0.8113,0.8024,0.7683,0.7407,0.7199,0.722,0.7216,0.709,0.709,0.709,0.709,0.7037,0.6988,0.6988,0.7077,0.709,0.709,0.6937,0.6708,0.0,0.0,0.0,0.0,0.0,0.0,0.0,0.0,0.693,0.6704,0.5616,0.476,0.463,0.427,0.4074,0.4134,0.4335,0.448,0.4469,0.4529,0.4589,0.4624,0.4586,0.4531,0.4471,0.4425,0.4373,0.4313,0.4308,0.4507,0.4906,0.5379,0.5781,0.618,0.6581,0.7183,0.7912,0.8651,0.9383,1.0047,1.0784,1.1247,1.1512,1.1843,1.1999,1.205,1.217,1.2117,1.1971,1.1833,1.1776,1.1776,1.1776,1.1776,1.1776,1.1776,1.1776,1.1752,1.1565,1.1378,1.1191,1.1021,1.0842,1.0688,1.0688,1.0688,1.0688,1.0688,1.0436,1.0212,1.0212,0.99,0.9575,0.9575,0.9575,0.9575,0.9575,0.9575,0.9575,0.9575,0.9575,0.9518,0.9161,0.9096,0.8974,0.8661,0.8612,0.8612,0.8612,0.8612,0.8612,0.8612,0.8398,0.8203,0.7983,0.7699,0.7464,0.7285,0.7407,0.7423,0.7285,0.7277,0.7277,0.7277,0.7167,0.7094,0.7094,0.7204,0.7277,0.7277,0.7415,0.7293,0.7095,0.7289,0.7102,0.693,0.6979,0.6958,0.0,0.0,0.702,0.5982,0.535,0.4829,0.4501,0.4213,0.4136,0.4196,0.4362,0.4466,0.4414,0.4504,0.4556,0.4507,0.4496,0.4471,0.4414,0.4401,0.4373,0.4313,0.4308,0.4577,0.5312,0.5912,0.6577,0.7312,0.7979,0.8712,0.9377,1.0107,1.0843,1.1578,1.2239,1.2568,1.2634,1.2642,1.2523,1.2257,1.1979,1.1825,1.1801,1.1784,1.1776,1.1776,1.1776,1.1776,1.1776,1.1776,1.1776,1.1752,1.1565,1.1378,1.1191,1.1021,1.0842,1.0688,1.0688,1.0688,1.0688,1.0688,1.0436,1.0212,1.0212,0.99,0.9575,0.9575,0.9575,0.9575,0.9575,0.9575,0.9575,0.9575,0.9575,0.9518,0.9161,0.9096,0.8974,0.8661,0.8612,0.8612,0.8612,0.8612,0.8612,0.8612,0.8398,0.8154,0.7861,0.7788,0.769,0.7464,0.7472,0.7472,0.7456,0.7456,0.7456,0.7456,0.7431,0.7461,0.7461,0.7447,0.7456,0.7456,0.7472,0.7395,0.7272,0.7278,0.6872,0.0,0.6447,0.6049,0.6041,0.6125,0.6087,0.553,0.4919,0.4437,0.4279,0.424,0.424,0.0,0.4362,0.4425,0.4401,0.4442,0.4463,0.4436,0.4401,0.4384,0.4398,0.4398,0.4442,0.458,0.4775,0.5379,0.625,0.7183,0.8051,0.8778,0.9443,1.0047,1.0512,1.1042,1.1578,1.2107,1.2576,1.2774,1.2774,1.2774,1.2645,1.2288,1.1931,1.1776,1.1776,1.1776,1.1776,1.1776,1.1776,1.1776,1.1776,1.1776,1.1711,1.1589,1.1403,1.1224,1.1045,1.0867,1.0753,1.0688,1.0688,1.0688,1.0688,1.0688,1.0436,1.0212,1.0212,0.99,0.9575,0.9575,0.9575,0.9575,0.9575,0.9575,0.9575,0.9575,0.9543,0.9388,0.9137,0.9007,0.8852,0.8653,0.8612,0.8612,0.8612,0.8612,0.8612,0.8612,0.8398,0.8227,0.8122,0.7918,0.7763,0.769,0.7584,0.748,0.748,0.748,0.748,0.748,0.748,0.748,0.748,0.748,0.7575,0.7682,0.7682,0.766,0.7276,0.7014,0.0,0.6528,0.5855,0.5319,0.5462,0.5459,0.5309,0.5208,0.4718,0.4371,0.4547,0.4676,0.4793,0.4678,0.467,0.4646,0.4507,0.4455,0.4392,0.4376,0.4319,0.4305,0.4501,0.4425,0.4538,0.491,0.5359,0.6156,0.7383,0.8518,0.9516,1.0246,1.0916,1.138,1.1644,1.1909,1.2173,1.2437,1.27,1.2774,1.2832,1.2669,1.2548,1.2288,1.1931,1.1776,1.1776,1.1776,1.1776,1.1776,1.1776,1.1776,1.1776,1.1776,1.1663,1.1476,1.1289,1.111,1.0996,1.0753,1.0688,1.0688,1.0688,1.0688,1.0688,1.0688,1.0436,1.0212,1.0212,0.99,0.9575,0.9575,0.9575,0.9575,0.9575,0.9575,0.9575,0.9575,0.9478,0.9347,0.9129,0.8942,0.8763,0.8637,0.8612,0.8612,0.8612,0.8612,0.8612,0.8612,0.849,0.8349,0.8292,0.8098,0.7902,0.7804,0.7673,0.7575,0.7488,0.748,0.748,0.748,0.748,0.748,0.748,0.7575,0.7665,0.7804,0.7845,0.7894,0.7084,0.0,0.6033,0.5815,0.539,0.5072,0.4857,0.5054,0.5136,0.4977,0.4929,0.5045,0.5426,0.5811,0.5956,0.5711,0.5464,0.5181,0.4842,0.4564,0.4376,0.4316,0.4256,0.4375,0.4769,0.4455,0.451,0.5309,0.5903,0.6942,0.8446,0.9842,1.0975,1.171,1.2371,1.2774,1.2774,1.2774,1.2774,1.2766,1.2774,1.2774,1.2758,1.2483,1.232,1.2288,1.1931,1.1776,1.1776,1.1776,1.1776,1.1776,1.1776,1.1776,1.1776,1.1776,1.1663,1.1476,1.1289,1.111,1.0996,1.0753,1.0688,1.0688,1.0688,1.0688,1.0688,1.0688,1.0436,1.0212,1.0212,0.99,0.9575,0.9575,0.9575,0.9575,0.9575,0.9575,0.9575,0.9575,0.9478,0.9347,0.9129,0.8942,0.8763,0.8637,0.8612,0.8612,0.8612,0.8612,0.8612,0.8612,0.8604,0.8531,0.8308,0.8276,0.813,0.782,0.7796,0.7706,0.7488,0.748,0.748,0.748,0.748,0.748,0.748,0.7706,0.7796,0.7804,0.7927,0.8008,0.6475,0.0,0.498,0.5039,0.4538,0.4073,0.416,0.4285,0.4413,0.4742,0.5193,0.5644,0.6139,0.6772,0.7126,0.6914,0.6362,0.5782,0.557,0.4861,0.433,0.4311,0.4253,0.0,0.5036,0.4951,0.0,0.6376,0.7284,0.8342,0.9576,1.0777,1.1644,1.2114,1.2576,1.2774,1.2774,1.2774,1.2774,1.2774,1.2774,1.2774,1.2766,1.2588,1.2418,1.2296,1.2052,1.1882,1.1776,1.1776,1.1776,1.1776,1.1776,1.1776,1.1776,1.1776,1.1581,1.1305,1.124,1.1029,1.0777,1.0712,1.0688,1.0688,1.0688,1.0688,1.0688,1.0688,1.0436,1.0212,1.0212,0.99,0.9575,0.9575,0.9575,0.9575,0.9575,0.9575,0.9575,0.9575,0.9388,0.9169,0.9104,0.8852,0.8633,0.862,0.8612,0.8612,0.8612,0.8612,0.8612,0.8612,0.8612,0.8588,0.8522,0.8357,0.8187,0.7943,0.7861,0.7714,0.7488,0.748,0.748,0.748,0.748,0.7584,0.7706,0.7771,0.7918,0.8113,0.817,0.826,0.5596,0.4832,0.4216,0.4324,0.3963,0.3574,0.3982,0.4163,0.4392,0.5005,0.5706,0.6419,0.6896,0.7648,0.8027,0.7504,0.6823,0.6227,0.5926,0.5162,0.4711,0.4842,0.4917,0.5277,0.0,0.0,0.0,0.7455,0.8651,0.9726,1.0704,1.1644,1.2246,1.2444,1.27,1.2774,1.2774,1.2774,1.2774,1.2774,1.2774,1.2774,1.2832,1.2645,1.2467,1.2296,1.2109,1.1931,1.1776,1.1776,1.1776,1.1776,1.1776,1.1776,1.1776,1.1776,1.1541,1.1224,1.1224,1.0988,1.0688,1.0688,1.0688,1.0688,1.0688,1.0688,1.0688,1.0688,1.0436,1.0212,1.0212,0.99,0.9575,0.9575,0.9575,0.9575,0.9575,0.9575,0.9575,0.9575,0.9388,0.9169,0.9104,0.8804,0.8612,0.8612,0.8612,0.8612,0.8612,0.8612,0.8612,0.8612,0.8612,0.8612,0.8612,0.8506,0.8284,0.8024,0.791,0.778,0.7496,0.748,0.748,0.748,0.7584,0.7682,0.7796,0.7926,0.8106,0.8292,0.8357,0.8498,0.4445,0.3963,0.3743,0.3746,0.3605,0.3625,0.4171,0.4574,0.5008,0.5705,0.6574,0.7358,0.0,0.0,0.8506,0.7509,0.693,0.6395,0.5912,0.5601,0.558,0.0,0.0,0.0,0.0,0.0,0.0,0.8535,0.0,1.1011,1.1769,1.2444,1.2774,1.2774,1.2774,1.2774,1.2774,1.2774,1.2774,1.2774,1.2774,1.2774,1.2832,1.2653,1.2475,1.2296,1.2117,1.1939,1.1776,1.1776,1.1776,1.1776,1.1776,1.1776,1.1776,1.1776,1.1541,1.1224,1.1224,1.0988,1.0688,1.0688,1.0688,1.0688,1.0688,1.0688,1.0688,1.068,1.0428,1.0212,1.0204,0.9892,0.9575,0.9575,0.9575,0.9575,0.9575,0.9575,0.9575,0.9575,0.9478,0.9347,0.9112,0.8804,0.862,0.8612,0.8612,0.8612,0.8612,0.8612,0.8612,0.8612,0.8612,0.8612,0.8612,0.8612,0.8406,0.8032,0.8016,0.7862,0.7512,0.7496,0.7504,0.7512,0.7722,0.782,0.7829,0.8122,0.8292,0.8308,0.8531,0.8612,0.3351,0.2879,0.2557,0.3057,0.3165,0.338,0.4412,0.4955,0.549,0.6296,0.7262,0.8028,0.0,0.0,0.0,0.8189,0.7021,0.0,0.6553,0.6324,0.0,0.7049,0.0,0.8214,0.8901,0.9655,0.0,0.0,1.125,1.1666,1.2173,1.2576,1.2774,1.2774,1.2774,1.2774,1.2774,1.2774,1.2774,1.2774,1.2774,1.2774,1.2766,1.2791,1.2596,1.2304,1.2255,1.206,1.1776,1.1776,1.1776,1.1776,1.1776,1.1776,1.1776,1.1776,1.1541,1.1224,1.1224,1.0988,1.0688,1.0688,1.0688,1.0688,1.0688,1.0688,1.0664,1.0534,1.0339,1.018,1.0041,0.9795,0.9575,0.9575,0.9575,0.9575,0.9575,0.9575,0.9575,0.9575,0.9478,0.9306,0.8942,0.882,0.8714,0.8629,0.8612,0.8612,0.8612,0.8612,0.8612,0.8612,0.8612,0.8612,0.8612,0.8612,0.8406,0.8032,0.8016,0.7918,0.7739,0.7731,0.7788,0.7878,0.7927,0.8016,0.8154,0.8243,0.8357,0.8539,0.8588,0.8612,0.2762,0.237,0.2145,0.2839,0.3043,0.3461,0.4742,0.5442,0.6056,0.6865,0.7674,0.0,0.8421,0.8459,0.0,0.0,0.0,0.0,0.7134,0.722,0.7592,0.0,0.9048,0.0,1.0189,1.0778,1.1374,0.0,1.2119,1.2312,1.251,1.2708,1.2774,1.2774,1.2774,1.2774,1.2774,1.2774,1.2774,1.2774,1.2774,1.2791,1.2718,1.2718,1.2523,1.2182,0.0,1.2028,1.1776,1.1776,1.1776,1.1776,1.1776,1.1776,1.1776,1.1776,1.1541,1.1224,1.1224,1.0988,1.0688,1.0688,1.0688,1.0688,1.0688,1.0688,1.0655,1.0485,1.0306,1.0171,0.9933,0.9754,0.9575,0.9575,0.9575,0.9575,0.9575,0.9575,0.9575,0.9575,0.9478,0.9339,0.9088,0.8926,0.8787,0.869,0.8617,0.8612,0.8612,0.8612,0.8612,0.8612,0.8612,0.8612,0.8612,0.8612,0.8406,0.8032,0.8089,0.8024,0.7812,0.7869,0.7918,0.8008,0.8097,0.8187,0.8292,0.8373,0.8506,0.8612,0.8612,0.8612,0.2426,0.2196,0.2149,0.2904,0.3207,0.3761,0.5058,0.5936,0.6659,0.7347,0.0,0.8195,0.8182,0.8139,0.7949,0.7399,0.0,0.7245,0.7666,0.8236,0.8967,0.9738,1.0505,1.1115,1.138,1.171,1.2041,1.2305,1.2634,1.2774,1.2774,1.2774,1.2774,1.2774,1.2774,1.2774,1.2774,1.2774,1.2774,1.2774,1.2774,1.2751,1.2596,1.2596,1.2402,1.2069,1.2069,1.1955,1.1776,1.1776,1.1776,1.1776,1.1776,1.1776,1.1776,1.1776,1.1541,1.1224,1.1224,1.0988,1.0688,1.0688,1.0688,1.0688,1.0688,1.068,1.0623,1.0452,1.0266,1.0131,0.99,0.9738,0.9575,0.9575,0.9575,0.9575,0.9575,0.9575,0.9575,0.9575,0.9502,0.9429,0.9404,0.9096,0.8877,0.8828,0.8698,0.8637,0.8612,0.8612,0.8612,0.8612,0.8612,0.8612,0.8612,0.8612,0.8422,0.8073,0.8203,0.8154,0.7886,0.7967,0.8065,0.8089,0.8243,0.8325,0.8325,0.8531,0.8612,0.8612,0.8612,0.8612,0.2144,0.2135,0.2307,0.3101,0.3699,0.4332,0.5528,0.6584,0.0,0.0,0.796,0.8261,0.8213,0.7654,0.7285,0.7418,0.0,0.0,0.0,0.0,1.0357,0.0,0.0,0.0,0.0,0.0,0.0,0.0,0.0,1.2774,1.2774,1.2774,1.2774,1.2774,1.2774,1.2774,1.2774,1.2774,1.2774,1.2774,1.2774,1.2824,1.2791,1.2791,1.2596,1.2255,1.2255,0.0,1.1776,1.1776,1.1776,1.1776,1.1776,1.1776,1.1776,1.1776,1.1541,1.1224,1.1224,1.0988,1.0688,1.0688,1.0688,1.0688,1.0688,1.059,1.0444,1.0257,1.0079,0.9892,0.9721,0.9648,0.9575,0.9575,0.9575,0.9575,0.9575,0.9575,0.9575,0.9575,0.96,0.9535,0.9429,0.9347,0.9161,0.8869,0.8796,0.8723,0.8629,0.8612,0.8612,0.8612,0.8612,0.8612,0.8612,0.8612,0.8514,0.826,0.8276,0.826,0.8203,0.8227,0.8316,0.8514,0.8547,0.8563,0.8563,0.8596,0.8612,0.8612,0.8612,0.8612,0.2342,0.2464,0.2764,0.3673,0.4322,0.5034,0.6058,0.0,0.0,0.0,0.7897,0.8023,0.7947,0.7483,0.0,0.0,0.0,0.0,0.0,0.0,0.0,0.0,0.0,0.0,0.0,0.0,0.0,0.0,0.0,1.2774,1.2774,1.2774,1.2774,1.2774,1.2774,1.2774,1.2774,1.2774,1.2774,1.2774,1.2774,1.2783,1.2694,1.2694,1.2499,1.2158,1.2158,1.2012,1.1776,1.1776,1.1776,1.1776,1.1776,1.1776,1.1768,1.1671,1.1459,1.1208,1.1118,1.0915,1.0688,1.0688,1.0688,1.0688,1.0688,1.0631,1.0509,1.0294,1.0147,0.9965,0.9697,0.9575,0.9575,0.9575,0.9575,0.9575,0.9575,0.9575,0.9575,0.9575,0.9575,0.96,0.951,0.9469,0.9347,0.912,0.8942,0.8787,0.8706,0.8625,0.8612,0.8612,0.8612,0.8612,0.8612,0.8612,0.8531,0.83,0.8381,0.839,0.8292,0.8381,0.8522,0.8612,0.8612,0.8612,0.8612,0.8612,0.8612,0.8612,0.8612,0.8612,0.258,0.2966,0.3463,0.4395,0.5208,0.5872,0.6547,0.7162,0.0,0.0,0.7687,0.7668,0.7723,0.0,0.7389,0.0,0.0,0.0,0.0,0.0,0.0,0.0,0.0,0.0,0.0,0.0,0.0,0.0,0.0,0.0,1.2774,1.2774,1.2774,1.2774,1.2774,1.2774,1.2774,1.2774,1.2774,1.2774,1.2774,1.2759,1.2621,1.258,1.2393,1.2085,1.2044,0.0,1.1776,1.1776,1.1776,1.1776,1.1776,1.1776,1.1752,1.1565,1.1378,1.12,1.1029,1.085,1.0688,1.0688,1.0688,1.0688,1.0688,1.0664,1.0582,1.0298,1.0212,1.0038,0.9754,0.9657,0.9575,0.9575,0.9575,0.9575,0.9575,0.9575,0.9575,0.9575,0.9575,0.9575,0.9575,0.951,0.9453,0.9412,0.9112,0.8909,0.8828,0.8706,0.8653,0.8612,0.8612,0.8612,0.8612,0.8612,0.8547,0.8357,0.8531,0.8547,0.8357,0.8531,0.8612,0.8612,0.8612,0.8612,0.8612,0.8612,0.8612,0.8612,0.8612,0.8612,0.2775,0.3415,0.4143,0.5247,0.6287,0.7059,0.7112,0.0,0.0,0.7421,0.7297,0.7382,0.7724,0.7603,0.7684,0.0,0.0,0.9437,0.0,0.0,0.0,0.0,0.0,0.0,0.0,0.0,0.0,0.0,0.0,0.0,1.2774,1.2774,1.2774,1.2774,1.2774,1.2774,1.2774,1.2774,1.2774,1.2774,1.2774,1.2766,1.2808,1.2637,1.2458,1.2272,1.2101,0.0,0.0,1.1776,1.1776,1.1776,1.1776,1.1776,1.1752,1.1565,1.1378,1.12,1.1029,1.085,1.0688,1.0688,1.0688,1.0688,1.0688,1.0582,1.0399,1.0366,1.0168,0.99,0.9868,0.9746,0.9575,0.9575,0.9575,0.9575,0.9575,0.9575,0.9575,0.9575,0.9575,0.9575,0.9575,0.9616,0.9543,0.9429,0.9371,0.9233,0.8861,0.8804,0.8739,0.8629,0.8612,0.8612,0.8612,0.8612,0.8604,0.8588,0.8604,0.8604,0.8588,0.8604,0.8612,0.8612,0.8612,0.8612,0.8612,0.8612,0.8612,0.8612,0.8612,0.8612,0.3954,0.4671,0.5416,0.631,0.7101,0.7633,0.7477,0.0,0.7753,0.7362,0.7328,0.7423,0.7608,0.7567,0.765,0.8154,0.8503,0.895,0.9632,0.0,0.0,0.0,0.0,0.0,0.0,0.0,0.0,0.0,0.0,0.0,1.2774,1.2774,1.2774,1.2774,1.2774,1.2774,1.2774,1.2774,1.2774,1.2774,1.2774,1.2783,1.267,1.2596,1.241,1.2134,1.1999,0.0,0.0,1.1776,1.1776,1.1776,1.1776,1.1776,1.1744,1.1443,1.1289,1.1183,1.0899,1.0753,1.0688,1.0688,1.0688,1.0688,1.0688,1.0647,1.0542,1.0331,1.0168,0.9998,0.9786,0.9681,0.9575,0.9575,0.9575,0.9575,0.9575,0.9575,0.9575,0.9575,0.9575,0.9575,0.9575,0.9575,0.96,0.9527,0.9477,0.9314,0.9015,0.8885,0.8755,0.8629,0.8612,0.8612,0.8612,0.8612,0.8612,0.8612,0.8612,0.8612,0.8612,0.8612,0.8612,0.8612,0.8612,0.8612,0.8612,0.8612,0.8612,0.8612,0.8612,0.8612,0.5128,0.5872,0.6587,0.7187,0.7743,0.8066,0.0,0.7695,0.7656,0.734,0.7375,0.7423,0.7472,0.7439,0.7504,0.7805,0.8057,0.8446,0.9137,0.9632,0.0,0.0,0.0,0.0,0.0,0.0,0.0,0.0,0.0,0.0,1.2678,1.2678,1.2726,1.2832,1.2774,1.2774,1.2774,1.2774,1.2774,1.2774,1.2783,1.2686,1.262,1.2458,1.2272,1.2028,1.1979,0.0,0.0,1.1776,1.1776,1.1776,1.1776,1.1776,1.1736,1.1362,1.1224,1.1167,1.0818,1.0688,1.0688,1.0688,1.0688,1.0688,1.0688,1.0655,1.0566,1.0314,1.0212,1.0014,0.9705,0.9575,0.9575,0.9575,0.9575,0.9575,0.9575,0.9575,0.9575,0.9575,0.9575,0.9575,0.9575,0.9575,0.9575,0.9575,0.9518,0.9356,0.9129,0.8982,0.882,0.8637,0.8612,0.8612,0.8612,0.8612,0.8612,0.8612,0.8612,0.8612,0.8612,0.8612,0.8637,0.8641,0.8641,0.8666,0.8767,0.8767,0.8767,0.8767,0.8767,0.8767,0.5965,0.6808,0.7541,0.7927,0.8224,0.837,0.0,0.7664,0.7473,0.7311,0.725,0.7285,0.7447,0.7342,0.7285,0.7456,0.7789,0.8081,0.8276,0.8963,0.0,0.0,0.0,0.0,0.0,0.0,0.0,0.0,0.0,0.0,1.2312,1.2312,1.2475,1.2758,1.2774,1.2774,1.2774,1.2774,1.2774,1.2766,1.2653,1.2628,1.2612,1.2199,1.1974,1.202,0.0,0.0,0.0,1.1776,1.1776,1.1776,1.1776,1.1776,1.1736,1.1362,1.1224,1.1167,1.0818,1.0688,1.0688,1.0688,1.0688,1.0688,1.0688,1.0574,1.0383,1.0383,1.0168,0.9851,0.9673,0.9575,0.9575,0.9575,0.9575,0.9575,0.9575,0.9575,0.9575,0.9575,0.9575,0.9575,0.9575,0.9575,0.9575,0.9575,0.9575,0.9494,0.9145,0.9096,0.8958,0.8653,0.8612,0.8612,0.8612,0.8612,0.8612,0.8612,0.8612,0.8612,0.8612,0.8612,0.8649,0.8812,0.882,0.8909,0.9088,0.9088,0.9088,0.9088,0.9088,0.9088,0.6793,0.7371,0.7877,0.7954,0.8164,0.8194,0.7638,0.7515,0.7436,0.7212,0.7289,0.7415,0.7472,0.7439,0.7464,0.7682,0.7804,0.0,0.0,0.0,0.0,0.0,0.0,0.0,0.0,0.0,0.0,0.0,0.0,0.0,1.2304,1.2304,1.2361,1.2467,1.2475,1.2475,1.2475,1.2475,1.2475,1.2475,1.2418,1.232,1.219,1.2077,1.1963,0.0,0.0,0.0,0.0,1.1776,1.1776,1.1776,1.1776,1.1703,1.1557,1.1313,1.1151,1.1013,1.0777,1.0688,1.0688,1.0688,1.0688,1.0688,1.0688,1.0574,1.0326,1.0128,0.9892,0.9697,0.9591,0.9575,0.9575,0.9575,0.9575,0.9575,0.9575,0.9575,0.9575,0.9575,0.9575,0.9575,0.9575,0.9575,0.9575,0.9575,0.9575,0.9543,0.9355,0.9322,0.9137,0.8779,0.8739,0.869,0.862,0.8612,0.8612,0.8612,0.8674,0.8739,0.8739,0.8861,0.8958,0.9007,0.9007,0.9039,0.9096,0.9096,0.9096,0.9096,0.9096,0.9096,0.7358,0.7744,0.7998,0.7865,0.7889,0.7849,0.7319,0.7225,0.7199,0.7035,0.718,0.7373,0.7373,0.7393,0.7423,0.7537,0.7649,0.0,0.0,0.0,0.0,0.0,0.0,0.0,0.0,0.0,0.0,0.0,0.0,0.0,1.2109,1.2109,1.2109,1.2109,1.2239,1.2304,1.2304,1.2304,1.2304,1.2304,1.2239,1.2142,1.2028,1.1963,1.1874,0.0,0.0,0.0,0.0,1.1776,1.1776,1.1776,1.1776,1.1663,1.1476,1.1289,1.1118,1.094,1.0753,1.0688,1.0688,1.0688,1.0688,1.068,1.0615,1.0469,1.0257,0.9892,0.9713,0.9575,0.9575,0.9575,0.9575,0.9575,0.9575,0.9575,0.9575,0.9575,0.9575,0.9575,0.9575,0.9575,0.9575,0.9575,0.9575,0.9575,0.9575,0.9559,0.9429,0.9404,0.929,0.8958,0.8926,0.8885,0.8779,0.8686,0.8637,0.8658,0.8763,0.8852,0.8926,0.9039,0.9129,0.9194,0.9194,0.9226,0.9299,0.9299,0.9299,0.9299,0.9299,0.9299,0.0,0.7868,0.788,0.7651,0.7468,0.7278,0.698,0.6854,0.0,0.6784,0.7023,0.718,0.718,0.7207,0.7215,0.7223,0.7407,0.0,0.0,0.0,0.0,0.0,0.0,0.0,0.0,0.0,0.0,0.0,0.0,0.0,1.1776,1.1776,1.1776,1.1776,1.2093,1.2272,1.2272,1.2272,1.2272,1.2264,1.2093,1.2012,1.2004,1.1849,1.1776,0.0,0.0,0.0,0.0,1.1776,1.1776,1.1776,1.176,1.1646,1.1459,1.1273,1.1094,1.0923,1.0753,1.0688,1.0688,1.0688,1.0688,1.0664,1.0485,1.0306,1.0139,0.9746,0.9583,0.9575,0.9575,0.9575,0.9575,0.9575,0.9575,0.9575,0.9575,0.9575,0.9575,0.9575,0.9575,0.9575,0.9575,0.9575,0.9575,0.9575,0.9575,0.9567,0.9445,0.942,0.9355,0.9137,0.912,0.9112,0.9096,0.8796,0.8674,0.8828,0.8852,0.8934,0.9104,0.9129,0.921,0.942,0.942,0.9453,0.9575,0.9575,0.9575,0.9575,0.9575,0.9575,0.7034,0.0,0.7509,0.7441,0.7305,0.7115,0.0,0.6777,0.677,0.6681,0.6941,0.718,0.718,0.7341,0.7472,0.7649,0.778,0.8016,0.0,0.0,0.0,0.0,0.0,0.0,0.0,0.0,0.0,0.0,0.0,1.1776,1.1776,1.1776,1.1776,1.1776,1.1857,1.1898,1.1898,1.1898,1.1898,1.1898,1.1857,1.1833,1.1833,1.1792,1.1776,0.0,0.0,0.0,1.1776,1.1776,1.1776,1.176,1.1622,1.1451,1.1265,1.1094,1.0915,1.0753,1.0704,1.0688,1.0688,1.0688,1.0688,1.0664,1.0485,1.0306,1.0163,0.9892,0.973,0.9575,0.9575,0.9575,0.9575,0.9575,0.9575,0.9575,0.9575,0.9575,0.9575,0.9575,0.9575,0.9575,0.9575,0.9575,0.9575,0.9575,0.9575,0.9616,0.9567,0.9559,0.9494,0.9363,0.9339,0.929,0.9104,0.9023,0.8991,0.9031,0.9153,0.9298,0.9339,0.9429,0.9518,0.9559,0.9559,0.9583,0.9575,0.9575,0.9575,0.9575,0.9575,0.9575,0.6742,0.7041,0.7251,0.7183,0.7109,0.6923,0.6661,0.6605,0.6552,0.6468,0.6718,0.6911,0.6911,0.718,0.7429,0.7605,0.7926,0.0,0.0,0.0,0.0,0.0,0.0,0.0,0.0,0.0,0.0,0.0,0.0,1.1776,1.1776,1.1776,1.1776,1.1776,1.1776,1.1776,1.1776,1.1776,1.1776,1.1776,1.1776,1.1776,1.1776,1.1776,1.1776,0.0,0.0,0.0,1.1776,1.1776,1.1776,1.176,1.1573,1.1386,1.12,1.1029,1.085,1.0688,1.0688,1.0688,1.0688,1.0688,1.0688,1.0672,1.0582,1.0428,1.0233,0.9957,0.9819,0.973,0.9599,0.9575,0.9575,0.9575,0.9575,0.9575,0.9575,0.9575,0.9575,0.9575,0.9575,0.9575,0.9575,0.9575,0.9575,0.9575,0.9575,0.9575,0.9575,0.9575,0.9592,0.9494,0.9478,0.9445,0.9348,0.934,0.9307,0.9218,0.9347,0.9437,0.9478,0.9575,0.9575,0.9575,0.9575,0.9575,0.9575,0.9575,0.9575,0.9575,0.9575,0.9575,0.662,0.6912,0.7071,0.6977,0.6937,0.6849,0.6634,0.0,0.0,0.0,0.0,0.6645,0.6666,0.6986,0.0,0.0,0.0,0.0,0.0,0.0,0.0,0.0,0.0,0.0,0.0,0.0,0.0,0.0,0.0,1.1776,1.1776,1.1776,1.1776,1.1776,1.1776,1.1776,1.1776,1.1776,1.1776,1.1776,1.1776,1.1776,1.1776,1.1776,1.1776,1.1776,0.0,0.0,1.1776,1.1776,1.176,1.1711,1.1533,1.1346,1.1159,1.0988,1.0826,1.0688,1.0688,1.0688,1.0688,1.0688,1.0688,1.0688,1.0688,1.059,1.0396,1.003,0.9908,0.9843,0.9673,0.9575,0.9575,0.9575,0.9575,0.9575,0.9575,0.9575,0.9575,0.9575,0.9575,0.9575,0.9575,0.9575,0.9575,0.9575,0.9575,0.9575,0.9575,0.9575,0.9575,0.9575,0.9575,0.9575,0.9575,0.9575,0.9559,0.9453,0.9445,0.947,0.9575,0.9575,0.9575,0.9575,0.9575,0.9575,0.9575,0.9575,0.9575,0.9575,0.9575,0.9575,0.662,0.6912,0.7125,0.7278,0.7204,0.7051,0.7004,0.6824,0.0,0.0,0.0,0.0,0.0,0.7323,0.7718,0.0,0.0,0.0,0.0,0.0,0.0,0.0,0.0,0.0,0.0,0.0,0.0,0.0,0.0,1.1776,1.1776,1.1776,1.1776,1.1776,1.1776,1.1776,1.1776,1.1776,1.1776,1.1776,1.1776,1.1776,1.1776,1.1776,1.1776,1.1776,0.0,1.1776,1.1776,1.1776,1.1687,1.1524,1.1338,1.1159,1.0988,1.0802,1.0712,1.0688,1.0688,1.0688,1.0688,1.0688,1.0688,1.0688,1.0688,1.0672,1.0574,1.0277,1.0006,0.9843,0.9673,0.9575,0.9575,0.9575,0.9575,0.9575,0.9575,0.9575,0.9575,0.9575,0.9575,0.9575,0.9575,0.9575,0.9575,0.9575,0.9575,0.9575,0.9575,0.9575,0.9575,0.9575,0.9575,0.9575,0.9575,0.9575,0.9616,0.9592,0.9583,0.96,0.9575,0.9575,0.9575,0.9575,0.9575,0.9575,0.9575,0.9575,0.9575,0.9575,0.9575,0.9575,0.662,0.6858,0.7038,0.7312,0.738,0.7366,0.7285,0.7034,0.6824,0.0,0.0,0.0,0.0,0.0,0.0,0.0,0.0,0.0,0.0,0.0,0.0,0.0,0.0,0.0,0.0,0.0,0.0,0.0,0.0,0.0,1.1776,1.1776,1.1776,1.1776,1.1776,1.1776,1.1776,1.1776,1.1776,1.1776,1.1776,1.1776,1.1776,1.1776,1.1776,1.1776,0.0,1.1776,1.1776,1.1776,1.1671,1.1484,1.1297,1.1118,1.1004,1.0761,1.0688,1.0688,1.0688,1.0688,1.0688,1.0688,1.0688,1.0688,1.0688,1.0688,1.0639,1.0379,1.0176,0.9973,0.9697,0.9575,0.9575,0.9575,0.9575,0.9575,0.9575,0.9575,0.9575,0.9575,0.9575,0.9575,0.9575,0.9575,0.9575,0.9575,0.9575,0.9575,0.9575,0.9575,0.9575,0.9575,0.9575,0.9575,0.9575,0.9575,0.9575,0.9575,0.9575,0.9575,0.9575,0.9575,0.9575,0.9575,0.9575,0.9575,0.9575,0.9575,0.9575,0.9575,0.9575,0.9575,0.658,0.6729,0.6898,0.7238,0.7434,0.7522,0.7441,0.7224,0.7041,0.0,0.0,0.0,0.0,0.0,0.0,0.0,0.0,0.0,0.0,0.0,0.0,0.0,0.0,0.0,0.0,0.0,0.0,0.0,0.0,0.0,1.1711,1.1711,1.1695,1.1646,1.1687,1.1711,1.1711,1.1752,1.1776,1.1776,1.1776,1.1776,1.1776,1.1776,1.1752,1.1711,1.1711,1.1687,1.1646,1.1646,1.1541,1.1362,1.1216,1.1053,1.0883,1.0745,1.0688,1.0688,1.0688,1.0688,1.0688,1.0688,1.0688,1.0688,1.0688,1.0688,1.0655,1.0485,1.0331,1.0152,0.9835,0.9754,0.9738,0.9697,0.9689,0.9673,0.9583,0.9575,0.9575,0.9575,0.9575,0.9575,0.9575,0.9575,0.9575,0.9575,0.9575,0.9575,0.9575,0.9575,0.9575,0.9575,0.9575,0.9575,0.9575,0.9575,0.9575,0.9575,0.9575,0.9575,0.9575,0.9575,0.9575,0.9575,0.9575,0.9575,0.9575,0.9575,0.9575,0.9575,0.9575,0.9575,0.6491,0.6538,0.6607,0.7004,0.7272,0.7421,0.7556,0.7455,0.738,0.7522,0.0,0.0,0.0,0.0,0.0,0.0,0.0,0.0,0.0,0.0,0.0,0.0,0.0,0.0,0.0,0.0,0.0,0.0,0.0,0.0,1.1533,1.1516,1.1443,1.1265,1.1427,1.1516,1.1516,1.1695,1.1776,1.1776,1.1776,1.1776,1.1776,1.1776,1.1687,1.1516,1.1516,1.1419,1.1265,1.1265,1.1159,1.1005,1.0997,1.0875,1.0712,1.0696,1.0688,1.0688,1.0688,1.0688,1.0688,1.0688,1.0688,1.0688,1.0688,1.0688,1.0655,1.0485,1.0375,1.0371,1.0176,1.018,1.0131,0.9908,0.9868,0.9819,0.9665,0.9575,0.9575,0.9575,0.9575,0.9575,0.9575,0.9575,0.9575,0.9575,0.9575,0.9575,0.9575,0.9575,0.9575,0.9575,0.9575,0.9575,0.9575,0.9575,0.9575,0.9575,0.9575,0.9575,0.9575,0.9575,0.9575,0.9575,0.9575,0.9575,0.9575,0.9575,0.9575,0.9575,0.9575,0.9575,0.6573,0.6546,0.6559,0.6876,0.7078,0.0,0.0,0.7685,0.7685,0.7841,0.7828,0.0,0.0,0.0,0.0,0.0,0.0,0.0,0.0,0.0,0.0,0.0,0.0,0.0,0.0,0.0,0.0,0.0,0.0,0.0,1.133,1.133,1.1297,1.1224,1.1289,1.133,1.133,1.1395,1.1435,1.1435,1.1663,1.1719,1.1606,1.1719,1.1671,1.15,1.15,1.1395,1.1224,1.1224,1.1126,1.1012,1.0842,1.0753,1.0688,1.0688,1.0688,1.0688,1.0688,1.0688,1.0688,1.0688,1.0688,1.0688,1.0688,1.0688,1.068,1.0615,1.0599,1.0526,1.0294,1.0212,1.0163,0.9933,0.9884,0.9835,0.9665,0.9575,0.9575,0.9575,0.9575,0.9575,0.9575,0.9575,0.9575,0.9575,0.9575,0.9575,0.9575,0.9575,0.9575,0.9575,0.9721,0.9835,0.9949,0.9957,0.9957,0.9957,0.9754,0.9673,0.9786,0.9786,0.9843,0.9957,0.9957,0.9957,0.9957,0.9843,0.9786,0.9786,0.9681,0.9575,0.6661,0.6559,0.6532,0.6844,0.0,0.0,0.7706,0.7848,0.7929,0.8079,0.8147,0.8167,0.8119,0.0,0.0,0.0,0.0,0.0,0.0,0.0,0.0,0.0,0.0,0.0,0.0,0.0,0.0,0.0,0.0,0.0,0.0,1.1143,1.1118,1.1053,1.111,1.1143,1.1143,1.1191,1.1191,1.1143,1.1451,1.1533,1.1419,1.1541,1.15,1.133,1.133,1.1224,1.1053,1.1053,1.0988,1.0867,1.0745,1.0688,1.0688,1.0688,1.0688,1.0688,1.0688,1.0688,1.0688,1.0688,1.0688,1.0688,1.0688,1.0688,1.0688,1.0688,1.0688,1.0639,1.0449,1.0384,1.0335,1.0103,1.0054,1.0006,0.9835,0.9795,0.9795,0.9795,0.9795,0.9778,0.9721,0.9705,0.9689,0.9583,0.9575,0.9575,0.9575,0.9575,0.9599,0.9705,0.9811,0.9957,1.0196,1.0212,1.0212,1.0212,0.9933,0.9851,0.9965,0.9973,1.0082,1.0212,1.0212,1.0212,1.0212,1.0082,0.9973,0.9973,0.9851,0.9795,0.6661,0.6485,0.6409,0.6817,0.0,0.0,0.7712,0.788,0.8035,0.8241,0.8384,0.8438,0.8354,0.0,0.0,0.0,0.0,0.0,0.0,0.0,0.0,0.0,0.0,0.0,0.0,0.0,0.0,0.0,0.0,0.0,0.0,1.102,1.0939,1.0696,1.0875,1.102,1.102,1.1135,1.1135,1.1028,1.1135,1.1216,1.1224,1.1224,1.1126,1.1028,1.1028,1.0867,1.0688,1.0688,1.0688,1.0688,1.0688,1.0688,1.0688,1.0688,1.0688,1.0688,1.0688,1.0688,1.0688,1.0688,1.0688,1.0688,1.0688,1.0688,1.0688,1.0688,1.0688,1.0688,1.0688,1.0688,1.0647,1.0477,1.0383,1.0387,1.0253,1.0212,1.0212,1.0212,1.0212,1.0155,0.9916,0.9884,0.9827,0.9657,0.9583,0.9583,0.9583,0.9575,0.9697,0.9868,0.9884,0.9965,1.0204,1.022,1.022,1.022,1.022,1.022,1.0212,1.0212,1.022,1.022,1.022,1.022,1.022,1.022,1.0212,1.0212,1.0212,1.0212,0.6688,0.6634,0.0,0.695,0.0,0.0,0.0,0.8167,0.0,0.0,0.8689,0.8628,0.8587,0.0,0.0,0.0,0.0,0.0,0.0,0.0,0.0,0.0,0.0,0.0,0.0,0.0,0.0,0.0,0.0,0.0,0.0,1.0777,1.0753,1.0696,1.0745,1.0777,1.0777,1.0826,1.0826,1.0777,1.0826,1.0915,1.1045,1.1167,1.1126,1.1028,1.1028,1.0867,1.0688,1.0688,1.0688,1.0688,1.0688,1.0688,1.0688,1.0688,1.0688,1.0688,1.0688,1.0688,1.0688,1.0688,1.0688,1.0688,1.0688,1.0688,1.0688,1.0688,1.0688,1.0688,1.0688,1.0688,1.0647,1.0477,1.0383,1.0387,1.0253,1.0212,1.0212,1.0212,1.0212,1.0196,1.0139,1.0131,1.0114,1.0014,1.0006,0.9957,0.9827,0.9705,0.9746,1.0046,1.0131,1.0201,1.0509,1.0534,1.0534,1.0534,1.0534,1.0477,1.0363,1.0355,1.0412,1.0534,1.0534,1.0534,1.0534,1.0412,1.0355,1.0355,1.0225,1.0212,0.6756,0.6831,0.0,0.7206,0.755,0.7882,0.8251,0.0,0.0,0.0,0.0,0.8784,0.8723,0.8682,0.0,0.0,0.0,0.0,0.0,0.0,0.0,0.0,0.0,0.0,0.0,0.0,0.0,0.0,0.0,0.0,0.0,1.0688,1.0688,1.0688,1.0688,1.0688,1.0688,1.0688,1.0688,1.0688,1.0688,1.0753,1.0858,1.0964,1.0956,1.0858,1.0858,1.0794,1.0688,1.0688,1.0688,1.0688,1.0688,1.0688,1.0688,1.0688,1.0688,1.0688,1.0688,1.0688,1.0688,1.0688,1.0688,1.0688,1.0688,1.0688,1.0688,1.0688,1.0688,1.0688,1.0688,1.0688,1.0664,1.0558,1.0542,1.0509,1.0396,1.0424,1.0424,1.0424,1.0424,1.0347,1.0282,1.0274,1.0249,1.0228,1.0212,1.0171,1.0006,0.99,0.9949,1.0241,1.0274,1.0387,1.0672,1.0688,1.0688,1.0688,1.0688,1.0647,1.0542,1.0542,1.0582,1.0688,1.0688,1.0688,1.0688,1.059,1.0542,1.0534,1.0428,1.0424,0.6824,0.0,0.0,0.7543,0.7862,0.0,0.8757,0.8832,0.8771,0.8858,0.0,0.8844,0.0,0.0,0.0,0.0,0.0,0.0,0.0,0.0,0.0,0.0,0.0,0.0,0.0,0.0,0.0,0.0,0.0,0.0,0.0,1.0688,1.0688,1.0688,1.0688,1.0688,1.0688,1.0688,1.0688,1.0688,1.0688,1.0688,1.0688,1.0688,1.0688,1.0688,1.0688,1.0688,1.0688,1.0688,1.0688,1.0688,1.0688,1.0688,1.0688,1.0688,1.0688,1.0688,1.0688,1.0688,1.0688,1.0688,1.0688,1.0688,1.0688,1.0688,1.0688,1.0688,1.0688,1.0688,1.0688,1.0688,1.0688,1.0688,1.0688,1.0688,1.0688,1.0688,1.0688,1.0688,1.0688,1.0639,1.0485,1.0407,1.0404,1.0233,1.0253,1.0237,1.0237,1.0228,1.0233,1.042,1.0383,1.0509,1.068,1.0688,1.0688,1.0688,1.0688,1.0688,1.0688,1.0688,1.0688,1.0688,1.0688,1.0688,1.0688,1.0688,1.0688,1.0688,1.0688,1.0688,0.6668,0.6896,0.0,0.0,0.8167,0.8628,0.8824,0.8858,0.8844,0.0,0.0,0.0,0.0,0.0,0.0,0.0,0.0,0.0,0.0,0.0,0.0,0.0,0.0,0.0,0.0,0.0,0.0,0.0,0.0,0.0,1.0688,1.0688,1.0688,1.0688,1.0688,1.0688,1.0688,1.0688,1.0688,0.0,1.0688,1.0688,1.0688,1.0688,1.0688,1.0688,1.0688,1.0688,1.0688,1.0688,1.0688,1.0688,1.0688,1.0688,1.0688,1.0688,1.0688,1.0688,1.0688,1.0688,1.0688,1.0688,1.0688,1.0688,1.0688,1.0688,1.0688,1.0688,1.0688,1.0688,1.0688,1.0688,1.0688,1.0688,1.0688,1.0688,1.0688,1.0688,1.0688,1.0688,1.0688,1.068,1.0639,1.0639,1.0623,1.0582,1.0461,1.0379,1.0379,1.0249,1.0233,1.042,1.0383,1.0509,1.068,1.0688,1.0688,1.0688,1.0688,1.0688,1.0688,1.0688,1.0688,1.0688,1.0688,1.0688,1.0688,1.0688,1.0688,1.0688,1.0688,1.0688,0.6633,0.0,0.0,0.7984,0.0,0.0,0.0,0.0,0.0,0.0,0.0,0.0,0.0,0.0,0.0,0.0,0.0,0.0,0.0,0.0,0.0,0.0,0.0,0.0,0.0,0.0,0.0,0.0,0.0,1.0688,1.0688,1.0688,1.0688,1.0688,1.0688,1.0688,1.0688,1.0688,1.0688,1.0688,1.0688,1.0688,1.0688,1.0688,1.0688,1.0688,1.0688,1.0688,1.0688,1.0688,1.0688,1.0688,1.0688,1.0688,1.0688,1.0688,1.0688,1.0688,1.0688,1.0688,1.0688,1.0688,1.0688,1.0688,1.0688,1.0688,1.0688,1.0688,1.0688,1.0688,1.0688,1.0688,1.0688,1.0688,1.0688,1.0688,1.0688,1.0688,1.0688,1.0688,1.0688,1.0688,1.0688,1.0688,1.0688,1.0688,1.0615,1.0558,1.0558,1.0477,1.0452,1.055,1.0558,1.059,1.068,1.0688,1.0688,1.0688,1.0688,1.0729,1.0826,1.0826,1.0785,1.0696,1.0688,1.0688,1.0688,1.0688,1.0688,1.0688,1.0688,1.0688,0.0,0.0,0.7617,0.0,0.0,0.0,0.0,0.0,0.0,0.0,0.0,0.0,0.0,0.0,0.0,0.0,0.0,0.0,0.0,0.0,0.0,0.0,0.0,0.0,0.0,0.0,0.0,0.0,0.0,1.0599,1.0599,1.0599,1.0599,1.0599,1.0631,1.0647,1.0647,1.068,1.0688,1.0688,1.0688,1.0688,1.0688,1.0688,1.0688,1.0688,1.0688,1.0688,1.0688,1.0688,1.0688,1.0688,1.0751,1.0743,1.0696,1.0751,1.0743,1.0688,1.0688,1.0688,1.0688,1.0688,1.0688,1.0688,1.0688,1.0688,1.0688,1.0688,1.0688,1.0688,1.0688,1.0688,1.0688,1.0688,1.0688,1.0688,1.0688,1.0688,1.0688,1.0688,1.0688,1.0688,1.0688,1.0688,1.0688,1.0688,1.0688,1.0688,1.0688,1.0688,1.0688,1.0688,1.0688,1.0688,1.0688,1.0688,1.0704,1.0737,1.0737,1.0826,1.1005,1.1013,1.094,1.0785,1.0753,1.0737,1.0737,1.0704,1.0688,1.0688,1.0688,1.0688,0.0,0.0,0.0,0.0,0.0,0.0,0.0,0.0,0.0,0.0,0.0,0.0,0.0,0.0,0.0,0.0,0.0,0.0,0.0,0.0,0.0,0.0,0.0,0.0,0.0,0.0,0.0,0.0,1.0269,1.0286,1.0286,1.0286,1.0286,1.0286,1.0387,1.0415,1.0415,1.0615,1.0688,1.0688,1.0688,1.0688,1.0688,1.0688,1.0688,1.0688,1.0688,1.0688,1.0688,1.0688,1.0688,1.0743,1.0962,1.0907,1.0743,1.0962,1.0907,1.0688,1.0688,1.0688,1.0688,1.0688,1.0688,1.0688,1.0688,1.0688,1.0688,1.0688,1.0688,1.0688,1.0688,1.0688,1.0688,1.0688,1.0688,1.0688,1.0688,1.0688,1.0688,1.0688,1.0688,1.0688,1.0688,1.0688,1.0688,1.0688,1.0688,1.0688,1.0688,1.0688,1.0688,1.0688,1.0688,1.0688,1.0688,1.0688,1.0761,1.0923,1.0932,1.1013,1.1183,1.1191,1.1175,1.1151,1.1005,1.0932,1.0988,1.0769,1.0688,1.0688,1.0688,1.0688,0.6539,0.7243,0.7918,0.0,0.0,0.0,0.0,0.0,0.0,0.0,0.0,0.0,0.0,0.0,0.0,0.0,0.0,0.0,0.0,0.0,0.0,0.0,0.0,0.0,0.0,0.0,0.0,0.0,1.0155,1.0212,1.0212,1.0212,1.0212,1.0212,1.0241,1.0331,1.0383,1.0509,1.0599,1.0688,1.0688,1.0688,1.0688,1.0688,1.0688,1.0688,1.0688,1.0688,1.0688,1.0688,1.0798,1.0962,1.1072,1.1126,1.1181,1.1126,1.1017,1.0907,1.0751,1.0688,1.0688,1.0688,1.0688,1.0688,1.0688,1.0688,1.0688,1.0688,1.0688,1.0688,1.0688,1.0688,1.0688,1.0688,1.0688,1.0688,1.0688,1.0688,1.0688,1.0688,1.0688,1.0688,1.0688,1.0688,1.0688,1.0688,1.0688,1.0688,1.0688,1.0688,1.0729,1.0834,1.085,1.0883,1.098,1.0988,1.1021,1.111,1.111,1.1191,1.137,1.1378,1.1427,1.1533,1.1256,1.111,1.111,1.0932,1.085,1.0842,1.0745,1.0688,0.6464,0.7105,0.7731,0.7883,0.0,0.0,0.0,0.0,0.0,0.0,0.0,0.0,0.0,0.0,0.0,0.0,0.0,0.0,0.0,0.0,0.0,0.0,0.0,0.0,0.0,0.0,0.0,0.0,0.9949,1.0022,1.0022,1.0022,1.0022,1.0022,1.0122,1.016,1.029,1.0334,1.0517,1.0688,1.0688,1.0688,1.0688,1.0688,1.0688,1.0688,1.0688,1.0688,1.0696,1.0743,1.0907,1.1126,1.1291,1.1455,1.1564,1.14,1.1236,1.1072,1.0852,1.0751,1.0688,1.0688,1.0688,1.0688,1.0688,1.0688,1.0688,1.0688,1.0729,1.0761,1.0761,1.0794,1.0826,1.0826,1.0826,1.0802,1.0712,1.0688,1.0688,1.0688,1.0688,1.0688,1.0688,1.0688,1.0688,1.0688,1.0688,1.0688,1.0688,1.0688,1.0761,1.1004,1.1028,1.1037,1.1208,1.1224,1.124,1.1289,1.1289,1.1378,1.1565,1.1573,1.1638,1.1776,1.15,1.1338,1.1289,1.1118,1.1013,1.102,1.0826,1.0737,0.6301,0.6673,0.0,0.0,0.0,0.0,0.0,0.0,0.0,0.0,0.0,0.0,0.0,0.0,0.0,0.0,0.0,0.0,0.0,0.0,0.0,0.0,0.0,0.0,0.0,0.0,0.0,0.0,0.9648,0.9657,0.9657,0.9657,0.9657,0.9657,0.9811,0.99,0.9908,1.0257,1.0517,1.0688,1.0688,1.0688,1.0688,1.0688,1.0688,1.0688,1.0688,1.0688,1.0696,1.0962,1.1072,1.1181,1.1728,1.1782,1.1618,1.1891,1.1564,1.1072,1.1072,1.0907,1.0688,1.0688,1.0688,1.0688,1.0688,1.0688,1.0688,1.0688,1.0818,1.0956,1.0956,1.1078,1.1191,1.1191,1.1191,1.1102,1.0761,1.0688,1.0688,1.0688,1.0688,1.0688,1.0688,1.0688,1.0688,1.0688,1.0688,1.0688,1.0688,1.0688,1.0761,1.1004,1.1028,1.1037,1.1208,1.1224,1.1297,1.1476,1.1484,1.1565,1.1752,1.176,1.1768,1.1776,1.176,1.1663,1.1484,1.1297,1.1126,1.1028,1.1012,1.0858,0.6,0.6432,0.0,0.0,0.0,0.0,0.0,0.0,0.0,0.0,0.0,0.0,0.0,0.0,0.0,0.0,0.0,0.0,0.0,0.0,0.0,0.0,0.0,0.0,0.0,0.0,0.0,0.0,0.0,0.9575,0.9575,0.9575,0.9575,0.9575,0.9689,0.977,0.9884,1.0249,1.0469,1.0526,1.0639,1.0688,1.0688,1.0688,1.0688,1.0696,1.0852,1.0962,1.0962,1.1072,1.1345,1.1673,1.1891,1.2055,1.211,1.2001,1.1837,1.1618,1.1236,1.1017,1.0907,1.0751,1.0688,1.0688,1.0688,1.0688,1.0688,1.0688,1.0826,1.1028,1.1028,1.1094,1.1224,1.1224,1.1224,1.1191,1.1062,1.1029,1.1029,1.1029,1.0948,1.0907,1.1013,1.094,1.0907,1.1013,1.1029,1.1029,1.1029,1.1029,1.1102,1.1289,1.1305,1.1386,1.1565,1.1581,1.1606,1.1671,1.1679,1.1703,1.1776,1.1776,1.1776,1.1776,1.1776,1.1744,1.1679,1.1492,1.1305,1.1126,1.1021,1.0867,0.5732,0.6122,0.0,0.0,0.0,0.0,0.0,0.0,0.0,0.0,0.0,0.0,0.0,0.0,0.0,0.0,0.0,0.0,0.0,0.0,0.0,0.0,0.0,0.0,0.0,0.0,0.0,0.0,0.0,0.0,0.9575,0.9575,0.9575,0.9575,0.9575,0.9713,0.9884,1.0128,1.0314,1.0383,1.055,1.0639,1.0688,1.0631,1.0694,1.0852,1.0958,1.1076,1.1126,1.1345,1.1618,1.2001,1.211,1.2219,1.2382,1.2219,1.2055,1.1946,1.1564,1.1291,1.1072,1.0907,1.0743,1.0688,1.0688,1.0737,1.0785,1.0785,1.0964,1.1151,1.1151,1.1273,1.1411,1.1411,1.1411,1.1411,1.1411,1.1313,1.1224,1.1224,1.1135,1.1086,1.12,1.1126,1.1094,1.1208,1.1224,1.1224,1.1224,1.1224,1.1289,1.1484,1.15,1.1573,1.176,1.1776,1.1776,1.1776,1.1776,1.1776,1.1776,1.1776,1.1776,1.1776,1.1776,1.1776,1.1776,1.1654,1.15,1.1313,1.1135,1.0923,0.0,0.0,0.0,0.0,0.0,0.0,0.0,0.0,0.0,0.0,0.0,0.0,0.0,0.0,0.0,0.0,0.0,0.0,0.0,0.0,0.0,0.0,0.0,0.0,0.0,0.0,0.0,0.0,0.9575,0.9575,0.9575,0.9632,0.9624,0.9624,0.9624,0.9705,0.9926,0.9935,1.0071,1.0375,1.0383,1.0526,1.0688,1.0509,1.0687,1.1118,1.0994,1.102,1.1181,1.1782,1.2001,1.2055,1.2273,1.2382,1.2382,1.2382,1.2219,1.2001,1.2001,1.1618,1.1126,1.1126,1.0907,1.0696,1.0688,1.0826,1.1028,1.1028,1.1224,1.15,1.1508,1.1638,1.1776,1.1776,1.1776,1.1776,1.1776,1.1492,1.124,1.124,1.1232,1.1232,1.124,1.1232,1.1232,1.124,1.124,1.124,1.124,1.124,1.1305,1.1492,1.1508,1.1581,1.176,1.1776,1.1776,1.1776,1.1776,1.1776,1.1776,1.1776,1.1776,1.1776,1.1776,1.1776,1.1776,1.1776,1.1679,1.1492,1.1305,1.1029,0.5611,0.0,0.0,0.0,0.0,0.0,0.0,0.0,0.0,0.0,0.0,0.0,0.0,0.0,0.0,0.0,0.0,0.0,0.0,0.0,0.0,0.0,0.0,0.0,0.0,0.0,0.0,0.0,0.9575,0.9575,0.9575,0.9969,1.0167,1.0167,1.0364,1.0291,0.9995,1.0129,1.0219,1.0241,1.0371,1.0526,1.0688,1.0671,1.0957,1.15,1.1951,1.2354,1.2663,1.2164,1.211,1.2273,1.2382,1.2382,1.2382,1.2382,1.2327,1.2273,1.2055,1.1891,1.1673,1.1236,1.1072,1.0962,1.0751,1.0826,1.1028,1.1028,1.1224,1.1533,1.1663,1.1736,1.1776,1.1776,1.1776,1.1776,1.1776,1.1695,1.1622,1.1622,1.1516,1.1468,1.1598,1.1508,1.1468,1.1606,1.1622,1.1622,1.1622,1.1622,1.1646,1.1695,1.1703,1.1719,1.1776,1.1776,1.1776,1.1776,1.1776,1.1776,1.1776,1.1776,1.1776,1.1776,1.1776,1.1776,1.1776,1.1776,1.1679,1.1492,1.1183,1.0988,0.5815,0.5943,0.0,0.0,0.0,0.0,0.0,0.6672,0.0,0.0,0.0,0.0,0.0,0.0,0.0,0.0,0.0,0.0,0.0,0.0,0.0,0.0,0.0,0.0,0.0,0.9575,0.9575,0.9575,0.9575,0.9673,0.992,1.0453,1.0797,1.0904,1.1051,1.0953,1.0511,1.0278,1.018,1.0261,1.0212,1.0351,1.0675,1.0607,1.1089,1.2025,1.2552,1.3266,1.4008,1.3727,1.3457,1.3142,1.3142,1.3088,1.2935,1.2827,1.2708,1.2555,1.2273,1.211,1.1946,1.1564,1.14,1.1291,1.1126,1.1209,1.1305,1.1305,1.1454,1.1638,1.1752,1.1776,1.1776,1.1776,1.1776,1.1776,1.1776,1.1776,1.1776,1.1776,1.1687,1.1646,1.176,1.1687,1.1654,1.176,1.1776,1.1776,1.1776,1.1776,1.1776,1.1776,1.1776,1.1776,1.1776,1.1776,1.1776,1.1776,1.1776,1.1776,1.1776,1.1776,1.1776,1.1776,1.1776,1.1776,1.1776,1.1776,1.1679,1.1492,1.1289,1.111,0.6196,0.6269,0.6237,0.6212,0.6219,0.0,0.6107,0.6197,0.0,0.0,0.0,0.0,0.0,0.0,0.0,0.0,0.0,0.0,0.0,0.0,0.0,0.0,0.0,0.0,0.9673,0.9723,0.9723,0.9772,0.9772,1.0019,1.056,1.1082,1.1473,1.1736,1.1736,1.1639,1.1296,1.056,1.027,1.0408,1.0196,1.0288,1.0724,1.0595,1.1326,1.275,1.3143,1.403,1.5221,1.5861,1.5446,1.4374,1.4374,1.4169,1.3856,1.3532,1.3207,1.2935,1.2545,1.2219,1.2055,1.2001,1.1837,1.1618,1.1627,1.1651,1.1725,1.1701,1.1728,1.1752,1.1768,1.1776,1.1776,1.1776,1.1776,1.1776,1.1776,1.1776,1.1776,1.1776,1.1776,1.1776,1.1776,1.1776,1.1776,1.1776,1.1776,1.1776,1.1776,1.1776,1.1776,1.1776,1.1776,1.1776,1.1776,1.1776,1.1776,1.1776,1.1776,1.1776,1.1776,1.1776,1.1776,1.1776,1.1776,1.1776,1.1776,1.1776,1.1695,1.1533,1.1508,1.1321,0.6578,0.6587,0.6554,0.64,0.0,0.0,0.5987,0.6092,0.631,0.0,0.0,0.0,0.0,0.0,0.0,0.0,0.0,0.0,0.0,0.0,0.0,0.0,0.0,0.0,1.0216,1.0462,1.0659,1.0855,1.0904,1.11,1.1639,1.2165,1.2457,1.2565,1.271,1.2516,1.1834,1.1492,1.1302,1.1267,1.1217,1.1309,1.1493,1.1747,1.2444,1.3593,1.443,1.539,1.6405,1.7041,1.6617,1.5541,1.5541,1.5339,1.4965,1.4277,1.3846,1.3403,1.2654,1.2382,1.2273,1.2055,1.1946,1.1891,1.1673,1.1675,1.1816,1.1828,1.1736,1.1589,1.1736,1.1776,1.1776,1.1776,1.1776,1.1776,1.1776,1.1776,1.1776,1.1776,1.1776,1.1776,1.1776,1.1776,1.1776,1.1776,1.1776,1.1776,1.1776,1.1776,1.1776,1.1776,1.1776,1.1776,1.1776,1.1776,1.1776,1.1776,1.1776,1.1776,1.1776,1.1776,1.1776,1.1776,1.1776,1.1776,1.1776,1.1776,1.176,1.1719,1.1573,1.1378,0.7241,0.7098,0.692,0.6733,0.0,0.0,0.0,0.6114,0.6278,0.6619,0.0,0.0,0.0,0.0,0.0,0.0,0.0,0.0,0.0,0.0,0.0,0.0,0.0,0.0,1.0593,1.098,1.1414,1.1912,1.196,1.2155,1.27,1.3232,1.3582,1.3727,1.3871,1.3678,1.3136,1.2603,1.2314,1.228,1.2132,1.2193,1.2394,1.2717,1.3529,1.4768,1.5594,1.6574,1.7582,1.8213,1.8108,1.7569,1.6988,1.6458,1.598,1.5298,1.4654,1.4008,1.3142,1.2772,1.2609,1.2273,1.2219,1.2164,1.2055,1.2108,1.2196,1.2056,1.192,1.1826,1.1812,1.1776,1.1776,1.1776,1.1776,1.1776,1.1776,1.1776,1.1776,1.1776,1.1776,1.1776,1.1776,1.1776,1.1776,1.1776,1.1776,1.1776,1.1776,1.1776,1.1776,1.1776,1.1776,1.1776,1.1776,1.1776,1.1776,1.1776,1.1776,1.1776,1.1776,1.1776,1.1776,1.1776,1.1776,1.1776,1.1776,1.1776,1.1776,1.1776,1.1679,1.1492,0.0,0.0,0.0,0.0,0.0,0.6416,0.0,0.0,0.0,0.6481,0.0,0.0,0.0,0.0,0.0,0.0,0.0,0.0,0.0,0.0,0.0,0.0,0.0,0.0,0.0,1.1552,1.2162,1.2767,1.2837,1.305,1.3634,1.4172,1.4544,1.4783,1.4783,1.464,1.44,1.3655,1.3318,1.3318,1.3125,1.3173,1.3414,1.3703,1.4533,1.5859,1.66,1.7544,1.8541,1.9063,1.9272,1.922,1.8265,1.7582,1.7054,1.6471,1.5725,1.4869,1.3846,1.3315,1.298,1.2545,1.2382,1.2391,1.2438,1.2516,1.2515,1.2379,1.2243,1.214,1.1941,1.1837,1.1776,1.1776,1.1776,1.1776,1.1776,1.1776,1.1776,1.1776,1.1776,1.1776,1.1776,1.1776,1.1776,1.1776,1.1776,1.1776,1.1776,1.1776,1.1776,1.1776,1.1776,1.1776,1.1776,1.1776,1.1776,1.1776,1.1776,1.1776,1.1776,1.1776,1.1776,1.1776,1.1776,1.1776,1.1776,1.1776,1.1776,1.1776,1.1776,1.1581,0.0,0.0,0.0,0.0,0.6928,0.0,0.0,0.0,0.5959,0.5969,0.0,0.0,0.0,0.0,0.0,0.0,0.0,0.0,0.0,0.0,0.0,0.0,0.0,0.0,0.0,1.2305,1.2956,1.3294,1.3318,1.3562,1.407,1.4706,1.5035,1.5035,1.5035,1.4939,1.464,1.434,1.4148,1.4148,1.4148,1.4244,1.4544,1.4819,1.5509,1.66,1.715,1.7964,1.8869,1.9168,1.9272,1.9272,1.9168,1.8907,1.8555,1.7687,1.7001,1.6246,1.4654,1.39,1.3457,1.2654,1.2382,1.2419,1.2673,1.2534,1.2373,1.2714,1.2419,1.2039,1.214,1.201,1.1776,1.1776,1.1776,1.1776,1.1776,1.1776,1.1776,1.1776,1.1776,1.1776,1.1776,1.1776,1.1776,1.1776,1.1776,1.1776,1.1776,1.1776,1.1776,1.1776,1.1776,1.1776,1.1776,1.1776,1.1776,1.1776,1.1776,1.1776,1.1776,1.1776,1.1776,1.1776,1.1776,1.1776,1.1776,1.1776,1.1776,1.1776,1.1776,1.1581,0.0,0.0,0.0,0.0,0.0,0.0,0.7005,0.0,0.6858,0.0,0.0,0.0,0.0,0.0,0.0,0.0,0.0,0.0,0.0,0.0,0.0,0.0,0.0,0.0,0.0,0.0,0.0,0.0,1.3791,1.4084,1.4624,1.5047,1.5329,1.5499,1.5499,1.5452,1.5356,1.5356,1.5404,1.5404,1.5534,1.5676,1.5832,1.6069,1.6539,1.7148,1.7526,1.8145,1.884,1.8942,1.9111,1.9272,1.9272,1.913,1.8817,1.8265,1.7635,1.6802,1.5618,1.4761,1.4062,1.3034,1.2555,1.2448,1.2843,1.2881,1.2794,1.3026,1.272,1.238,1.2217,1.201,1.1776,1.1776,1.1776,1.1776,1.1776,1.1776,1.1776,1.1776,1.1776,1.1776,1.1776,1.1776,1.1776,1.1776,1.1776,1.1776,1.1776,1.1776,1.1776,1.1776,1.1776,1.1776,1.1776,1.1776,1.1776,1.1776,1.1776,1.1776,1.1776,1.1776,1.1776,1.1776,1.1776,1.1776,1.1776,1.1776,1.1776,1.1776,1.1776,1.1638,0.8836,0.0,0.0,0.0,0.0,0.0,0.0,0.0,0.0,0.0,0.0,0.0,0.0,0.0,0.0,0.0,0.0,0.0,0.0,0.0,0.0,0.0,0.0,0.0,0.0,0.0,0.0,0.0,0.0,1.4108,1.474,1.515,1.5498,1.5698,1.5744,1.5832,1.5927,1.613,1.6224,1.6305,1.6494,1.6636,1.673,1.6932,1.7199,1.7534,1.7727,1.8189,1.8789,1.8789,1.8979,1.9272,1.9272,1.9182,1.8974,1.875,1.8227,1.7543,1.6683,1.5565,1.4331,1.3413,1.2762,1.2521,1.2937,1.3127,1.3154,1.3273,1.3024,1.2655,1.2414,1.207,1.1776,1.1776,1.1776,1.1776,1.1776,1.1776,1.1776,1.1776,1.1776,1.1776,1.1776,1.1776,1.1776,1.1776,1.1776,1.1776,1.1776,1.1776,1.1776,1.1776,1.1776,1.1776,1.1776,1.1776,1.1776,1.1776,1.1776,1.1776,1.1776,1.1776,1.1776,1.1776,1.1776,1.1776,1.1776,1.1776,1.1776,1.1776,1.1776,1.1679,0.0,0.0,0.0,0.8535,0.0,0.0,0.0,0.0,0.8863,0.0,0.0,0.0,0.0,0.0,0.0,0.0,0.0,0.0,0.0,0.0,0.0,0.0,0.0,0.0,0.0,0.0,0.0,0.0,0.0,0.0,1.4082,1.4937,1.5404,1.5404,1.5685,1.5927,1.6177,1.6224,1.6305,1.6588,1.6588,1.673,1.6979,1.6979,1.7293,1.7775,1.7808,1.8189,1.8789,1.8789,1.8979,1.9272,1.9272,1.9272,1.9272,1.9272,1.9078,1.8712,1.7859,1.6086,1.4169,1.3781,1.3088,1.2521,1.2937,1.3127,1.3154,1.357,1.3204,1.2724,1.2715,1.2251,1.1776,1.1776,1.1776,1.1776,1.1776,1.1776,1.1776,1.1776,1.1776,1.1776,1.1776,1.1776,1.1776,1.1776,1.1776,1.1776,1.1776,1.1776,1.1776,1.1776,1.1776,1.1776,1.1776,1.1776,1.1776,1.1776,1.1776,1.1776,1.1776,1.1776,1.1776,1.1776,1.1776,1.1776,1.1776,1.1776,1.1776,1.1776,1.1776,1.1679,0.0,0.0,1.0093,1.0141,0.0,0.0,0.0,0.0,0.0,0.0,0.0,0.0,0.0,0.0,0.0,0.0,0.0,0.0,0.0,0.0,0.0,0.0,0.0,0.0,0.0,0.0,0.0,0.0,1.2786,0.0,0.0,1.4747,1.5463,1.5681,1.6107,1.6353,1.6447,1.665,1.6791,1.6885,1.7012,1.7106,1.72,1.72,1.7305,1.7454,1.7454,1.7867,1.8467,1.8467,1.8789,1.9272,1.9272,1.9272,1.9272,1.9272,1.913,1.8764,1.7701,1.6471,1.519,1.4546,1.3684,1.3014,1.3276,1.3241,1.3154,1.357,1.3384,1.2964,1.2784,1.2363,1.2001,1.1837,1.1776,1.1776,1.1776,1.1776,1.1776,1.1776,1.1776,1.1776,1.1776,1.1776,1.1776,1.1776,1.1776,1.1776,1.1776,1.1776,1.1776,1.1776,1.1776,1.1776,1.1776,1.1776,1.1776,1.1776,1.1776,1.1776,1.1776,1.1776,1.1776,1.1776,1.1776,1.1776,1.1776,1.1776,1.1776,1.1776,1.1776,1.1744,1.141,1.1543,0.0,1.1735,1.1437,0.0,1.0781,0.0,0.0,0.0,0.0,0.0,0.0,0.0,0.0,0.0,0.0,0.0,0.0,0.0,0.0,0.0,0.0,0.0,0.0,0.0,1.2037,1.2144,0.0,0.0,0.0,0.0,1.528,1.5595,1.6271,1.6636,1.673,1.6932,1.7026,1.7106,1.7246,1.7279,1.7279,1.7279,1.7279,1.7279,1.7279,1.7691,1.8306,1.8306,1.8686,1.9272,1.9272,1.9272,1.9272,1.9272,1.9168,1.8921,1.8069,1.7226,1.6365,1.5618,1.4546,1.3668,1.3784,1.346,1.3154,1.357,1.3444,1.3144,1.2904,1.2535,1.2182,1.201,1.1897,1.1776,1.1776,1.1776,1.1776,1.1776,1.1776,1.1776,1.1776,1.1776,1.1776,1.1776,1.1776,1.1776,1.1776,1.1776,1.1776,1.1776,1.1776,1.1776,1.1776,1.1776,1.1776,1.1776,1.1776,1.1776,1.1776,1.1776,1.1776,1.1776,1.1776,1.1776,1.1776,1.1776,1.1776,1.1776,1.1889,1.201]}]]